<?xml version="1.0" encoding="UTF-8"?>
<gpx version="1.1" creator="2bulu-scraper" xmlns="http://www.topografix.com/GPX/1/1">
  <metadata><name>合江榕山宋城遗址</name><desc>source: 2bulu.com trackId=81263662; exported 2026-09-01T14:48:49.605Z</desc>
    <bounds minlat="28.812883" minlon="105.928898" maxlat="28.824491" maxlon="105.965702"/>
    <link href="https://www.2bulu.com/track/t-g2vxLiPzoKrp%252FR2KBg5Tzw%253D%253D.htm"><text>2bulu 源页面</text></link>
  </metadata>
  <wpt lat="28.823292" lon="105.92897"><ele>234</ele><name></name></wpt>
  <wpt lat="28.823292" lon="105.928973"><ele>234</ele><name></name></wpt>
  <wpt lat="28.822678" lon="105.928955"><ele>239</ele><name>岔路左转</name></wpt>
  <wpt lat="28.822677" lon="105.928956"><ele>239</ele><name></name></wpt>
  <wpt lat="28.822245" lon="105.929241"><ele>249</ele><name></name></wpt>
  <wpt lat="28.821658" lon="105.930062"><ele>283</ele><name>远观瀑布</name></wpt>
  <wpt lat="28.821387" lon="105.931999"><ele>309</ele><name></name></wpt>
  <wpt lat="28.820097" lon="105.93432"><ele>307</ele><name>路口左转</name></wpt>
  <wpt lat="28.820097" lon="105.93432"><ele>307</ele><name></name></wpt>
  <wpt lat="28.821322" lon="105.935287"><ele>316</ele><name>右转</name></wpt>
  <wpt lat="28.821272" lon="105.935289"><ele>316</ele><name></name></wpt>
  <wpt lat="28.823397" lon="105.940056"><ele>338</ele><name></name></wpt>
  <wpt lat="28.822754" lon="105.940373"><ele>332</ele><name></name></wpt>
  <wpt lat="28.822638" lon="105.940534"><ele>333</ele><name></name></wpt>
  <wpt lat="28.823335" lon="105.943876"><ele>369</ele><name></name></wpt>
  <wpt lat="28.823987" lon="105.944253"><ele>390</ele><name></name></wpt>
  <wpt lat="28.823987" lon="105.944255"><ele>390</ele><name></name></wpt>
  <wpt lat="28.824163" lon="105.946115"><ele>426</ele><name></name></wpt>
  <wpt lat="28.824332" lon="105.948171"><ele>424</ele><name></name></wpt>
  <wpt lat="28.822846" lon="105.948434"><ele>439</ele><name>走大路不走小路</name></wpt>
  <wpt lat="28.821305" lon="105.951453"><ele>492</ele><name>左转走台阶上山</name></wpt>
  <wpt lat="28.821305" lon="105.951452"><ele>492</ele><name></name></wpt>
  <wpt lat="28.819572" lon="105.952888"><ele>552</ele><name>八仙洞</name></wpt>
  <wpt lat="28.819572" lon="105.952889"><ele>552</ele><name></name></wpt>
  <wpt lat="28.81943" lon="105.953005"><ele>550</ele><name></name></wpt>
  <wpt lat="28.81828" lon="105.953715"><ele>614</ele><name></name></wpt>
  <wpt lat="28.816961" lon="105.954934"><ele>622</ele><name></name></wpt>
  <wpt lat="28.81565" lon="105.955855"><ele>653</ele><name></name></wpt>
  <wpt lat="28.812963" lon="105.957421"><ele>691</ele><name>土路上山</name></wpt>
  <wpt lat="28.812937" lon="105.957445"><ele>691</ele><name></name></wpt>
  <wpt lat="28.8148" lon="105.958"><ele>779</ele><name>永昌门</name></wpt>
  <wpt lat="28.815008" lon="105.958079"><ele>787</ele><name></name></wpt>
  <wpt lat="28.820683" lon="105.956657"><ele>808</ele><name></name></wpt>
  <wpt lat="28.820845" lon="105.956558"><ele>801</ele><name>太平门旧址</name></wpt>
  <wpt lat="28.820745" lon="105.956801"><ele>814</ele><name></name></wpt>
  <wpt lat="28.820966" lon="105.956733"><ele>824</ele><name></name></wpt>
  <wpt lat="28.821942" lon="105.957572"><ele>866</ele><name>木屋</name></wpt>
  <wpt lat="28.821941" lon="105.957573"><ele>866</ele><name>木屋</name></wpt>
  <wpt lat="28.822205" lon="105.958563"><ele>851</ele><name>水库1</name></wpt>
  <wpt lat="28.822205" lon="105.958563"><ele>851</ele><name></name></wpt>
  <wpt lat="28.822703" lon="105.959213"><ele>867</ele><name>水库2</name></wpt>
  <wpt lat="28.822703" lon="105.959213"><ele>867</ele><name></name></wpt>
  <wpt lat="28.821722" lon="105.962447"><ele>873</ele><name>安乐门旧址</name></wpt>
  <wpt lat="28.821721" lon="105.962445"><ele>873</ele><name></name></wpt>
  <wpt lat="28.821228" lon="105.963037"><ele>833</ele><name>滴水观音石刻</name></wpt>
  <wpt lat="28.821225" lon="105.963034"><ele>833</ele><name>滴水观音</name></wpt>
  <wpt lat="28.820761" lon="105.963642"><ele>802</ele><name></name></wpt>
  <wpt lat="28.820305" lon="105.963828"><ele>780</ele><name>吉安门</name></wpt>
  <wpt lat="28.820309" lon="105.963813"><ele>781</ele><name>吉安门旧址</name></wpt>
  <wpt lat="28.816176" lon="105.962489"><ele>804</ele><name>得胜门</name></wpt>
  <wpt lat="28.816233" lon="105.962487"><ele>805</ele><name>得胜门</name></wpt>
  <wpt lat="28.81645" lon="105.962188"><ele>850</ele><name>补水点</name></wpt>
  <wpt lat="28.816451" lon="105.962186"><ele>850</ele><name></name></wpt>
  <wpt lat="28.815945" lon="105.960442"><ele>906</ele><name>林场旧址</name></wpt>
  <wpt lat="28.815943" lon="105.960445"><ele>906</ele><name>林场旧址</name></wpt>
  <wpt lat="28.815567" lon="105.959022"><ele>898</ele><name>大定门旧址</name></wpt>
  <wpt lat="28.815567" lon="105.959024"><ele>898</ele><name>大定门旧址</name></wpt>
  <wpt lat="28.815353" lon="105.958695"><ele>869</ele><name>城墙</name></wpt>
  <trk><name>合江榕山宋城遗址</name>
      <trkseg>
        <trkpt lat="28.823292" lon="105.928973"><ele>233.9512</ele><time>2026-03-27T18:05:16.000Z</time></trkpt>
        <trkpt lat="28.823242" lon="105.928974"><ele>234.85855</ele><time>2026-03-27T18:05:16.000Z</time></trkpt>
        <trkpt lat="28.82323" lon="105.928973"><ele>234.89886</ele><time>2026-03-27T18:05:21.000Z</time></trkpt>
        <trkpt lat="28.823158" lon="105.928969"><ele>235.13466</ele><time>2026-03-27T18:05:26.000Z</time></trkpt>
        <trkpt lat="28.823087" lon="105.928974"><ele>235.44312</ele><time>2026-03-27T18:05:31.000Z</time></trkpt>
        <trkpt lat="28.823035" lon="105.928994"><ele>236.09702</ele><time>2026-03-27T18:05:37.000Z</time></trkpt>
        <trkpt lat="28.822996" lon="105.928996"><ele>236.47563</ele><time>2026-03-27T18:05:41.000Z</time></trkpt>
        <trkpt lat="28.822948" lon="105.928977"><ele>236.5937</ele><time>2026-03-27T18:05:46.000Z</time></trkpt>
        <trkpt lat="28.822901" lon="105.928956"><ele>236.48904</ele><time>2026-03-27T18:05:51.000Z</time></trkpt>
        <trkpt lat="28.822852" lon="105.928941"><ele>236.52332</ele><time>2026-03-27T18:05:57.000Z</time></trkpt>
        <trkpt lat="28.82281" lon="105.928921"><ele>236.70091</ele><time>2026-03-27T18:06:02.000Z</time></trkpt>
        <trkpt lat="28.82276" lon="105.928898"><ele>237.0421</ele><time>2026-03-27T18:06:07.000Z</time></trkpt>
        <trkpt lat="28.822711" lon="105.928906"><ele>238.03328</ele><time>2026-03-27T18:06:13.000Z</time></trkpt>
        <trkpt lat="28.822675" lon="105.928947"><ele>238.90906</ele><time>2026-03-27T18:06:20.000Z</time></trkpt>
        <trkpt lat="28.822634" lon="105.928987"><ele>238.56927</ele><time>2026-03-27T18:06:35.000Z</time></trkpt>
        <trkpt lat="28.822599" lon="105.928993"><ele>238.44063</ele><time>2026-03-27T18:06:39.000Z</time></trkpt>
        <trkpt lat="28.822544" lon="105.928992"><ele>239.02193</ele><time>2026-03-27T18:06:45.000Z</time></trkpt>
        <trkpt lat="28.822492" lon="105.928985"><ele>239.69579</ele><time>2026-03-27T18:06:53.000Z</time></trkpt>
        <trkpt lat="28.822463" lon="105.929023"><ele>240.73659</ele><time>2026-03-27T18:07:01.000Z</time></trkpt>
        <trkpt lat="28.822426" lon="105.929058"><ele>241.56584</ele><time>2026-03-27T18:07:07.000Z</time></trkpt>
        <trkpt lat="28.822382" lon="105.929087"><ele>242.39131</ele><time>2026-03-27T18:07:16.000Z</time></trkpt>
        <trkpt lat="28.822348" lon="105.929117"><ele>243.27556</ele><time>2026-03-27T18:07:23.000Z</time></trkpt>
        <trkpt lat="28.822311" lon="105.929156"><ele>245.56862</ele><time>2026-03-27T18:07:33.000Z</time></trkpt>
        <trkpt lat="28.822272" lon="105.92919"><ele>247.22601</ele><time>2026-03-27T18:07:44.000Z</time></trkpt>
        <trkpt lat="28.822245" lon="105.929238"><ele>249.1796</ele><time>2026-03-27T18:07:54.000Z</time></trkpt>
        <trkpt lat="28.8222" lon="105.929262"><ele>250.66548</ele><time>2026-03-27T18:08:06.000Z</time></trkpt>
        <trkpt lat="28.82216" lon="105.929294"><ele>251.05363</ele><time>2026-03-27T18:08:24.000Z</time></trkpt>
        <trkpt lat="28.822128" lon="105.929332"><ele>253.35304</ele><time>2026-03-27T18:08:35.000Z</time></trkpt>
        <trkpt lat="28.822099" lon="105.929373"><ele>254.71165</ele><time>2026-03-27T18:08:44.000Z</time></trkpt>
        <trkpt lat="28.822068" lon="105.929413"><ele>256.2733</ele><time>2026-03-27T18:08:54.000Z</time></trkpt>
        <trkpt lat="28.822048" lon="105.929461"><ele>258.22595</ele><time>2026-03-27T18:09:07.000Z</time></trkpt>
        <trkpt lat="28.822015" lon="105.929499"><ele>259.58286</ele><time>2026-03-27T18:09:16.000Z</time></trkpt>
        <trkpt lat="28.821975" lon="105.929531"><ele>261.37732</ele><time>2026-03-27T18:09:27.000Z</time></trkpt>
        <trkpt lat="28.821962" lon="105.929583"><ele>263.31116</ele><time>2026-03-27T18:09:43.000Z</time></trkpt>
        <trkpt lat="28.821936" lon="105.929628"><ele>265.2733</ele><time>2026-03-27T18:09:55.000Z</time></trkpt>
        <trkpt lat="28.821909" lon="105.929675"><ele>267.5956</ele><time>2026-03-27T18:10:07.000Z</time></trkpt>
        <trkpt lat="28.821873" lon="105.929708"><ele>268.79462</ele><time>2026-03-27T18:10:17.000Z</time></trkpt>
        <trkpt lat="28.821842" lon="105.929747"><ele>270.5844</ele><time>2026-03-27T18:10:29.000Z</time></trkpt>
        <trkpt lat="28.821829" lon="105.929796"><ele>272.36658</ele><time>2026-03-27T18:10:40.000Z</time></trkpt>
        <trkpt lat="28.821788" lon="105.929833"><ele>274.2953</ele><time>2026-03-27T18:11:06.000Z</time></trkpt>
        <trkpt lat="28.821768" lon="105.929881"><ele>275.6067</ele><time>2026-03-27T18:11:16.000Z</time></trkpt>
        <trkpt lat="28.821731" lon="105.929918"><ele>276.7341</ele><time>2026-03-27T18:11:25.000Z</time></trkpt>
        <trkpt lat="28.821709" lon="105.929966"><ele>279.23108</ele><time>2026-03-27T18:11:36.000Z</time></trkpt>
        <trkpt lat="28.821695" lon="105.930017"><ele>281.21362</ele><time>2026-03-27T18:11:52.000Z</time></trkpt>
        <trkpt lat="28.821658" lon="105.930062"><ele>283.03534</ele><time>2026-03-27T18:12:10.000Z</time></trkpt>
        <trkpt lat="28.821666" lon="105.93012"><ele>283.38882</ele><time>2026-03-27T18:12:39.000Z</time></trkpt>
        <trkpt lat="28.821664" lon="105.930169"><ele>283.42987</ele><time>2026-03-27T18:12:45.000Z</time></trkpt>
        <trkpt lat="28.821645" lon="105.930222"><ele>283.5486</ele><time>2026-03-27T18:12:51.000Z</time></trkpt>
        <trkpt lat="28.821619" lon="105.930263"><ele>283.71515</ele><time>2026-03-27T18:12:55.000Z</time></trkpt>
        <trkpt lat="28.821606" lon="105.930327"><ele>283.87418</ele><time>2026-03-27T18:13:03.000Z</time></trkpt>
        <trkpt lat="28.821596" lon="105.930386"><ele>283.78336</ele><time>2026-03-27T18:13:11.000Z</time></trkpt>
        <trkpt lat="28.821615" lon="105.930435"><ele>284.13562</ele><time>2026-03-27T18:13:17.000Z</time></trkpt>
        <trkpt lat="28.821627" lon="105.930489"><ele>284.67844</ele><time>2026-03-27T18:13:23.000Z</time></trkpt>
        <trkpt lat="28.821605" lon="105.930542"><ele>285.33505</ele><time>2026-03-27T18:13:30.000Z</time></trkpt>
        <trkpt lat="28.821593" lon="105.930596"><ele>286.481</ele><time>2026-03-27T18:13:37.000Z</time></trkpt>
        <trkpt lat="28.821609" lon="105.93065"><ele>288.11722</ele><time>2026-03-27T18:13:48.000Z</time></trkpt>
        <trkpt lat="28.821628" lon="105.930699"><ele>290.2967</ele><time>2026-03-27T18:14:10.000Z</time></trkpt>
        <trkpt lat="28.821636" lon="105.930756"><ele>291.34653</ele><time>2026-03-27T18:14:23.000Z</time></trkpt>
        <trkpt lat="28.82163" lon="105.930814"><ele>293.5631</ele><time>2026-03-27T18:14:41.000Z</time></trkpt>
        <trkpt lat="28.821657" lon="105.930862"><ele>294.81287</ele><time>2026-03-27T18:15:10.000Z</time></trkpt>
        <trkpt lat="28.821661" lon="105.930919"><ele>297.07605</ele><time>2026-03-27T18:15:29.000Z</time></trkpt>
        <trkpt lat="28.821702" lon="105.930938"><ele>299.11652</ele><time>2026-03-27T18:15:46.000Z</time></trkpt>
        <trkpt lat="28.821718" lon="105.930987"><ele>301.36255</ele><time>2026-03-27T18:16:03.000Z</time></trkpt>
        <trkpt lat="28.821713" lon="105.931042"><ele>301.37866</ele><time>2026-03-27T18:16:11.000Z</time></trkpt>
        <trkpt lat="28.821705" lon="105.931099"><ele>301.28287</ele><time>2026-03-27T18:16:18.000Z</time></trkpt>
        <trkpt lat="28.8217" lon="105.931158"><ele>301.45438</ele><time>2026-03-27T18:16:48.000Z</time></trkpt>
        <trkpt lat="28.821692" lon="105.931204"><ele>302.2712</ele><time>2026-03-27T18:16:55.000Z</time></trkpt>
        <trkpt lat="28.82166" lon="105.931259"><ele>302.31262</ele><time>2026-03-27T18:17:11.000Z</time></trkpt>
        <trkpt lat="28.821646" lon="105.931306"><ele>302.0247</ele><time>2026-03-27T18:17:20.000Z</time></trkpt>
        <trkpt lat="28.821637" lon="105.931359"><ele>302.06113</ele><time>2026-03-27T18:17:26.000Z</time></trkpt>
        <trkpt lat="28.821636" lon="105.931413"><ele>302.16428</ele><time>2026-03-27T18:17:31.000Z</time></trkpt>
        <trkpt lat="28.821649" lon="105.931473"><ele>301.79865</ele><time>2026-03-27T18:17:38.000Z</time></trkpt>
        <trkpt lat="28.821653" lon="105.931523"><ele>302.06555</ele><time>2026-03-27T18:17:44.000Z</time></trkpt>
        <trkpt lat="28.821649" lon="105.931579"><ele>302.21286</ele><time>2026-03-27T18:18:07.000Z</time></trkpt>
        <trkpt lat="28.821632" lon="105.931625"><ele>307.40735</ele><time>2026-03-27T18:18:31.000Z</time></trkpt>
        <trkpt lat="28.821631" lon="105.931678"><ele>308.56714</ele><time>2026-03-27T18:19:02.000Z</time></trkpt>
        <trkpt lat="28.821615" lon="105.93172"><ele>308.5359</ele><time>2026-03-27T18:19:11.000Z</time></trkpt>
        <trkpt lat="28.821595" lon="105.931771"><ele>308.9568</ele><time>2026-03-27T18:19:19.000Z</time></trkpt>
        <trkpt lat="28.821564" lon="105.931803"><ele>309.1604</ele><time>2026-03-27T18:19:23.000Z</time></trkpt>
        <trkpt lat="28.821523" lon="105.931853"><ele>309.4686</ele><time>2026-03-27T18:19:32.000Z</time></trkpt>
        <trkpt lat="28.8215" lon="105.931899"><ele>309.6668</ele><time>2026-03-27T18:19:38.000Z</time></trkpt>
        <trkpt lat="28.821463" lon="105.931938"><ele>309.5641</ele><time>2026-03-27T18:19:45.000Z</time></trkpt>
        <trkpt lat="28.821421" lon="105.931961"><ele>309.36655</ele><time>2026-03-27T18:19:52.000Z</time></trkpt>
        <trkpt lat="28.821388" lon="105.931996"><ele>309.41043</ele><time>2026-03-27T18:19:59.000Z</time></trkpt>
        <trkpt lat="28.821371" lon="105.932048"><ele>310.02414</ele><time>2026-03-27T18:20:16.000Z</time></trkpt>
        <trkpt lat="28.821343" lon="105.932081"><ele>311.19202</ele><time>2026-03-27T18:20:24.000Z</time></trkpt>
        <trkpt lat="28.82129" lon="105.932114"><ele>311.54752</ele><time>2026-03-27T18:20:38.000Z</time></trkpt>
        <trkpt lat="28.821255" lon="105.932142"><ele>311.49118</ele><time>2026-03-27T18:20:43.000Z</time></trkpt>
        <trkpt lat="28.821209" lon="105.932165"><ele>311.45062</ele><time>2026-03-27T18:20:49.000Z</time></trkpt>
        <trkpt lat="28.821178" lon="105.932207"><ele>311.2148</ele><time>2026-03-27T18:20:55.000Z</time></trkpt>
        <trkpt lat="28.821139" lon="105.932241"><ele>310.89087</ele><time>2026-03-27T18:21:02.000Z</time></trkpt>
        <trkpt lat="28.821093" lon="105.932252"><ele>310.30508</ele><time>2026-03-27T18:21:08.000Z</time></trkpt>
        <trkpt lat="28.82105" lon="105.932249"><ele>309.43048</ele><time>2026-03-27T18:21:12.000Z</time></trkpt>
        <trkpt lat="28.820989" lon="105.932256"><ele>309.41837</ele><time>2026-03-27T18:21:18.000Z</time></trkpt>
        <trkpt lat="28.820943" lon="105.932283"><ele>309.43542</ele><time>2026-03-27T18:21:23.000Z</time></trkpt>
        <trkpt lat="28.820901" lon="105.932304"><ele>309.4116</ele><time>2026-03-27T18:21:27.000Z</time></trkpt>
        <trkpt lat="28.820874" lon="105.932348"><ele>309.0917</ele><time>2026-03-27T18:21:32.000Z</time></trkpt>
        <trkpt lat="28.820866" lon="105.932403"><ele>309.19156</ele><time>2026-03-27T18:21:36.000Z</time></trkpt>
        <trkpt lat="28.820841" lon="105.932461"><ele>309.3026</ele><time>2026-03-27T18:21:42.000Z</time></trkpt>
        <trkpt lat="28.820827" lon="105.932508"><ele>309.3897</ele><time>2026-03-27T18:21:46.000Z</time></trkpt>
        <trkpt lat="28.820796" lon="105.932569"><ele>309.8467</ele><time>2026-03-27T18:22:03.000Z</time></trkpt>
        <trkpt lat="28.820787" lon="105.932619"><ele>309.54187</ele><time>2026-03-27T18:22:18.000Z</time></trkpt>
        <trkpt lat="28.820785" lon="105.932677"><ele>309.4065</ele><time>2026-03-27T18:22:24.000Z</time></trkpt>
        <trkpt lat="28.820779" lon="105.932736"><ele>309.70258</ele><time>2026-03-27T18:22:30.000Z</time></trkpt>
        <trkpt lat="28.820738" lon="105.932781"><ele>310.24493</ele><time>2026-03-27T18:22:38.000Z</time></trkpt>
        <trkpt lat="28.820694" lon="105.932799"><ele>310.16293</ele><time>2026-03-27T18:22:43.000Z</time></trkpt>
        <trkpt lat="28.820644" lon="105.9328"><ele>310.03107</ele><time>2026-03-27T18:22:48.000Z</time></trkpt>
        <trkpt lat="28.820598" lon="105.932827"><ele>310.02423</ele><time>2026-03-27T18:22:54.000Z</time></trkpt>
        <trkpt lat="28.820554" lon="105.932846"><ele>309.93478</ele><time>2026-03-27T18:22:59.000Z</time></trkpt>
        <trkpt lat="28.820507" lon="105.932861"><ele>310.56912</ele><time>2026-03-27T18:23:04.000Z</time></trkpt>
        <trkpt lat="28.82046" lon="105.932896"><ele>311.69693</ele><time>2026-03-27T18:23:14.000Z</time></trkpt>
        <trkpt lat="28.820434" lon="105.932936"><ele>312.79587</ele><time>2026-03-27T18:23:23.000Z</time></trkpt>
        <trkpt lat="28.820406" lon="105.932978"><ele>314.33417</ele><time>2026-03-27T18:23:31.000Z</time></trkpt>
        <trkpt lat="28.820364" lon="105.933013"><ele>315.5525</ele><time>2026-03-27T18:23:40.000Z</time></trkpt>
        <trkpt lat="28.820327" lon="105.932979"><ele>316.08853</ele><time>2026-03-27T18:24:03.000Z</time></trkpt>
        <trkpt lat="28.820294" lon="105.933011"><ele>316.58008</ele><time>2026-03-27T18:24:20.000Z</time></trkpt>
        <trkpt lat="28.820259" lon="105.933052"><ele>317.07635</ele><time>2026-03-27T18:24:27.000Z</time></trkpt>
        <trkpt lat="28.820211" lon="105.933073"><ele>316.95532</ele><time>2026-03-27T18:24:34.000Z</time></trkpt>
        <trkpt lat="28.820164" lon="105.93309"><ele>316.86932</ele><time>2026-03-27T18:24:41.000Z</time></trkpt>
        <trkpt lat="28.820147" lon="105.933134"><ele>316.91232</ele><time>2026-03-27T18:24:47.000Z</time></trkpt>
        <trkpt lat="28.820146" lon="105.933191"><ele>317.85352</ele><time>2026-03-27T18:24:54.000Z</time></trkpt>
        <trkpt lat="28.820158" lon="105.933244"><ele>318.28833</ele><time>2026-03-27T18:25:00.000Z</time></trkpt>
        <trkpt lat="28.820169" lon="105.933297"><ele>318.1341</ele><time>2026-03-27T18:25:05.000Z</time></trkpt>
        <trkpt lat="28.820179" lon="105.933351"><ele>318.14163</ele><time>2026-03-27T18:25:10.000Z</time></trkpt>
        <trkpt lat="28.820183" lon="105.933414"><ele>317.8308</ele><time>2026-03-27T18:25:17.000Z</time></trkpt>
        <trkpt lat="28.820182" lon="105.933467"><ele>317.32394</ele><time>2026-03-27T18:25:23.000Z</time></trkpt>
        <trkpt lat="28.820185" lon="105.933518"><ele>316.51117</ele><time>2026-03-27T18:25:28.000Z</time></trkpt>
        <trkpt lat="28.82019" lon="105.933577"><ele>315.34692</ele><time>2026-03-27T18:25:34.000Z</time></trkpt>
        <trkpt lat="28.820207" lon="105.933621"><ele>315.12183</ele><time>2026-03-27T18:25:38.000Z</time></trkpt>
        <trkpt lat="28.820228" lon="105.933671"><ele>314.85724</ele><time>2026-03-27T18:25:43.000Z</time></trkpt>
        <trkpt lat="28.820242" lon="105.933726"><ele>314.63245</ele><time>2026-03-27T18:25:48.000Z</time></trkpt>
        <trkpt lat="28.82025" lon="105.933783"><ele>313.6554</ele><time>2026-03-27T18:25:55.000Z</time></trkpt>
        <trkpt lat="28.820227" lon="105.933834"><ele>312.77167</ele><time>2026-03-27T18:26:01.000Z</time></trkpt>
        <trkpt lat="28.820201" lon="105.933883"><ele>311.7702</ele><time>2026-03-27T18:26:06.000Z</time></trkpt>
        <trkpt lat="28.820172" lon="105.933939"><ele>310.66873</ele><time>2026-03-27T18:26:11.000Z</time></trkpt>
        <trkpt lat="28.820155" lon="105.933994"><ele>310.107</ele><time>2026-03-27T18:26:15.000Z</time></trkpt>
        <trkpt lat="28.82014" lon="105.934047"><ele>309.39624</ele><time>2026-03-27T18:26:19.000Z</time></trkpt>
        <trkpt lat="28.820129" lon="105.934098"><ele>308.5211</ele><time>2026-03-27T18:26:23.000Z</time></trkpt>
        <trkpt lat="28.820108" lon="105.934158"><ele>307.89536</ele><time>2026-03-27T18:26:29.000Z</time></trkpt>
        <trkpt lat="28.820108" lon="105.934215"><ele>307.10886</ele><time>2026-03-27T18:26:41.000Z</time></trkpt>
        <trkpt lat="28.820109" lon="105.934267"><ele>306.34518</ele><time>2026-03-27T18:26:52.000Z</time></trkpt>
        <trkpt lat="28.820098" lon="105.934317"><ele>306.93643</ele><time>2026-03-27T18:27:00.000Z</time></trkpt>
        <trkpt lat="28.820115" lon="105.934368"><ele>307.4957</ele><time>2026-03-27T18:27:22.000Z</time></trkpt>
        <trkpt lat="28.820163" lon="105.93439"><ele>307.38702</ele><time>2026-03-27T18:27:33.000Z</time></trkpt>
        <trkpt lat="28.820207" lon="105.934423"><ele>307.3346</ele><time>2026-03-27T18:27:40.000Z</time></trkpt>
        <trkpt lat="28.820257" lon="105.934444"><ele>307.33905</ele><time>2026-03-27T18:27:46.000Z</time></trkpt>
        <trkpt lat="28.820305" lon="105.934457"><ele>307.33945</ele><time>2026-03-27T18:27:51.000Z</time></trkpt>
        <trkpt lat="28.820356" lon="105.934455"><ele>307.2633</ele><time>2026-03-27T18:27:57.000Z</time></trkpt>
        <trkpt lat="28.820405" lon="105.934439"><ele>307.3397</ele><time>2026-03-27T18:28:02.000Z</time></trkpt>
        <trkpt lat="28.820452" lon="105.934421"><ele>307.33356</ele><time>2026-03-27T18:28:07.000Z</time></trkpt>
        <trkpt lat="28.820503" lon="105.934411"><ele>307.03787</ele><time>2026-03-27T18:28:11.000Z</time></trkpt>
        <trkpt lat="28.820559" lon="105.934405"><ele>306.90063</ele><time>2026-03-27T18:28:16.000Z</time></trkpt>
        <trkpt lat="28.820608" lon="105.934414"><ele>306.90564</ele><time>2026-03-27T18:28:20.000Z</time></trkpt>
        <trkpt lat="28.820649" lon="105.934448"><ele>306.8437</ele><time>2026-03-27T18:28:25.000Z</time></trkpt>
        <trkpt lat="28.820677" lon="105.934506"><ele>306.97324</ele><time>2026-03-27T18:28:31.000Z</time></trkpt>
        <trkpt lat="28.820694" lon="105.93456"><ele>307.64548</ele><time>2026-03-27T18:28:36.000Z</time></trkpt>
        <trkpt lat="28.820697" lon="105.934619"><ele>307.9362</ele><time>2026-03-27T18:28:41.000Z</time></trkpt>
        <trkpt lat="28.82068" lon="105.934674"><ele>308.8743</ele><time>2026-03-27T18:28:46.000Z</time></trkpt>
        <trkpt lat="28.820663" lon="105.934726"><ele>309.55542</ele><time>2026-03-27T18:28:51.000Z</time></trkpt>
        <trkpt lat="28.820647" lon="105.934772"><ele>309.9121</ele><time>2026-03-27T18:28:55.000Z</time></trkpt>
        <trkpt lat="28.820633" lon="105.934833"><ele>310.59375</ele><time>2026-03-27T18:29:01.000Z</time></trkpt>
        <trkpt lat="28.820632" lon="105.934886"><ele>310.74277</ele><time>2026-03-27T18:29:06.000Z</time></trkpt>
        <trkpt lat="28.82064" lon="105.934939"><ele>310.9182</ele><time>2026-03-27T18:29:11.000Z</time></trkpt>
        <trkpt lat="28.820653" lon="105.934991"><ele>311.47464</ele><time>2026-03-27T18:29:16.000Z</time></trkpt>
        <trkpt lat="28.820675" lon="105.935044"><ele>311.98508</ele><time>2026-03-27T18:29:21.000Z</time></trkpt>
        <trkpt lat="28.820699" lon="105.935088"><ele>312.21375</ele><time>2026-03-27T18:29:25.000Z</time></trkpt>
        <trkpt lat="28.82073" lon="105.935143"><ele>312.6156</ele><time>2026-03-27T18:29:30.000Z</time></trkpt>
        <trkpt lat="28.820767" lon="105.935191"><ele>312.85397</ele><time>2026-03-27T18:29:35.000Z</time></trkpt>
        <trkpt lat="28.82081" lon="105.935227"><ele>312.86917</ele><time>2026-03-27T18:29:40.000Z</time></trkpt>
        <trkpt lat="28.82085" lon="105.935258"><ele>313.38037</ele><time>2026-03-27T18:29:44.000Z</time></trkpt>
        <trkpt lat="28.8209" lon="105.935293"><ele>314.25626</ele><time>2026-03-27T18:29:49.000Z</time></trkpt>
        <trkpt lat="28.82095" lon="105.935312"><ele>314.76062</ele><time>2026-03-27T18:29:54.000Z</time></trkpt>
        <trkpt lat="28.821007" lon="105.935319"><ele>314.73248</ele><time>2026-03-27T18:30:00.000Z</time></trkpt>
        <trkpt lat="28.821059" lon="105.935317"><ele>314.9216</ele><time>2026-03-27T18:30:04.000Z</time></trkpt>
        <trkpt lat="28.821112" lon="105.935308"><ele>315.04022</ele><time>2026-03-27T18:30:09.000Z</time></trkpt>
        <trkpt lat="28.821158" lon="105.935295"><ele>315.27628</ele><time>2026-03-27T18:30:13.000Z</time></trkpt>
        <trkpt lat="28.821209" lon="105.93529"><ele>315.66092</ele><time>2026-03-27T18:30:18.000Z</time></trkpt>
        <trkpt lat="28.821266" lon="105.935288"><ele>316.12607</ele><time>2026-03-27T18:30:23.000Z</time></trkpt>
        <trkpt lat="28.821314" lon="105.935285"><ele>316.41632</ele><time>2026-03-27T18:30:27.000Z</time></trkpt>
        <trkpt lat="28.821374" lon="105.935285"><ele>316.52457</ele><time>2026-03-27T18:30:35.000Z</time></trkpt>
        <trkpt lat="28.821408" lon="105.93532"><ele>315.40262</ele><time>2026-03-27T18:30:42.000Z</time></trkpt>
        <trkpt lat="28.821433" lon="105.935367"><ele>313.16208</ele><time>2026-03-27T18:30:48.000Z</time></trkpt>
        <trkpt lat="28.821468" lon="105.935399"><ele>311.17218</ele><time>2026-03-27T18:30:53.000Z</time></trkpt>
        <trkpt lat="28.821515" lon="105.935416"><ele>309.90933</ele><time>2026-03-27T18:30:59.000Z</time></trkpt>
        <trkpt lat="28.821567" lon="105.935428"><ele>308.8542</ele><time>2026-03-27T18:31:06.000Z</time></trkpt>
        <trkpt lat="28.821614" lon="105.93544"><ele>307.6126</ele><time>2026-03-27T18:31:11.000Z</time></trkpt>
        <trkpt lat="28.82166" lon="105.935461"><ele>306.77957</ele><time>2026-03-27T18:31:15.000Z</time></trkpt>
        <trkpt lat="28.821707" lon="105.935495"><ele>305.80075</ele><time>2026-03-27T18:31:19.000Z</time></trkpt>
        <trkpt lat="28.821749" lon="105.935538"><ele>305.01633</ele><time>2026-03-27T18:31:23.000Z</time></trkpt>
        <trkpt lat="28.821777" lon="105.935588"><ele>304.70087</ele><time>2026-03-27T18:31:27.000Z</time></trkpt>
        <trkpt lat="28.821795" lon="105.935661"><ele>303.98505</ele><time>2026-03-27T18:31:34.000Z</time></trkpt>
        <trkpt lat="28.821803" lon="105.935717"><ele>303.97336</ele><time>2026-03-27T18:31:38.000Z</time></trkpt>
        <trkpt lat="28.821813" lon="105.935767"><ele>304.0818</ele><time>2026-03-27T18:31:41.000Z</time></trkpt>
        <trkpt lat="28.821841" lon="105.935827"><ele>304.17316</ele><time>2026-03-27T18:31:46.000Z</time></trkpt>
        <trkpt lat="28.821875" lon="105.935867"><ele>304.6128</ele><time>2026-03-27T18:31:50.000Z</time></trkpt>
        <trkpt lat="28.821917" lon="105.935901"><ele>304.8777</ele><time>2026-03-27T18:31:55.000Z</time></trkpt>
        <trkpt lat="28.821959" lon="105.93593"><ele>306.04132</ele><time>2026-03-27T18:32:02.000Z</time></trkpt>
        <trkpt lat="28.822001" lon="105.935949"><ele>306.93643</ele><time>2026-03-27T18:32:08.000Z</time></trkpt>
        <trkpt lat="28.822044" lon="105.935978"><ele>308.44006</ele><time>2026-03-27T18:32:14.000Z</time></trkpt>
        <trkpt lat="28.822071" lon="105.936028"><ele>309.72647</ele><time>2026-03-27T18:32:20.000Z</time></trkpt>
        <trkpt lat="28.822089" lon="105.936084"><ele>311.02145</ele><time>2026-03-27T18:32:27.000Z</time></trkpt>
        <trkpt lat="28.822106" lon="105.93613"><ele>311.93478</ele><time>2026-03-27T18:32:33.000Z</time></trkpt>
        <trkpt lat="28.822124" lon="105.936184"><ele>312.28546</ele><time>2026-03-27T18:32:40.000Z</time></trkpt>
        <trkpt lat="28.822156" lon="105.936223"><ele>313.1966</ele><time>2026-03-27T18:32:46.000Z</time></trkpt>
        <trkpt lat="28.822184" lon="105.936265"><ele>313.69083</ele><time>2026-03-27T18:32:51.000Z</time></trkpt>
        <trkpt lat="28.822212" lon="105.936314"><ele>313.94647</ele><time>2026-03-27T18:32:56.000Z</time></trkpt>
        <trkpt lat="28.822237" lon="105.936362"><ele>314.4361</ele><time>2026-03-27T18:33:01.000Z</time></trkpt>
        <trkpt lat="28.822254" lon="105.936411"><ele>314.4396</ele><time>2026-03-27T18:33:06.000Z</time></trkpt>
        <trkpt lat="28.822268" lon="105.936461"><ele>314.52698</ele><time>2026-03-27T18:33:11.000Z</time></trkpt>
        <trkpt lat="28.822278" lon="105.936516"><ele>314.5681</ele><time>2026-03-27T18:33:16.000Z</time></trkpt>
        <trkpt lat="28.822292" lon="105.936573"><ele>314.38626</ele><time>2026-03-27T18:33:21.000Z</time></trkpt>
        <trkpt lat="28.822315" lon="105.936624"><ele>314.43005</ele><time>2026-03-27T18:33:26.000Z</time></trkpt>
        <trkpt lat="28.822353" lon="105.936667"><ele>314.5995</ele><time>2026-03-27T18:33:31.000Z</time></trkpt>
        <trkpt lat="28.822404" lon="105.936701"><ele>314.8209</ele><time>2026-03-27T18:33:36.000Z</time></trkpt>
        <trkpt lat="28.822449" lon="105.936728"><ele>315.38705</ele><time>2026-03-27T18:33:41.000Z</time></trkpt>
        <trkpt lat="28.822498" lon="105.93675"><ele>315.44586</ele><time>2026-03-27T18:33:46.000Z</time></trkpt>
        <trkpt lat="28.822545" lon="105.936769"><ele>315.48254</ele><time>2026-03-27T18:33:51.000Z</time></trkpt>
        <trkpt lat="28.822583" lon="105.936795"><ele>315.20822</ele><time>2026-03-27T18:33:55.000Z</time></trkpt>
        <trkpt lat="28.822624" lon="105.936834"><ele>314.7402</ele><time>2026-03-27T18:33:59.000Z</time></trkpt>
        <trkpt lat="28.822653" lon="105.936888"><ele>314.03967</ele><time>2026-03-27T18:34:04.000Z</time></trkpt>
        <trkpt lat="28.822672" lon="105.936935"><ele>313.9407</ele><time>2026-03-27T18:34:08.000Z</time></trkpt>
        <trkpt lat="28.822687" lon="105.936992"><ele>314.20578</ele><time>2026-03-27T18:34:13.000Z</time></trkpt>
        <trkpt lat="28.822687" lon="105.937047"><ele>315.06482</ele><time>2026-03-27T18:34:18.000Z</time></trkpt>
        <trkpt lat="28.822674" lon="105.937098"><ele>316.03488</ele><time>2026-03-27T18:34:23.000Z</time></trkpt>
        <trkpt lat="28.822652" lon="105.937156"><ele>316.96786</ele><time>2026-03-27T18:34:30.000Z</time></trkpt>
        <trkpt lat="28.822628" lon="105.937207"><ele>318.01065</ele><time>2026-03-27T18:34:37.000Z</time></trkpt>
        <trkpt lat="28.822598" lon="105.937251"><ele>318.86768</ele><time>2026-03-27T18:34:44.000Z</time></trkpt>
        <trkpt lat="28.822556" lon="105.937283"><ele>319.80484</ele><time>2026-03-27T18:34:51.000Z</time></trkpt>
        <trkpt lat="28.822519" lon="105.937317"><ele>321.24884</ele><time>2026-03-27T18:35:00.000Z</time></trkpt>
        <trkpt lat="28.822492" lon="105.937359"><ele>322.19385</ele><time>2026-03-27T18:35:24.000Z</time></trkpt>
        <trkpt lat="28.822453" lon="105.937383"><ele>322.9765</ele><time>2026-03-27T18:35:33.000Z</time></trkpt>
        <trkpt lat="28.822411" lon="105.93742"><ele>323.77173</ele><time>2026-03-27T18:35:40.000Z</time></trkpt>
        <trkpt lat="28.822375" lon="105.937453"><ele>324.4372</ele><time>2026-03-27T18:35:45.000Z</time></trkpt>
        <trkpt lat="28.82234" lon="105.937497"><ele>325.49478</ele><time>2026-03-27T18:35:51.000Z</time></trkpt>
        <trkpt lat="28.82232" lon="105.93755"><ele>325.88968</ele><time>2026-03-27T18:36:01.000Z</time></trkpt>
        <trkpt lat="28.822368" lon="105.937597"><ele>325.63568</ele><time>2026-03-27T18:36:20.000Z</time></trkpt>
        <trkpt lat="28.822404" lon="105.937618"><ele>325.46765</ele><time>2026-03-27T18:36:25.000Z</time></trkpt>
        <trkpt lat="28.822439" lon="105.937657"><ele>326.54596</ele><time>2026-03-27T18:36:31.000Z</time></trkpt>
        <trkpt lat="28.822457" lon="105.937717"><ele>328.0795</ele><time>2026-03-27T18:36:40.000Z</time></trkpt>
        <trkpt lat="28.822484" lon="105.937762"><ele>329.15118</ele><time>2026-03-27T18:36:47.000Z</time></trkpt>
        <trkpt lat="28.822517" lon="105.937812"><ele>330.39127</ele><time>2026-03-27T18:36:54.000Z</time></trkpt>
        <trkpt lat="28.822537" lon="105.937858"><ele>330.81665</ele><time>2026-03-27T18:36:59.000Z</time></trkpt>
        <trkpt lat="28.822559" lon="105.937911"><ele>331.22424</ele><time>2026-03-27T18:37:05.000Z</time></trkpt>
        <trkpt lat="28.822577" lon="105.937962"><ele>332.41608</ele><time>2026-03-27T18:37:11.000Z</time></trkpt>
        <trkpt lat="28.822593" lon="105.938014"><ele>332.69513</ele><time>2026-03-27T18:37:16.000Z</time></trkpt>
        <trkpt lat="28.822609" lon="105.938067"><ele>333.1774</ele><time>2026-03-27T18:37:21.000Z</time></trkpt>
        <trkpt lat="28.822607" lon="105.938132"><ele>333.89005</ele><time>2026-03-27T18:37:30.000Z</time></trkpt>
        <trkpt lat="28.822595" lon="105.938188"><ele>335.1889</ele><time>2026-03-27T18:37:38.000Z</time></trkpt>
        <trkpt lat="28.822612" lon="105.938236"><ele>335.1871</ele><time>2026-03-27T18:37:45.000Z</time></trkpt>
        <trkpt lat="28.822627" lon="105.938285"><ele>334.6985</ele><time>2026-03-27T18:37:50.000Z</time></trkpt>
        <trkpt lat="28.822638" lon="105.93834"><ele>334.30035</ele><time>2026-03-27T18:37:56.000Z</time></trkpt>
        <trkpt lat="28.822637" lon="105.938394"><ele>334.35898</ele><time>2026-03-27T18:38:01.000Z</time></trkpt>
        <trkpt lat="28.822644" lon="105.938454"><ele>334.2854</ele><time>2026-03-27T18:38:10.000Z</time></trkpt>
        <trkpt lat="28.822687" lon="105.938479"><ele>334.43246</ele><time>2026-03-27T18:38:18.000Z</time></trkpt>
        <trkpt lat="28.822734" lon="105.938488"><ele>334.32233</ele><time>2026-03-27T18:38:25.000Z</time></trkpt>
        <trkpt lat="28.82278" lon="105.938473"><ele>334.26657</ele><time>2026-03-27T18:38:31.000Z</time></trkpt>
        <trkpt lat="28.822826" lon="105.938461"><ele>335.1543</ele><time>2026-03-27T18:38:36.000Z</time></trkpt>
        <trkpt lat="28.822884" lon="105.938455"><ele>335.6339</ele><time>2026-03-27T18:38:42.000Z</time></trkpt>
        <trkpt lat="28.822931" lon="105.938447"><ele>335.71722</ele><time>2026-03-27T18:38:46.000Z</time></trkpt>
        <trkpt lat="28.822982" lon="105.938428"><ele>335.7374</ele><time>2026-03-27T18:38:51.000Z</time></trkpt>
        <trkpt lat="28.823028" lon="105.938427"><ele>335.75638</ele><time>2026-03-27T18:38:56.000Z</time></trkpt>
        <trkpt lat="28.823075" lon="105.938442"><ele>335.89008</ele><time>2026-03-27T18:39:03.000Z</time></trkpt>
        <trkpt lat="28.823107" lon="105.938477"><ele>335.8425</ele><time>2026-03-27T18:39:08.000Z</time></trkpt>
        <trkpt lat="28.823141" lon="105.938523"><ele>335.80386</ele><time>2026-03-27T18:39:13.000Z</time></trkpt>
        <trkpt lat="28.82318" lon="105.938571"><ele>335.64017</ele><time>2026-03-27T18:39:19.000Z</time></trkpt>
        <trkpt lat="28.823205" lon="105.93862"><ele>335.59656</ele><time>2026-03-27T18:39:24.000Z</time></trkpt>
        <trkpt lat="28.823213" lon="105.938668"><ele>335.60034</ele><time>2026-03-27T18:39:28.000Z</time></trkpt>
        <trkpt lat="28.823214" lon="105.938733"><ele>335.78506</ele><time>2026-03-27T18:39:34.000Z</time></trkpt>
        <trkpt lat="28.823221" lon="105.938782"><ele>335.87317</ele><time>2026-03-27T18:39:38.000Z</time></trkpt>
        <trkpt lat="28.823218" lon="105.93884"><ele>335.9701</ele><time>2026-03-27T18:39:43.000Z</time></trkpt>
        <trkpt lat="28.823195" lon="105.938892"><ele>336.02258</ele><time>2026-03-27T18:39:48.000Z</time></trkpt>
        <trkpt lat="28.823185" lon="105.93894"><ele>335.97415</ele><time>2026-03-27T18:39:52.000Z</time></trkpt>
        <trkpt lat="28.823228" lon="105.938976"><ele>336.04596</ele><time>2026-03-27T18:40:09.000Z</time></trkpt>
        <trkpt lat="28.823249" lon="105.939018"><ele>335.99698</ele><time>2026-03-27T18:40:18.000Z</time></trkpt>
        <trkpt lat="28.823257" lon="105.939078"><ele>336.54315</ele><time>2026-03-27T18:40:28.000Z</time></trkpt>
        <trkpt lat="28.823264" lon="105.939128"><ele>336.81018</ele><time>2026-03-27T18:40:34.000Z</time></trkpt>
        <trkpt lat="28.823293" lon="105.939178"><ele>336.9452</ele><time>2026-03-27T18:40:40.000Z</time></trkpt>
        <trkpt lat="28.823319" lon="105.939225"><ele>336.78586</ele><time>2026-03-27T18:40:44.000Z</time></trkpt>
        <trkpt lat="28.823342" lon="105.939279"><ele>336.72385</ele><time>2026-03-27T18:40:49.000Z</time></trkpt>
        <trkpt lat="28.823367" lon="105.939327"><ele>336.71008</ele><time>2026-03-27T18:40:54.000Z</time></trkpt>
        <trkpt lat="28.823365" lon="105.939383"><ele>337.05383</ele><time>2026-03-27T18:41:01.000Z</time></trkpt>
        <trkpt lat="28.823368" lon="105.939427"><ele>336.89386</ele><time>2026-03-27T18:41:05.000Z</time></trkpt>
        <trkpt lat="28.823379" lon="105.939476"><ele>336.91904</ele><time>2026-03-27T18:41:09.000Z</time></trkpt>
        <trkpt lat="28.823394" lon="105.939528"><ele>336.89908</ele><time>2026-03-27T18:41:13.000Z</time></trkpt>
        <trkpt lat="28.823397" lon="105.939584"><ele>336.97992</ele><time>2026-03-27T18:41:16.000Z</time></trkpt>
        <trkpt lat="28.823412" lon="105.939644"><ele>336.94617</ele><time>2026-03-27T18:41:20.000Z</time></trkpt>
        <trkpt lat="28.823435" lon="105.939695"><ele>336.91476</ele><time>2026-03-27T18:41:24.000Z</time></trkpt>
        <trkpt lat="28.823447" lon="105.939755"><ele>337.0246</ele><time>2026-03-27T18:41:34.000Z</time></trkpt>
        <trkpt lat="28.823417" lon="105.939781"><ele>337.5188</ele><time>2026-03-27T18:41:39.000Z</time></trkpt>
        <trkpt lat="28.823383" lon="105.939821"><ele>337.37845</ele><time>2026-03-27T18:41:44.000Z</time></trkpt>
        <trkpt lat="28.823362" lon="105.939876"><ele>338.09042</ele><time>2026-03-27T18:41:49.000Z</time></trkpt>
        <trkpt lat="28.823364" lon="105.939946"><ele>338.53668</ele><time>2026-03-27T18:41:58.000Z</time></trkpt>
        <trkpt lat="28.823379" lon="105.939998"><ele>338.2796</ele><time>2026-03-27T18:42:03.000Z</time></trkpt>
        <trkpt lat="28.823394" lon="105.940047"><ele>338.11993</ele><time>2026-03-27T18:42:07.000Z</time></trkpt>
        <trkpt lat="28.823364" lon="105.940105"><ele>336.62213</ele><time>2026-03-27T18:42:41.000Z</time></trkpt>
        <trkpt lat="28.823331" lon="105.940141"><ele>335.30762</ele><time>2026-03-27T18:43:23.000Z</time></trkpt>
        <trkpt lat="28.823315" lon="105.940183"><ele>334.54614</ele><time>2026-03-27T18:43:28.000Z</time></trkpt>
        <trkpt lat="28.823263" lon="105.940206"><ele>333.65457</ele><time>2026-03-27T18:43:33.000Z</time></trkpt>
        <trkpt lat="28.823208" lon="105.940213"><ele>333.2299</ele><time>2026-03-27T18:43:37.000Z</time></trkpt>
        <trkpt lat="28.823162" lon="105.940204"><ele>333.09354</ele><time>2026-03-27T18:43:40.000Z</time></trkpt>
        <trkpt lat="28.823111" lon="105.940178"><ele>332.67584</ele><time>2026-03-27T18:43:45.000Z</time></trkpt>
        <trkpt lat="28.823059" lon="105.940169"><ele>331.85873</ele><time>2026-03-27T18:43:50.000Z</time></trkpt>
        <trkpt lat="28.823005" lon="105.940169"><ele>331.79175</ele><time>2026-03-27T18:43:55.000Z</time></trkpt>
        <trkpt lat="28.822957" lon="105.940165"><ele>332.13586</ele><time>2026-03-27T18:44:00.000Z</time></trkpt>
        <trkpt lat="28.82291" lon="105.940166"><ele>332.3416</ele><time>2026-03-27T18:44:04.000Z</time></trkpt>
        <trkpt lat="28.82286" lon="105.940194"><ele>331.79852</ele><time>2026-03-27T18:44:12.000Z</time></trkpt>
        <trkpt lat="28.822838" lon="105.940241"><ele>331.7614</ele><time>2026-03-27T18:44:18.000Z</time></trkpt>
        <trkpt lat="28.822828" lon="105.940287"><ele>331.6961</ele><time>2026-03-27T18:44:22.000Z</time></trkpt>
        <trkpt lat="28.822794" lon="105.940335"><ele>332.39917</ele><time>2026-03-27T18:44:29.000Z</time></trkpt>
        <trkpt lat="28.822759" lon="105.94037"><ele>332.35876</ele><time>2026-03-27T18:44:34.000Z</time></trkpt>
        <trkpt lat="28.822714" lon="105.940404"><ele>332.42606</ele><time>2026-03-27T18:44:51.000Z</time></trkpt>
        <trkpt lat="28.822693" lon="105.940439"><ele>332.0114</ele><time>2026-03-27T18:44:55.000Z</time></trkpt>
        <trkpt lat="28.822682" lon="105.940498"><ele>331.8782</ele><time>2026-03-27T18:45:00.000Z</time></trkpt>
        <trkpt lat="28.822642" lon="105.940537"><ele>332.67636</ele><time>2026-03-27T18:45:09.000Z</time></trkpt>
        <trkpt lat="28.822596" lon="105.940545"><ele>333.40512</ele><time>2026-03-27T18:45:15.000Z</time></trkpt>
        <trkpt lat="28.822554" lon="105.940585"><ele>332.47824</ele><time>2026-03-27T18:45:29.000Z</time></trkpt>
        <trkpt lat="28.822507" lon="105.940594"><ele>330.47522</ele><time>2026-03-27T18:45:37.000Z</time></trkpt>
        <trkpt lat="28.822476" lon="105.940624"><ele>329.29358</ele><time>2026-03-27T18:45:41.000Z</time></trkpt>
        <trkpt lat="28.822455" lon="105.940683"><ele>327.64758</ele><time>2026-03-27T18:45:47.000Z</time></trkpt>
        <trkpt lat="28.822457" lon="105.940743"><ele>326.29996</ele><time>2026-03-27T18:45:52.000Z</time></trkpt>
        <trkpt lat="28.822421" lon="105.940767"><ele>325.40338</ele><time>2026-03-27T18:45:57.000Z</time></trkpt>
        <trkpt lat="28.822371" lon="105.940742"><ele>323.999</ele><time>2026-03-27T18:46:04.000Z</time></trkpt>
        <trkpt lat="28.822337" lon="105.940682"><ele>321.85947</ele><time>2026-03-27T18:46:13.000Z</time></trkpt>
        <trkpt lat="28.8223" lon="105.94071"><ele>320.9735</ele><time>2026-03-27T18:46:21.000Z</time></trkpt>
        <trkpt lat="28.8223" lon="105.94076"><ele>320.5795</ele><time>2026-03-27T18:46:26.000Z</time></trkpt>
        <trkpt lat="28.822283" lon="105.940814"><ele>319.62012</ele><time>2026-03-27T18:46:34.000Z</time></trkpt>
        <trkpt lat="28.822266" lon="105.940854"><ele>319.12244</ele><time>2026-03-27T18:46:37.000Z</time></trkpt>
        <trkpt lat="28.82226" lon="105.940902"><ele>318.91498</ele><time>2026-03-27T18:46:40.000Z</time></trkpt>
        <trkpt lat="28.822277" lon="105.940964"><ele>318.5243</ele><time>2026-03-27T18:46:44.000Z</time></trkpt>
        <trkpt lat="28.822304" lon="105.940997"><ele>318.471</ele><time>2026-03-27T18:46:46.000Z</time></trkpt>
        <trkpt lat="28.822349" lon="105.941033"><ele>318.3153</ele><time>2026-03-27T18:46:49.000Z</time></trkpt>
        <trkpt lat="28.82241" lon="105.941052"><ele>317.92383</ele><time>2026-03-27T18:46:53.000Z</time></trkpt>
        <trkpt lat="28.822477" lon="105.941045"><ele>317.1934</ele><time>2026-03-27T18:46:58.000Z</time></trkpt>
        <trkpt lat="28.822527" lon="105.941053"><ele>316.37512</ele><time>2026-03-27T18:47:02.000Z</time></trkpt>
        <trkpt lat="28.822584" lon="105.941065"><ele>315.73627</ele><time>2026-03-27T18:47:07.000Z</time></trkpt>
        <trkpt lat="28.822636" lon="105.941077"><ele>315.55243</ele><time>2026-03-27T18:47:11.000Z</time></trkpt>
        <trkpt lat="28.822688" lon="105.941087"><ele>315.54156</ele><time>2026-03-27T18:47:15.000Z</time></trkpt>
        <trkpt lat="28.822731" lon="105.94111"><ele>315.96835</ele><time>2026-03-27T18:47:19.000Z</time></trkpt>
        <trkpt lat="28.822771" lon="105.941158"><ele>317.1639</ele><time>2026-03-27T18:47:25.000Z</time></trkpt>
        <trkpt lat="28.822805" lon="105.941198"><ele>317.5198</ele><time>2026-03-27T18:47:31.000Z</time></trkpt>
        <trkpt lat="28.822838" lon="105.941225"><ele>317.44492</ele><time>2026-03-27T18:47:35.000Z</time></trkpt>
        <trkpt lat="28.822876" lon="105.941257"><ele>317.22037</ele><time>2026-03-27T18:47:40.000Z</time></trkpt>
        <trkpt lat="28.822911" lon="105.941289"><ele>316.70697</ele><time>2026-03-27T18:47:44.000Z</time></trkpt>
        <trkpt lat="28.822945" lon="105.94133"><ele>315.9951</ele><time>2026-03-27T18:47:48.000Z</time></trkpt>
        <trkpt lat="28.822966" lon="105.941399"><ele>314.9618</ele><time>2026-03-27T18:47:54.000Z</time></trkpt>
        <trkpt lat="28.822966" lon="105.94146"><ele>314.53348</ele><time>2026-03-27T18:47:58.000Z</time></trkpt>
        <trkpt lat="28.822945" lon="105.94152"><ele>313.91724</ele><time>2026-03-27T18:48:04.000Z</time></trkpt>
        <trkpt lat="28.822926" lon="105.941566"><ele>314.11765</ele><time>2026-03-27T18:48:08.000Z</time></trkpt>
        <trkpt lat="28.82291" lon="105.94162"><ele>314.04855</ele><time>2026-03-27T18:48:13.000Z</time></trkpt>
        <trkpt lat="28.822897" lon="105.941672"><ele>313.93295</ele><time>2026-03-27T18:48:18.000Z</time></trkpt>
        <trkpt lat="28.822888" lon="105.941732"><ele>314.0341</ele><time>2026-03-27T18:48:25.000Z</time></trkpt>
        <trkpt lat="28.822889" lon="105.941784"><ele>314.05893</ele><time>2026-03-27T18:48:30.000Z</time></trkpt>
        <trkpt lat="28.822898" lon="105.941833"><ele>313.6991</ele><time>2026-03-27T18:48:34.000Z</time></trkpt>
        <trkpt lat="28.822903" lon="105.941891"><ele>313.62903</ele><time>2026-03-27T18:48:38.000Z</time></trkpt>
        <trkpt lat="28.822894" lon="105.941946"><ele>314.2834</ele><time>2026-03-27T18:48:42.000Z</time></trkpt>
        <trkpt lat="28.822863" lon="105.941999"><ele>315.28357</ele><time>2026-03-27T18:48:48.000Z</time></trkpt>
        <trkpt lat="28.822826" lon="105.942037"><ele>315.78244</ele><time>2026-03-27T18:48:53.000Z</time></trkpt>
        <trkpt lat="28.822797" lon="105.942074"><ele>315.8209</ele><time>2026-03-27T18:48:57.000Z</time></trkpt>
        <trkpt lat="28.82277" lon="105.94212"><ele>315.92334</ele><time>2026-03-27T18:49:01.000Z</time></trkpt>
        <trkpt lat="28.822736" lon="105.942176"><ele>316.20682</ele><time>2026-03-27T18:49:06.000Z</time></trkpt>
        <trkpt lat="28.822722" lon="105.942225"><ele>316.94165</ele><time>2026-03-27T18:49:10.000Z</time></trkpt>
        <trkpt lat="28.82272" lon="105.942286"><ele>317.68848</ele><time>2026-03-27T18:49:15.000Z</time></trkpt>
        <trkpt lat="28.822737" lon="105.942335"><ele>318.03104</ele><time>2026-03-27T18:49:19.000Z</time></trkpt>
        <trkpt lat="28.822757" lon="105.942392"><ele>317.98816</ele><time>2026-03-27T18:49:24.000Z</time></trkpt>
        <trkpt lat="28.822768" lon="105.942451"><ele>318.28433</ele><time>2026-03-27T18:49:30.000Z</time></trkpt>
        <trkpt lat="28.822771" lon="105.942494"><ele>318.4041</ele><time>2026-03-27T18:49:33.000Z</time></trkpt>
        <trkpt lat="28.822774" lon="105.942553"><ele>318.27133</ele><time>2026-03-27T18:49:37.000Z</time></trkpt>
        <trkpt lat="28.822781" lon="105.942621"><ele>318.15836</ele><time>2026-03-27T18:49:42.000Z</time></trkpt>
        <trkpt lat="28.822787" lon="105.942683"><ele>318.98312</ele><time>2026-03-27T18:49:47.000Z</time></trkpt>
        <trkpt lat="28.8228" lon="105.942737"><ele>319.6901</ele><time>2026-03-27T18:49:52.000Z</time></trkpt>
        <trkpt lat="28.822805" lon="105.942795"><ele>320.1858</ele><time>2026-03-27T18:49:57.000Z</time></trkpt>
        <trkpt lat="28.822819" lon="105.942853"><ele>320.5928</ele><time>2026-03-27T18:50:02.000Z</time></trkpt>
        <trkpt lat="28.822837" lon="105.942908"><ele>321.0916</ele><time>2026-03-27T18:50:09.000Z</time></trkpt>
        <trkpt lat="28.822846" lon="105.942957"><ele>322.40323</ele><time>2026-03-27T18:50:16.000Z</time></trkpt>
        <trkpt lat="28.82289" lon="105.942957"><ele>323.84274</ele><time>2026-03-27T18:50:30.000Z</time></trkpt>
        <trkpt lat="28.822935" lon="105.942928"><ele>325.38263</ele><time>2026-03-27T18:50:38.000Z</time></trkpt>
        <trkpt lat="28.822944" lon="105.942984"><ele>328.26932</ele><time>2026-03-27T18:51:01.000Z</time></trkpt>
        <trkpt lat="28.822936" lon="105.943036"><ele>329.52325</ele><time>2026-03-27T18:51:14.000Z</time></trkpt>
        <trkpt lat="28.822976" lon="105.943016"><ele>330.95715</ele><time>2026-03-27T18:51:25.000Z</time></trkpt>
        <trkpt lat="28.823" lon="105.943058"><ele>334.9603</ele><time>2026-03-27T18:51:58.000Z</time></trkpt>
        <trkpt lat="28.822978" lon="105.943105"><ele>337.42026</ele><time>2026-03-27T18:52:20.000Z</time></trkpt>
        <trkpt lat="28.823012" lon="105.943138"><ele>341.27768</ele><time>2026-03-27T18:52:36.000Z</time></trkpt>
        <trkpt lat="28.823022" lon="105.9432"><ele>341.73715</ele><time>2026-03-27T18:52:54.000Z</time></trkpt>
        <trkpt lat="28.823019" lon="105.943249"><ele>341.71387</ele><time>2026-03-27T18:52:59.000Z</time></trkpt>
        <trkpt lat="28.823043" lon="105.943298"><ele>342.14786</ele><time>2026-03-27T18:53:06.000Z</time></trkpt>
        <trkpt lat="28.823057" lon="105.943354"><ele>343.60242</ele><time>2026-03-27T18:53:13.000Z</time></trkpt>
        <trkpt lat="28.823049" lon="105.943409"><ele>343.6924</ele><time>2026-03-27T18:53:23.000Z</time></trkpt>
        <trkpt lat="28.82308" lon="105.943433"><ele>344.6199</ele><time>2026-03-27T18:53:30.000Z</time></trkpt>
        <trkpt lat="28.823074" lon="105.943478"><ele>345.4468</ele><time>2026-03-27T18:53:38.000Z</time></trkpt>
        <trkpt lat="28.823071" lon="105.943533"><ele>347.0164</ele><time>2026-03-27T18:54:15.000Z</time></trkpt>
        <trkpt lat="28.823064" lon="105.943581"><ele>349.099</ele><time>2026-03-27T18:54:28.000Z</time></trkpt>
        <trkpt lat="28.823089" lon="105.943619"><ele>349.37726</ele><time>2026-03-27T18:54:34.000Z</time></trkpt>
        <trkpt lat="28.823137" lon="105.943619"><ele>349.77103</ele><time>2026-03-27T18:54:41.000Z</time></trkpt>
        <trkpt lat="28.823153" lon="105.943663"><ele>351.31085</ele><time>2026-03-27T18:54:58.000Z</time></trkpt>
        <trkpt lat="28.823115" lon="105.943689"><ele>351.98117</ele><time>2026-03-27T18:55:04.000Z</time></trkpt>
        <trkpt lat="28.823143" lon="105.943738"><ele>354.8714</ele><time>2026-03-27T18:55:31.000Z</time></trkpt>
        <trkpt lat="28.823151" lon="105.943789"><ele>356.18912</ele><time>2026-03-27T18:55:46.000Z</time></trkpt>
        <trkpt lat="28.823188" lon="105.943826"><ele>360.96997</ele><time>2026-03-27T18:56:29.000Z</time></trkpt>
        <trkpt lat="28.823232" lon="105.943806"><ele>364.30835</ele><time>2026-03-27T18:56:57.000Z</time></trkpt>
        <trkpt lat="28.823207" lon="105.943788"><ele>364.56516</ele><time>2026-03-27T18:57:00.000Z</time></trkpt>
        <trkpt lat="28.823152" lon="105.943783"><ele>364.61975</ele><time>2026-03-27T18:57:08.000Z</time></trkpt>
        <trkpt lat="28.823161" lon="105.943817"><ele>365.16272</ele><time>2026-03-27T18:57:13.000Z</time></trkpt>
        <trkpt lat="28.823222" lon="105.94385"><ele>366.3834</ele><time>2026-03-27T18:57:20.000Z</time></trkpt>
        <trkpt lat="28.823281" lon="105.943869"><ele>368.00967</ele><time>2026-03-27T18:57:42.000Z</time></trkpt>
        <trkpt lat="28.823333" lon="105.943875"><ele>369.19476</ele><time>2026-03-27T18:57:59.000Z</time></trkpt>
        <trkpt lat="28.823356" lon="105.94393"><ele>369.56024</ele><time>2026-03-27T18:58:23.000Z</time></trkpt>
        <trkpt lat="28.823355" lon="105.94399"><ele>369.55414</ele><time>2026-03-27T18:59:05.000Z</time></trkpt>
        <trkpt lat="28.823396" lon="105.944017"><ele>371.21066</ele><time>2026-03-27T18:59:26.000Z</time></trkpt>
        <trkpt lat="28.823369" lon="105.943983"><ele>371.4344</ele><time>2026-03-27T18:59:35.000Z</time></trkpt>
        <trkpt lat="28.823413" lon="105.943961"><ele>372.1324</ele><time>2026-03-27T19:00:01.000Z</time></trkpt>
        <trkpt lat="28.823442" lon="105.943921"><ele>373.68738</ele><time>2026-03-27T19:00:33.000Z</time></trkpt>
        <trkpt lat="28.823484" lon="105.943906"><ele>376.16693</ele><time>2026-03-27T19:00:51.000Z</time></trkpt>
        <trkpt lat="28.823531" lon="105.943915"><ele>377.77087</ele><time>2026-03-27T19:01:01.000Z</time></trkpt>
        <trkpt lat="28.823577" lon="105.943904"><ele>378.74915</ele><time>2026-03-27T19:01:11.000Z</time></trkpt>
        <trkpt lat="28.823618" lon="105.94393"><ele>378.60574</ele><time>2026-03-27T19:01:41.000Z</time></trkpt>
        <trkpt lat="28.823658" lon="105.943958"><ele>379.9835</ele><time>2026-03-27T19:02:06.000Z</time></trkpt>
        <trkpt lat="28.823701" lon="105.943984"><ele>382.5064</ele><time>2026-03-27T19:02:30.000Z</time></trkpt>
        <trkpt lat="28.823693" lon="105.944035"><ele>383.3591</ele><time>2026-03-27T19:02:42.000Z</time></trkpt>
        <trkpt lat="28.823714" lon="105.944076"><ele>383.70856</ele><time>2026-03-27T19:02:48.000Z</time></trkpt>
        <trkpt lat="28.823762" lon="105.944105"><ele>384.59412</ele><time>2026-03-27T19:02:59.000Z</time></trkpt>
        <trkpt lat="28.823789" lon="105.944148"><ele>385.1026</ele><time>2026-03-27T19:03:56.000Z</time></trkpt>
        <trkpt lat="28.823836" lon="105.944147"><ele>386.78137</ele><time>2026-03-27T19:04:18.000Z</time></trkpt>
        <trkpt lat="28.823876" lon="105.944177"><ele>387.4863</ele><time>2026-03-27T19:04:25.000Z</time></trkpt>
        <trkpt lat="28.823896" lon="105.944226"><ele>387.39355</ele><time>2026-03-27T19:04:31.000Z</time></trkpt>
        <trkpt lat="28.823933" lon="105.944259"><ele>389.46194</ele><time>2026-03-27T19:04:41.000Z</time></trkpt>
        <trkpt lat="28.823977" lon="105.944258"><ele>390.15106</ele><time>2026-03-27T19:04:46.000Z</time></trkpt>
        <trkpt lat="28.823954" lon="105.944291"><ele>391.04495</ele><time>2026-03-27T19:05:12.000Z</time></trkpt>
        <trkpt lat="28.823958" lon="105.944337"><ele>392.0279</ele><time>2026-03-27T19:05:18.000Z</time></trkpt>
        <trkpt lat="28.824003" lon="105.944394"><ele>392.56088</ele><time>2026-03-27T19:05:27.000Z</time></trkpt>
        <trkpt lat="28.824012" lon="105.944447"><ele>392.49783</ele><time>2026-03-27T19:05:35.000Z</time></trkpt>
        <trkpt lat="28.823999" lon="105.944497"><ele>392.13165</ele><time>2026-03-27T19:05:42.000Z</time></trkpt>
        <trkpt lat="28.823983" lon="105.94455"><ele>392.53494</ele><time>2026-03-27T19:05:48.000Z</time></trkpt>
        <trkpt lat="28.823968" lon="105.944607"><ele>392.50244</ele><time>2026-03-27T19:05:54.000Z</time></trkpt>
        <trkpt lat="28.823967" lon="105.944665"><ele>391.4956</ele><time>2026-03-27T19:06:00.000Z</time></trkpt>
        <trkpt lat="28.823964" lon="105.944722"><ele>391.00168</ele><time>2026-03-27T19:06:05.000Z</time></trkpt>
        <trkpt lat="28.823974" lon="105.944774"><ele>391.0317</ele><time>2026-03-27T19:06:09.000Z</time></trkpt>
        <trkpt lat="28.823981" lon="105.944831"><ele>391.00702</ele><time>2026-03-27T19:06:14.000Z</time></trkpt>
        <trkpt lat="28.823971" lon="105.944884"><ele>391.1494</ele><time>2026-03-27T19:06:19.000Z</time></trkpt>
        <trkpt lat="28.823944" lon="105.944929"><ele>391.3761</ele><time>2026-03-27T19:06:24.000Z</time></trkpt>
        <trkpt lat="28.82391" lon="105.944972"><ele>391.52426</ele><time>2026-03-27T19:06:29.000Z</time></trkpt>
        <trkpt lat="28.82388" lon="105.945019"><ele>391.66513</ele><time>2026-03-27T19:06:34.000Z</time></trkpt>
        <trkpt lat="28.823844" lon="105.94506"><ele>391.88824</ele><time>2026-03-27T19:06:39.000Z</time></trkpt>
        <trkpt lat="28.823815" lon="105.945108"><ele>394.41974</ele><time>2026-03-27T19:06:45.000Z</time></trkpt>
        <trkpt lat="28.82384" lon="105.945155"><ele>396.70856</ele><time>2026-03-27T19:06:54.000Z</time></trkpt>
        <trkpt lat="28.82389" lon="105.945174"><ele>397.36945</ele><time>2026-03-27T19:07:00.000Z</time></trkpt>
        <trkpt lat="28.823857" lon="105.945186"><ele>398.76367</ele><time>2026-03-27T19:07:14.000Z</time></trkpt>
        <trkpt lat="28.823816" lon="105.945209"><ele>399.5612</ele><time>2026-03-27T19:07:21.000Z</time></trkpt>
        <trkpt lat="28.823782" lon="105.945248"><ele>400.4826</ele><time>2026-03-27T19:07:28.000Z</time></trkpt>
        <trkpt lat="28.823794" lon="105.9453"><ele>401.3665</ele><time>2026-03-27T19:07:40.000Z</time></trkpt>
        <trkpt lat="28.823834" lon="105.945342"><ele>402.35684</ele><time>2026-03-27T19:07:54.000Z</time></trkpt>
        <trkpt lat="28.823883" lon="105.945366"><ele>404.32785</ele><time>2026-03-27T19:08:21.000Z</time></trkpt>
        <trkpt lat="28.823914" lon="105.945404"><ele>406.45496</ele><time>2026-03-27T19:08:33.000Z</time></trkpt>
        <trkpt lat="28.8239" lon="105.945463"><ele>407.0264</ele><time>2026-03-27T19:08:42.000Z</time></trkpt>
        <trkpt lat="28.823888" lon="105.945517"><ele>407.91623</ele><time>2026-03-27T19:08:49.000Z</time></trkpt>
        <trkpt lat="28.823874" lon="105.945577"><ele>409.2656</ele><time>2026-03-27T19:09:00.000Z</time></trkpt>
      </trkseg>
      <trkseg>
        <trkpt lat="28.824164" lon="105.946168"><ele>424.2196</ele><time>2026-03-27T19:14:32.000Z</time></trkpt>
        <trkpt lat="28.824149" lon="105.946202"><ele>424.0424</ele><time>2026-03-27T19:14:40.000Z</time></trkpt>
        <trkpt lat="28.824116" lon="105.946267"><ele>424.02908</ele><time>2026-03-27T19:14:47.000Z</time></trkpt>
        <trkpt lat="28.82408" lon="105.946313"><ele>424.40814</ele><time>2026-03-27T19:14:55.000Z</time></trkpt>
        <trkpt lat="28.824063" lon="105.946367"><ele>424.36444</ele><time>2026-03-27T19:15:02.000Z</time></trkpt>
        <trkpt lat="28.824065" lon="105.946421"><ele>424.08917</ele><time>2026-03-27T19:15:08.000Z</time></trkpt>
        <trkpt lat="28.824074" lon="105.946463"><ele>423.967</ele><time>2026-03-27T19:15:11.000Z</time></trkpt>
        <trkpt lat="28.824085" lon="105.946518"><ele>423.9165</ele><time>2026-03-27T19:15:15.000Z</time></trkpt>
        <trkpt lat="28.824101" lon="105.946573"><ele>423.98776</ele><time>2026-03-27T19:15:19.000Z</time></trkpt>
        <trkpt lat="28.82412" lon="105.94663"><ele>424.18866</ele><time>2026-03-27T19:15:24.000Z</time></trkpt>
        <trkpt lat="28.824149" lon="105.946677"><ele>424.22632</ele><time>2026-03-27T19:15:29.000Z</time></trkpt>
        <trkpt lat="28.824182" lon="105.946729"><ele>424.29395</ele><time>2026-03-27T19:15:36.000Z</time></trkpt>
        <trkpt lat="28.8242" lon="105.946773"><ele>424.20435</ele><time>2026-03-27T19:15:41.000Z</time></trkpt>
        <trkpt lat="28.82422" lon="105.946823"><ele>423.47882</ele><time>2026-03-27T19:15:46.000Z</time></trkpt>
        <trkpt lat="28.824238" lon="105.946878"><ele>422.7107</ele><time>2026-03-27T19:15:51.000Z</time></trkpt>
        <trkpt lat="28.824252" lon="105.946938"><ele>422.21396</ele><time>2026-03-27T19:15:55.000Z</time></trkpt>
        <trkpt lat="28.824267" lon="105.946991"><ele>421.7022</ele><time>2026-03-27T19:15:58.000Z</time></trkpt>
        <trkpt lat="28.82428" lon="105.947048"><ele>421.28293</ele><time>2026-03-27T19:16:01.000Z</time></trkpt>
        <trkpt lat="28.82429" lon="105.947119"><ele>420.71564</ele><time>2026-03-27T19:16:06.000Z</time></trkpt>
        <trkpt lat="28.824303" lon="105.947178"><ele>420.79843</ele><time>2026-03-27T19:16:11.000Z</time></trkpt>
        <trkpt lat="28.824313" lon="105.947236"><ele>420.73767</ele><time>2026-03-27T19:16:16.000Z</time></trkpt>
        <trkpt lat="28.824331" lon="105.947292"><ele>420.59625</ele><time>2026-03-27T19:16:21.000Z</time></trkpt>
        <trkpt lat="28.824357" lon="105.947341"><ele>420.209</ele><time>2026-03-27T19:16:25.000Z</time></trkpt>
        <trkpt lat="28.824391" lon="105.9474"><ele>420.45627</ele><time>2026-03-27T19:16:36.000Z</time></trkpt>
        <trkpt lat="28.824406" lon="105.947436"><ele>420.2234</ele><time>2026-03-27T19:16:39.000Z</time></trkpt>
        <trkpt lat="28.824427" lon="105.947494"><ele>420.36673</ele><time>2026-03-27T19:16:43.000Z</time></trkpt>
        <trkpt lat="28.824447" lon="105.947558"><ele>420.35388</ele><time>2026-03-27T19:16:48.000Z</time></trkpt>
        <trkpt lat="28.824452" lon="105.94762"><ele>420.12607</ele><time>2026-03-27T19:17:01.000Z</time></trkpt>
        <trkpt lat="28.824438" lon="105.947669"><ele>421.17126</ele><time>2026-03-27T19:17:32.000Z</time></trkpt>
        <trkpt lat="28.824424" lon="105.947713"><ele>421.75006</ele><time>2026-03-27T19:17:37.000Z</time></trkpt>
        <trkpt lat="28.82441" lon="105.94777"><ele>422.40445</ele><time>2026-03-27T19:17:42.000Z</time></trkpt>
        <trkpt lat="28.824397" lon="105.94783"><ele>422.77643</ele><time>2026-03-27T19:17:48.000Z</time></trkpt>
        <trkpt lat="28.824386" lon="105.947888"><ele>423.2062</ele><time>2026-03-27T19:17:53.000Z</time></trkpt>
        <trkpt lat="28.824378" lon="105.947941"><ele>423.40036</ele><time>2026-03-27T19:17:57.000Z</time></trkpt>
        <trkpt lat="28.824368" lon="105.947999"><ele>423.50446</ele><time>2026-03-27T19:18:01.000Z</time></trkpt>
        <trkpt lat="28.824352" lon="105.94806"><ele>423.5453</ele><time>2026-03-27T19:18:06.000Z</time></trkpt>
        <trkpt lat="28.82434" lon="105.94811"><ele>423.66467</ele><time>2026-03-27T19:18:10.000Z</time></trkpt>
        <trkpt lat="28.82433" lon="105.94817"><ele>423.70285</ele><time>2026-03-27T19:18:16.000Z</time></trkpt>
        <trkpt lat="28.824328" lon="105.948234"><ele>423.59647</ele><time>2026-03-27T19:18:33.000Z</time></trkpt>
        <trkpt lat="28.824338" lon="105.948276"><ele>423.46124</ele><time>2026-03-27T19:18:39.000Z</time></trkpt>
        <trkpt lat="28.824347" lon="105.948332"><ele>423.2653</ele><time>2026-03-27T19:18:44.000Z</time></trkpt>
        <trkpt lat="28.824368" lon="105.948389"><ele>423.08368</ele><time>2026-03-27T19:18:48.000Z</time></trkpt>
        <trkpt lat="28.824388" lon="105.948447"><ele>423.16098</ele><time>2026-03-27T19:18:52.000Z</time></trkpt>
        <trkpt lat="28.824423" lon="105.948506"><ele>422.938</ele><time>2026-03-27T19:18:58.000Z</time></trkpt>
        <trkpt lat="28.824449" lon="105.948553"><ele>423.59085</ele><time>2026-03-27T19:19:03.000Z</time></trkpt>
        <trkpt lat="28.824468" lon="105.948597"><ele>424.0139</ele><time>2026-03-27T19:19:07.000Z</time></trkpt>
        <trkpt lat="28.824482" lon="105.948658"><ele>424.3823</ele><time>2026-03-27T19:19:12.000Z</time></trkpt>
        <trkpt lat="28.824482" lon="105.948715"><ele>424.46042</ele><time>2026-03-27T19:19:17.000Z</time></trkpt>
        <trkpt lat="28.824466" lon="105.94877"><ele>424.66202</ele><time>2026-03-27T19:19:21.000Z</time></trkpt>
        <trkpt lat="28.824427" lon="105.948817"><ele>424.92654</ele><time>2026-03-27T19:19:26.000Z</time></trkpt>
        <trkpt lat="28.824384" lon="105.948838"><ele>424.91547</ele><time>2026-03-27T19:19:30.000Z</time></trkpt>
        <trkpt lat="28.82432" lon="105.948845"><ele>425.60056</ele><time>2026-03-27T19:20:02.000Z</time></trkpt>
        <trkpt lat="28.824293" lon="105.94882"><ele>426.09207</ele><time>2026-03-27T19:20:07.000Z</time></trkpt>
        <trkpt lat="28.824244" lon="105.948802"><ele>426.72775</ele><time>2026-03-27T19:20:11.000Z</time></trkpt>
        <trkpt lat="28.824179" lon="105.948781"><ele>427.56775</ele><time>2026-03-27T19:20:17.000Z</time></trkpt>
        <trkpt lat="28.824134" lon="105.948737"><ele>428.29007</ele><time>2026-03-27T19:20:23.000Z</time></trkpt>
        <trkpt lat="28.824093" lon="105.948703"><ele>428.81445</ele><time>2026-03-27T19:20:29.000Z</time></trkpt>
        <trkpt lat="28.824047" lon="105.948676"><ele>429.40222</ele><time>2026-03-27T19:20:35.000Z</time></trkpt>
        <trkpt lat="28.824004" lon="105.948688"><ele>429.9237</ele><time>2026-03-27T19:20:40.000Z</time></trkpt>
        <trkpt lat="28.823956" lon="105.948713"><ele>430.09967</ele><time>2026-03-27T19:20:45.000Z</time></trkpt>
        <trkpt lat="28.8239" lon="105.948722"><ele>430.21954</ele><time>2026-03-27T19:20:51.000Z</time></trkpt>
        <trkpt lat="28.823867" lon="105.948678"><ele>430.50223</ele><time>2026-03-27T19:20:59.000Z</time></trkpt>
        <trkpt lat="28.823837" lon="105.948643"><ele>430.59268</ele><time>2026-03-27T19:21:04.000Z</time></trkpt>
        <trkpt lat="28.823802" lon="105.9486"><ele>430.6279</ele><time>2026-03-27T19:21:09.000Z</time></trkpt>
        <trkpt lat="28.82377" lon="105.948558"><ele>430.82162</ele><time>2026-03-27T19:21:14.000Z</time></trkpt>
        <trkpt lat="28.823742" lon="105.948505"><ele>431.43716</ele><time>2026-03-27T19:21:20.000Z</time></trkpt>
        <trkpt lat="28.823708" lon="105.94846"><ele>432.04175</ele><time>2026-03-27T19:21:29.000Z</time></trkpt>
        <trkpt lat="28.823683" lon="105.948421"><ele>432.07504</ele><time>2026-03-27T19:21:34.000Z</time></trkpt>
        <trkpt lat="28.823657" lon="105.948364"><ele>431.9385</ele><time>2026-03-27T19:21:39.000Z</time></trkpt>
        <trkpt lat="28.823631" lon="105.948301"><ele>432.01062</ele><time>2026-03-27T19:21:46.000Z</time></trkpt>
        <trkpt lat="28.823595" lon="105.948263"><ele>432.61777</ele><time>2026-03-27T19:21:52.000Z</time></trkpt>
        <trkpt lat="28.823562" lon="105.948222"><ele>433.16147</ele><time>2026-03-27T19:21:57.000Z</time></trkpt>
        <trkpt lat="28.823532" lon="105.948175"><ele>433.49304</ele><time>2026-03-27T19:22:02.000Z</time></trkpt>
        <trkpt lat="28.823501" lon="105.948129"><ele>433.45</ele><time>2026-03-27T19:22:07.000Z</time></trkpt>
        <trkpt lat="28.823457" lon="105.948104"><ele>433.0385</ele><time>2026-03-27T19:22:11.000Z</time></trkpt>
        <trkpt lat="28.823403" lon="105.948084"><ele>432.7016</ele><time>2026-03-27T19:22:16.000Z</time></trkpt>
        <trkpt lat="28.823351" lon="105.948094"><ele>432.48663</ele><time>2026-03-27T19:22:23.000Z</time></trkpt>
        <trkpt lat="28.823303" lon="105.948109"><ele>432.3123</ele><time>2026-03-27T19:22:30.000Z</time></trkpt>
        <trkpt lat="28.823251" lon="105.948117"><ele>432.23904</ele><time>2026-03-27T19:22:36.000Z</time></trkpt>
        <trkpt lat="28.823197" lon="105.948131"><ele>432.39404</ele><time>2026-03-27T19:22:48.000Z</time></trkpt>
        <trkpt lat="28.823151" lon="105.948132"><ele>432.54138</ele><time>2026-03-27T19:22:57.000Z</time></trkpt>
        <trkpt lat="28.823109" lon="105.948124"><ele>432.67178</ele><time>2026-03-27T19:23:02.000Z</time></trkpt>
        <trkpt lat="28.823061" lon="105.94812"><ele>432.9954</ele><time>2026-03-27T19:23:07.000Z</time></trkpt>
        <trkpt lat="28.823007" lon="105.948132"><ele>433.12012</ele><time>2026-03-27T19:23:12.000Z</time></trkpt>
        <trkpt lat="28.822961" lon="105.948144"><ele>433.39038</ele><time>2026-03-27T19:23:16.000Z</time></trkpt>
        <trkpt lat="28.822909" lon="105.948149"><ele>433.60507</ele><time>2026-03-27T19:23:21.000Z</time></trkpt>
        <trkpt lat="28.822859" lon="105.94815"><ele>433.90982</ele><time>2026-03-27T19:23:26.000Z</time></trkpt>
        <trkpt lat="28.822827" lon="105.948186"><ele>434.39212</ele><time>2026-03-27T19:23:33.000Z</time></trkpt>
        <trkpt lat="28.822817" lon="105.94824"><ele>434.69907</ele><time>2026-03-27T19:23:39.000Z</time></trkpt>
        <trkpt lat="28.822811" lon="105.948298"><ele>435.2775</ele><time>2026-03-27T19:23:45.000Z</time></trkpt>
        <trkpt lat="28.822802" lon="105.948351"><ele>435.83682</ele><time>2026-03-27T19:23:50.000Z</time></trkpt>
        <trkpt lat="28.8228" lon="105.948407"><ele>437.0432</ele><time>2026-03-27T19:23:56.000Z</time></trkpt>
        <trkpt lat="28.822844" lon="105.948436"><ele>438.81436</ele><time>2026-03-27T19:24:11.000Z</time></trkpt>
        <trkpt lat="28.822891" lon="105.948454"><ele>440.52454</ele><time>2026-03-27T19:24:42.000Z</time></trkpt>
        <trkpt lat="28.822915" lon="105.948499"><ele>441.2419</ele><time>2026-03-27T19:25:02.000Z</time></trkpt>
        <trkpt lat="28.822951" lon="105.94854"><ele>443.69952</ele><time>2026-03-27T19:25:15.000Z</time></trkpt>
        <trkpt lat="28.822974" lon="105.948587"><ele>443.99374</ele><time>2026-03-27T19:25:51.000Z</time></trkpt>
        <trkpt lat="28.822942" lon="105.948632"><ele>445.34274</ele><time>2026-03-27T19:26:17.000Z</time></trkpt>
        <trkpt lat="28.822975" lon="105.948591"><ele>443.59467</ele><time>2026-03-27T19:26:51.000Z</time></trkpt>
        <trkpt lat="28.822969" lon="105.94854"><ele>441.36603</ele><time>2026-03-27T19:27:02.000Z</time></trkpt>
        <trkpt lat="28.822928" lon="105.948516"><ele>440.03976</ele><time>2026-03-27T19:27:09.000Z</time></trkpt>
        <trkpt lat="28.822946" lon="105.948472"><ele>439.65414</ele><time>2026-03-27T19:27:21.000Z</time></trkpt>
        <trkpt lat="28.822995" lon="105.948471"><ele>440.17017</ele><time>2026-03-27T19:27:27.000Z</time></trkpt>
        <trkpt lat="28.82305" lon="105.948474"><ele>440.4808</ele><time>2026-03-27T19:27:32.000Z</time></trkpt>
        <trkpt lat="28.823106" lon="105.948472"><ele>440.6137</ele><time>2026-03-27T19:27:37.000Z</time></trkpt>
        <trkpt lat="28.823154" lon="105.948472"><ele>440.75708</ele><time>2026-03-27T19:27:41.000Z</time></trkpt>
        <trkpt lat="28.823212" lon="105.94848"><ele>441.0317</ele><time>2026-03-27T19:27:46.000Z</time></trkpt>
        <trkpt lat="28.823255" lon="105.948516"><ele>441.2587</ele><time>2026-03-27T19:27:51.000Z</time></trkpt>
        <trkpt lat="28.823283" lon="105.948559"><ele>441.44275</ele><time>2026-03-27T19:27:55.000Z</time></trkpt>
        <trkpt lat="28.823298" lon="105.948621"><ele>441.42673</ele><time>2026-03-27T19:28:00.000Z</time></trkpt>
        <trkpt lat="28.823302" lon="105.948679"><ele>441.3858</ele><time>2026-03-27T19:28:05.000Z</time></trkpt>
        <trkpt lat="28.823303" lon="105.948738"><ele>441.42703</ele><time>2026-03-27T19:28:10.000Z</time></trkpt>
        <trkpt lat="28.823298" lon="105.948793"><ele>441.74316</ele><time>2026-03-27T19:28:15.000Z</time></trkpt>
        <trkpt lat="28.823316" lon="105.948845"><ele>442.8762</ele><time>2026-03-27T19:28:28.000Z</time></trkpt>
        <trkpt lat="28.823346" lon="105.948881"><ele>443.83255</ele><time>2026-03-27T19:28:35.000Z</time></trkpt>
        <trkpt lat="28.823379" lon="105.948921"><ele>444.7576</ele><time>2026-03-27T19:28:42.000Z</time></trkpt>
        <trkpt lat="28.823404" lon="105.948966"><ele>445.58658</ele><time>2026-03-27T19:28:50.000Z</time></trkpt>
        <trkpt lat="28.823436" lon="105.949009"><ele>446.64206</ele><time>2026-03-27T19:28:58.000Z</time></trkpt>
        <trkpt lat="28.823473" lon="105.949045"><ele>448.3766</ele><time>2026-03-27T19:29:13.000Z</time></trkpt>
        <trkpt lat="28.823513" lon="105.949073"><ele>449.46487</ele><time>2026-03-27T19:29:23.000Z</time></trkpt>
        <trkpt lat="28.823562" lon="105.949087"><ele>450.3482</ele><time>2026-03-27T19:29:32.000Z</time></trkpt>
        <trkpt lat="28.823614" lon="105.949086"><ele>450.79614</ele><time>2026-03-27T19:29:43.000Z</time></trkpt>
        <trkpt lat="28.82366" lon="105.949107"><ele>451.88068</ele><time>2026-03-27T19:30:01.000Z</time></trkpt>
        <trkpt lat="28.823693" lon="105.949128"><ele>452.0476</ele><time>2026-03-27T19:30:07.000Z</time></trkpt>
        <trkpt lat="28.823742" lon="105.949159"><ele>452.0661</ele><time>2026-03-27T19:30:33.000Z</time></trkpt>
        <trkpt lat="28.823764" lon="105.949206"><ele>453.0369</ele><time>2026-03-27T19:31:04.000Z</time></trkpt>
        <trkpt lat="28.823797" lon="105.949239"><ele>454.42932</ele><time>2026-03-27T19:31:14.000Z</time></trkpt>
        <trkpt lat="28.823828" lon="105.949286"><ele>455.18994</ele><time>2026-03-27T19:31:24.000Z</time></trkpt>
        <trkpt lat="28.823848" lon="105.949335"><ele>455.94824</ele><time>2026-03-27T19:31:30.000Z</time></trkpt>
        <trkpt lat="28.823866" lon="105.94939"><ele>457.18875</ele><time>2026-03-27T19:31:43.000Z</time></trkpt>
        <trkpt lat="28.823883" lon="105.949443"><ele>457.626</ele><time>2026-03-27T19:31:55.000Z</time></trkpt>
        <trkpt lat="28.823886" lon="105.949491"><ele>458.15585</ele><time>2026-03-27T19:32:00.000Z</time></trkpt>
        <trkpt lat="28.823873" lon="105.949551"><ele>458.92618</ele><time>2026-03-27T19:32:08.000Z</time></trkpt>
        <trkpt lat="28.823862" lon="105.949607"><ele>457.2481</ele><time>2026-03-27T19:32:39.000Z</time></trkpt>
        <trkpt lat="28.823893" lon="105.949641"><ele>458.71426</ele><time>2026-03-27T19:32:52.000Z</time></trkpt>
        <trkpt lat="28.823932" lon="105.949673"><ele>458.85214</ele><time>2026-03-27T19:33:00.000Z</time></trkpt>
        <trkpt lat="28.823977" lon="105.9497"><ele>459.32315</ele><time>2026-03-27T19:33:17.000Z</time></trkpt>
        <trkpt lat="28.824019" lon="105.949707"><ele>459.84402</ele><time>2026-03-27T19:33:26.000Z</time></trkpt>
        <trkpt lat="28.824068" lon="105.949727"><ele>459.3644</ele><time>2026-03-27T19:33:48.000Z</time></trkpt>
        <trkpt lat="28.824099" lon="105.949757"><ele>460.01562</ele><time>2026-03-27T19:33:54.000Z</time></trkpt>
        <trkpt lat="28.824155" lon="105.949759"><ele>460.19305</ele><time>2026-03-27T19:34:01.000Z</time></trkpt>
        <trkpt lat="28.824194" lon="105.949793"><ele>461.13174</ele><time>2026-03-27T19:34:12.000Z</time></trkpt>
        <trkpt lat="28.82423" lon="105.949834"><ele>462.67975</ele><time>2026-03-27T19:34:33.000Z</time></trkpt>
        <trkpt lat="28.824256" lon="105.949873"><ele>464.67648</ele><time>2026-03-27T19:34:44.000Z</time></trkpt>
        <trkpt lat="28.824279" lon="105.949916"><ele>465.48453</ele><time>2026-03-27T19:34:51.000Z</time></trkpt>
        <trkpt lat="28.824304" lon="105.949962"><ele>465.60248</ele><time>2026-03-27T19:34:56.000Z</time></trkpt>
        <trkpt lat="28.824317" lon="105.950016"><ele>465.61688</ele><time>2026-03-27T19:35:02.000Z</time></trkpt>
        <trkpt lat="28.824322" lon="105.950075"><ele>465.30032</ele><time>2026-03-27T19:35:08.000Z</time></trkpt>
        <trkpt lat="28.824316" lon="105.950143"><ele>465.31165</ele><time>2026-03-27T19:35:28.000Z</time></trkpt>
        <trkpt lat="28.824312" lon="105.950188"><ele>465.24072</ele><time>2026-03-27T19:35:34.000Z</time></trkpt>
        <trkpt lat="28.824308" lon="105.950259"><ele>465.08414</ele><time>2026-03-27T19:35:40.000Z</time></trkpt>
        <trkpt lat="28.824323" lon="105.950322"><ele>465.99106</ele><time>2026-03-27T19:35:47.000Z</time></trkpt>
        <trkpt lat="28.824351" lon="105.950364"><ele>465.99783</ele><time>2026-03-27T19:35:52.000Z</time></trkpt>
        <trkpt lat="28.824375" lon="105.950415"><ele>465.90442</ele><time>2026-03-27T19:35:58.000Z</time></trkpt>
        <trkpt lat="28.8244" lon="105.95046"><ele>466.05713</ele><time>2026-03-27T19:36:03.000Z</time></trkpt>
        <trkpt lat="28.82442" lon="105.950516"><ele>465.82788</ele><time>2026-03-27T19:36:09.000Z</time></trkpt>
        <trkpt lat="28.824429" lon="105.950569"><ele>466.19507</ele><time>2026-03-27T19:36:15.000Z</time></trkpt>
        <trkpt lat="28.82443" lon="105.950619"><ele>466.3494</ele><time>2026-03-27T19:36:20.000Z</time></trkpt>
        <trkpt lat="28.824456" lon="105.950674"><ele>467.16943</ele><time>2026-03-27T19:36:30.000Z</time></trkpt>
        <trkpt lat="28.824448" lon="105.950724"><ele>467.87347</ele><time>2026-03-27T19:36:39.000Z</time></trkpt>
        <trkpt lat="28.824429" lon="105.950775"><ele>468.58813</ele><time>2026-03-27T19:36:47.000Z</time></trkpt>
        <trkpt lat="28.82441" lon="105.950825"><ele>470.15704</ele><time>2026-03-27T19:36:55.000Z</time></trkpt>
        <trkpt lat="28.824385" lon="105.950873"><ele>471.57294</ele><time>2026-03-27T19:37:21.000Z</time></trkpt>
        <trkpt lat="28.824384" lon="105.950924"><ele>472.276</ele><time>2026-03-27T19:37:27.000Z</time></trkpt>
        <trkpt lat="28.824406" lon="105.950979"><ele>472.7766</ele><time>2026-03-27T19:37:33.000Z</time></trkpt>
        <trkpt lat="28.824422" lon="105.951038"><ele>472.8571</ele><time>2026-03-27T19:37:47.000Z</time></trkpt>
        <trkpt lat="28.824446" lon="105.95108"><ele>474.1904</ele><time>2026-03-27T19:37:59.000Z</time></trkpt>
        <trkpt lat="28.824426" lon="105.951129"><ele>474.51752</ele><time>2026-03-27T19:38:07.000Z</time></trkpt>
        <trkpt lat="28.824404" lon="105.951181"><ele>474.6776</ele><time>2026-03-27T19:38:20.000Z</time></trkpt>
        <trkpt lat="28.824442" lon="105.951209"><ele>476.06708</ele><time>2026-03-27T19:38:29.000Z</time></trkpt>
        <trkpt lat="28.824471" lon="105.951256"><ele>476.48102</ele><time>2026-03-27T19:38:35.000Z</time></trkpt>
        <trkpt lat="28.824491" lon="105.951327"><ele>476.73828</ele><time>2026-03-27T19:38:55.000Z</time></trkpt>
        <trkpt lat="28.824441" lon="105.951326"><ele>477.5549</ele><time>2026-03-27T19:39:07.000Z</time></trkpt>
        <trkpt lat="28.824397" lon="105.951328"><ele>478.25232</ele><time>2026-03-27T19:39:13.000Z</time></trkpt>
        <trkpt lat="28.824348" lon="105.951336"><ele>479.3178</ele><time>2026-03-27T19:39:20.000Z</time></trkpt>
        <trkpt lat="28.824308" lon="105.951371"><ele>482.01144</ele><time>2026-03-27T19:39:33.000Z</time></trkpt>
        <trkpt lat="28.824256" lon="105.951365"><ele>482.10727</ele><time>2026-03-27T19:39:58.000Z</time></trkpt>
        <trkpt lat="28.824207" lon="105.951357"><ele>482.8158</ele><time>2026-03-27T19:40:15.000Z</time></trkpt>
        <trkpt lat="28.824171" lon="105.951335"><ele>483.11526</ele><time>2026-03-27T19:40:20.000Z</time></trkpt>
        <trkpt lat="28.824122" lon="105.951328"><ele>483.5827</ele><time>2026-03-27T19:40:27.000Z</time></trkpt>
        <trkpt lat="28.82408" lon="105.951307"><ele>484.37973</ele><time>2026-03-27T19:40:33.000Z</time></trkpt>
        <trkpt lat="28.824031" lon="105.951286"><ele>484.3727</ele><time>2026-03-27T19:40:44.000Z</time></trkpt>
        <trkpt lat="28.823991" lon="105.951256"><ele>484.31357</ele><time>2026-03-27T19:40:57.000Z</time></trkpt>
        <trkpt lat="28.82395" lon="105.951244"><ele>484.7989</ele><time>2026-03-27T19:41:05.000Z</time></trkpt>
        <trkpt lat="28.823906" lon="105.951218"><ele>485.13876</ele><time>2026-03-27T19:41:17.000Z</time></trkpt>
        <trkpt lat="28.823859" lon="105.951197"><ele>485.4967</ele><time>2026-03-27T19:41:24.000Z</time></trkpt>
        <trkpt lat="28.823813" lon="105.951174"><ele>486.093</ele><time>2026-03-27T19:41:29.000Z</time></trkpt>
        <trkpt lat="28.823765" lon="105.951159"><ele>486.47366</ele><time>2026-03-27T19:41:34.000Z</time></trkpt>
        <trkpt lat="28.823716" lon="105.951146"><ele>486.65405</ele><time>2026-03-27T19:41:39.000Z</time></trkpt>
        <trkpt lat="28.823666" lon="105.951132"><ele>486.87845</ele><time>2026-03-27T19:41:44.000Z</time></trkpt>
        <trkpt lat="28.823614" lon="105.951122"><ele>488.35306</ele><time>2026-03-27T19:41:50.000Z</time></trkpt>
        <trkpt lat="28.82357" lon="105.95109"><ele>489.44046</ele><time>2026-03-27T19:41:56.000Z</time></trkpt>
        <trkpt lat="28.823524" lon="105.95107"><ele>489.32358</ele><time>2026-03-27T19:42:00.000Z</time></trkpt>
        <trkpt lat="28.823468" lon="105.951053"><ele>489.35696</ele><time>2026-03-27T19:42:05.000Z</time></trkpt>
        <trkpt lat="28.823413" lon="105.951037"><ele>489.85162</ele><time>2026-03-27T19:42:10.000Z</time></trkpt>
        <trkpt lat="28.823357" lon="105.951023"><ele>490.27783</ele><time>2026-03-27T19:42:16.000Z</time></trkpt>
        <trkpt lat="28.823313" lon="105.951004"><ele>490.31494</ele><time>2026-03-27T19:42:21.000Z</time></trkpt>
        <trkpt lat="28.823261" lon="105.950993"><ele>490.79584</ele><time>2026-03-27T19:42:26.000Z</time></trkpt>
        <trkpt lat="28.823207" lon="105.95099"><ele>490.8169</ele><time>2026-03-27T19:42:31.000Z</time></trkpt>
        <trkpt lat="28.823159" lon="105.950987"><ele>491.16855</ele><time>2026-03-27T19:42:35.000Z</time></trkpt>
        <trkpt lat="28.823102" lon="105.950992"><ele>491.115</ele><time>2026-03-27T19:42:41.000Z</time></trkpt>
        <trkpt lat="28.823057" lon="105.950982"><ele>491.13208</ele><time>2026-03-27T19:42:45.000Z</time></trkpt>
        <trkpt lat="28.82301" lon="105.950961"><ele>491.05106</ele><time>2026-03-27T19:42:50.000Z</time></trkpt>
        <trkpt lat="28.822963" lon="105.950955"><ele>491.19443</ele><time>2026-03-27T19:42:54.000Z</time></trkpt>
        <trkpt lat="28.82291" lon="105.950956"><ele>490.95975</ele><time>2026-03-27T19:42:59.000Z</time></trkpt>
        <trkpt lat="28.82287" lon="105.95096"><ele>490.67642</ele><time>2026-03-27T19:43:02.000Z</time></trkpt>
        <trkpt lat="28.822823" lon="105.950984"><ele>490.33105</ele><time>2026-03-27T19:43:06.000Z</time></trkpt>
        <trkpt lat="28.822773" lon="105.951015"><ele>490.03555</ele><time>2026-03-27T19:43:11.000Z</time></trkpt>
        <trkpt lat="28.822736" lon="105.951033"><ele>489.853</ele><time>2026-03-27T19:43:14.000Z</time></trkpt>
        <trkpt lat="28.822683" lon="105.951056"><ele>489.8623</ele><time>2026-03-27T19:43:18.000Z</time></trkpt>
        <trkpt lat="28.822625" lon="105.951081"><ele>489.08496</ele><time>2026-03-27T19:43:24.000Z</time></trkpt>
        <trkpt lat="28.822582" lon="105.951103"><ele>488.91888</ele><time>2026-03-27T19:43:28.000Z</time></trkpt>
        <trkpt lat="28.822536" lon="105.951135"><ele>488.48227</ele><time>2026-03-27T19:43:32.000Z</time></trkpt>
        <trkpt lat="28.822489" lon="105.951169"><ele>488.61826</ele><time>2026-03-27T19:43:36.000Z</time></trkpt>
        <trkpt lat="28.822438" lon="105.951209"><ele>488.61368</ele><time>2026-03-27T19:43:41.000Z</time></trkpt>
        <trkpt lat="28.822398" lon="105.951231"><ele>488.57315</ele><time>2026-03-27T19:43:44.000Z</time></trkpt>
        <trkpt lat="28.822339" lon="105.95125"><ele>488.9021</ele><time>2026-03-27T19:43:49.000Z</time></trkpt>
        <trkpt lat="28.82228" lon="105.951252"><ele>489.6065</ele><time>2026-03-27T19:43:55.000Z</time></trkpt>
        <trkpt lat="28.822231" lon="105.951255"><ele>490.00662</ele><time>2026-03-27T19:44:00.000Z</time></trkpt>
        <trkpt lat="28.822187" lon="105.951268"><ele>490.13217</ele><time>2026-03-27T19:44:04.000Z</time></trkpt>
        <trkpt lat="28.822134" lon="105.951282"><ele>490.48364</ele><time>2026-03-27T19:44:09.000Z</time></trkpt>
        <trkpt lat="28.822081" lon="105.9513"><ele>491.6161</ele><time>2026-03-27T19:44:15.000Z</time></trkpt>
        <trkpt lat="28.822037" lon="105.951328"><ele>492.18964</ele><time>2026-03-27T19:44:20.000Z</time></trkpt>
        <trkpt lat="28.821991" lon="105.951356"><ele>492.3237</ele><time>2026-03-27T19:44:25.000Z</time></trkpt>
        <trkpt lat="28.82194" lon="105.951382"><ele>492.10138</ele><time>2026-03-27T19:44:30.000Z</time></trkpt>
        <trkpt lat="28.821897" lon="105.951402"><ele>491.7729</ele><time>2026-03-27T19:44:34.000Z</time></trkpt>
        <trkpt lat="28.821846" lon="105.951421"><ele>491.49643</ele><time>2026-03-27T19:44:39.000Z</time></trkpt>
      </trkseg>
      <trkseg>
        <trkpt lat="28.821597" lon="105.951388"><ele>491.6863</ele><time>2026-03-27T19:45:02.000Z</time></trkpt>
        <trkpt lat="28.821586" lon="105.951389"><ele>491.6746</ele><time>2026-03-27T19:45:07.000Z</time></trkpt>
        <trkpt lat="28.821529" lon="105.951396"><ele>491.76</ele><time>2026-03-27T19:45:11.000Z</time></trkpt>
        <trkpt lat="28.821463" lon="105.951406"><ele>492.06058</ele><time>2026-03-27T19:45:16.000Z</time></trkpt>
        <trkpt lat="28.821409" lon="105.951411"><ele>492.0114</ele><time>2026-03-27T19:45:21.000Z</time></trkpt>
        <trkpt lat="28.82136" lon="105.951425"><ele>492.03632</ele><time>2026-03-27T19:45:26.000Z</time></trkpt>
        <trkpt lat="28.821307" lon="105.951449"><ele>491.82452</ele><time>2026-03-27T19:45:32.000Z</time></trkpt>
        <trkpt lat="28.82125" lon="105.951461"><ele>490.85678</ele><time>2026-03-27T19:45:45.000Z</time></trkpt>
        <trkpt lat="28.821255" lon="105.951515"><ele>489.9152</ele><time>2026-03-27T19:46:12.000Z</time></trkpt>
        <trkpt lat="28.821241" lon="105.951562"><ele>490.647</ele><time>2026-03-27T19:46:22.000Z</time></trkpt>
        <trkpt lat="28.821224" lon="105.951621"><ele>492.94968</ele><time>2026-03-27T19:46:37.000Z</time></trkpt>
        <trkpt lat="28.821221" lon="105.951681"><ele>494.76483</ele><time>2026-03-27T19:47:24.000Z</time></trkpt>
        <trkpt lat="28.821207" lon="105.951726"><ele>496.5068</ele><time>2026-03-27T19:47:34.000Z</time></trkpt>
        <trkpt lat="28.82117" lon="105.951752"><ele>496.98608</ele><time>2026-03-27T19:47:40.000Z</time></trkpt>
        <trkpt lat="28.821134" lon="105.951792"><ele>498.53445</ele><time>2026-03-27T19:47:51.000Z</time></trkpt>
        <trkpt lat="28.82109" lon="105.951808"><ele>498.82455</ele><time>2026-03-27T19:47:58.000Z</time></trkpt>
        <trkpt lat="28.821039" lon="105.951821"><ele>500.01407</ele><time>2026-03-27T19:48:09.000Z</time></trkpt>
        <trkpt lat="28.820996" lon="105.951839"><ele>501.16995</ele><time>2026-03-27T19:48:16.000Z</time></trkpt>
        <trkpt lat="28.820951" lon="105.951865"><ele>501.21646</ele><time>2026-03-27T19:48:23.000Z</time></trkpt>
        <trkpt lat="28.820912" lon="105.951902"><ele>502.12692</ele><time>2026-03-27T19:48:36.000Z</time></trkpt>
        <trkpt lat="28.820876" lon="105.951927"><ele>502.41046</ele><time>2026-03-27T19:48:43.000Z</time></trkpt>
        <trkpt lat="28.820835" lon="105.951963"><ele>502.6422</ele><time>2026-03-27T19:48:51.000Z</time></trkpt>
        <trkpt lat="28.820795" lon="105.952"><ele>503.6594</ele><time>2026-03-27T19:49:06.000Z</time></trkpt>
        <trkpt lat="28.820757" lon="105.952029"><ele>504.83203</ele><time>2026-03-27T19:49:15.000Z</time></trkpt>
        <trkpt lat="28.820743" lon="105.952086"><ele>506.21423</ele><time>2026-03-27T19:49:28.000Z</time></trkpt>
        <trkpt lat="28.820722" lon="105.952133"><ele>508.67438</ele><time>2026-03-27T19:50:12.000Z</time></trkpt>
        <trkpt lat="28.820699" lon="105.952176"><ele>511.6866</ele><time>2026-03-27T19:50:29.000Z</time></trkpt>
        <trkpt lat="28.820733" lon="105.952212"><ele>512.4222</ele><time>2026-03-27T19:50:48.000Z</time></trkpt>
        <trkpt lat="28.820687" lon="105.95223"><ele>515.403</ele><time>2026-03-27T19:51:13.000Z</time></trkpt>
        <trkpt lat="28.820639" lon="105.952236"><ele>517.44214</ele><time>2026-03-27T19:51:28.000Z</time></trkpt>
        <trkpt lat="28.820605" lon="105.95227"><ele>518.99493</ele><time>2026-03-27T19:51:49.000Z</time></trkpt>
        <trkpt lat="28.820573" lon="105.952306"><ele>521.026</ele><time>2026-03-27T19:52:25.000Z</time></trkpt>
        <trkpt lat="28.82054" lon="105.952345"><ele>522.42487</ele><time>2026-03-27T19:52:45.000Z</time></trkpt>
        <trkpt lat="28.820499" lon="105.95238"><ele>523.40094</ele><time>2026-03-27T19:52:57.000Z</time></trkpt>
        <trkpt lat="28.820458" lon="105.952351"><ele>525.5618</ele><time>2026-03-27T19:53:11.000Z</time></trkpt>
        <trkpt lat="28.820418" lon="105.95233"><ele>526.36743</ele><time>2026-03-27T19:53:20.000Z</time></trkpt>
        <trkpt lat="28.820373" lon="105.952324"><ele>526.7421</ele><time>2026-03-27T19:53:26.000Z</time></trkpt>
        <trkpt lat="28.820322" lon="105.952331"><ele>527.0716</ele><time>2026-03-27T19:53:36.000Z</time></trkpt>
        <trkpt lat="28.820299" lon="105.952386"><ele>528.69104</ele><time>2026-03-27T19:54:09.000Z</time></trkpt>
        <trkpt lat="28.820274" lon="105.952419"><ele>529.8921</ele><time>2026-03-27T19:54:16.000Z</time></trkpt>
        <trkpt lat="28.820266" lon="105.952472"><ele>530.3466</ele><time>2026-03-27T19:54:24.000Z</time></trkpt>
        <trkpt lat="28.820277" lon="105.952526"><ele>531.6759</ele><time>2026-03-27T19:54:42.000Z</time></trkpt>
        <trkpt lat="28.820252" lon="105.952568"><ele>533.25714</ele><time>2026-03-27T19:54:52.000Z</time></trkpt>
        <trkpt lat="28.820222" lon="105.952618"><ele>534.3197</ele><time>2026-03-27T19:55:04.000Z</time></trkpt>
        <trkpt lat="28.820215" lon="105.952669"><ele>535.9795</ele><time>2026-03-27T19:55:21.000Z</time></trkpt>
        <trkpt lat="28.82017" lon="105.952687"><ele>537.6008</ele><time>2026-03-27T19:55:39.000Z</time></trkpt>
        <trkpt lat="28.820139" lon="105.95273"><ele>538.30505</ele><time>2026-03-27T19:55:51.000Z</time></trkpt>
        <trkpt lat="28.820107" lon="105.952763"><ele>539.3915</ele><time>2026-03-27T19:55:58.000Z</time></trkpt>
        <trkpt lat="28.820058" lon="105.952793"><ele>540.70233</ele><time>2026-03-27T19:56:07.000Z</time></trkpt>
        <trkpt lat="28.820057" lon="105.952841"><ele>540.72516</ele><time>2026-03-27T19:56:10.000Z</time></trkpt>
        <trkpt lat="28.820099" lon="105.952885"><ele>540.70825</ele><time>2026-03-27T19:56:12.000Z</time></trkpt>
        <trkpt lat="28.820142" lon="105.952909"><ele>540.6746</ele><time>2026-03-27T19:56:13.000Z</time></trkpt>
        <trkpt lat="28.820184" lon="105.952925"><ele>540.6637</ele><time>2026-03-27T19:56:14.000Z</time></trkpt>
        <trkpt lat="28.820234" lon="105.952918"><ele>540.8213</ele><time>2026-03-27T19:56:19.000Z</time></trkpt>
        <trkpt lat="28.820205" lon="105.952878"><ele>540.96985</ele><time>2026-03-27T19:56:22.000Z</time></trkpt>
        <trkpt lat="28.820158" lon="105.952845"><ele>541.0993</ele><time>2026-03-27T19:56:25.000Z</time></trkpt>
        <trkpt lat="28.820094" lon="105.952802"><ele>541.2715</ele><time>2026-03-27T19:56:30.000Z</time></trkpt>
        <trkpt lat="28.82003" lon="105.952771"><ele>542.0026</ele><time>2026-03-27T19:56:40.000Z</time></trkpt>
        <trkpt lat="28.819995" lon="105.952805"><ele>542.99286</ele><time>2026-03-27T19:56:54.000Z</time></trkpt>
        <trkpt lat="28.819947" lon="105.952803"><ele>544.3582</ele><time>2026-03-27T19:57:05.000Z</time></trkpt>
        <trkpt lat="28.819915" lon="105.952845"><ele>545.5847</ele><time>2026-03-27T19:57:15.000Z</time></trkpt>
        <trkpt lat="28.819872" lon="105.952836"><ele>548.28265</ele><time>2026-03-27T19:57:38.000Z</time></trkpt>
        <trkpt lat="28.819835" lon="105.952854"><ele>549.3297</ele><time>2026-03-27T19:57:46.000Z</time></trkpt>
        <trkpt lat="28.819811" lon="105.952897"><ele>549.5239</ele><time>2026-03-27T19:57:51.000Z</time></trkpt>
        <trkpt lat="28.819766" lon="105.952905"><ele>550.8097</ele><time>2026-03-27T19:57:59.000Z</time></trkpt>
        <trkpt lat="28.819724" lon="105.952916"><ele>551.68396</ele><time>2026-03-27T19:58:05.000Z</time></trkpt>
        <trkpt lat="28.819675" lon="105.952896"><ele>551.67737</ele><time>2026-03-27T19:58:25.000Z</time></trkpt>
        <trkpt lat="28.819638" lon="105.95289"><ele>551.91235</ele><time>2026-03-27T19:58:31.000Z</time></trkpt>
        <trkpt lat="28.819605" lon="105.952934"><ele>552.30066</ele><time>2026-03-27T19:58:43.000Z</time></trkpt>
        <trkpt lat="28.819595" lon="105.952992"><ele>552.323</ele><time>2026-03-27T19:58:48.000Z</time></trkpt>
        <trkpt lat="28.819605" lon="105.953053"><ele>552.258</ele><time>2026-03-27T19:58:55.000Z</time></trkpt>
        <trkpt lat="28.819587" lon="105.953021"><ele>552.2573</ele><time>2026-03-27T19:59:02.000Z</time></trkpt>
        <trkpt lat="28.819569" lon="105.952967"><ele>552.2722</ele><time>2026-03-27T19:59:06.000Z</time></trkpt>
        <trkpt lat="28.81957" lon="105.952889"><ele>552.2882</ele><time>2026-03-27T19:59:21.000Z</time></trkpt>
        <trkpt lat="28.819587" lon="105.95294"><ele>544.45667</ele><time>2026-03-27T20:00:15.000Z</time></trkpt>
        <trkpt lat="28.819573" lon="105.952997"><ele>543.79553</ele><time>2026-03-27T20:00:24.000Z</time></trkpt>
        <trkpt lat="28.819607" lon="105.952992"><ele>543.80273</ele><time>2026-03-27T20:00:29.000Z</time></trkpt>
        <trkpt lat="28.819622" lon="105.952892"><ele>543.92267</ele><time>2026-03-27T20:00:39.000Z</time></trkpt>
        <trkpt lat="28.81959" lon="105.952919"><ele>543.9559</ele><time>2026-03-27T20:01:02.000Z</time></trkpt>
        <trkpt lat="28.819615" lon="105.952967"><ele>544.5055</ele><time>2026-03-27T20:01:31.000Z</time></trkpt>
        <trkpt lat="28.819579" lon="105.953006"><ele>544.30164</ele><time>2026-03-27T20:02:17.000Z</time></trkpt>
        <trkpt lat="28.819533" lon="105.953011"><ele>544.6748</ele><time>2026-03-27T20:03:09.000Z</time></trkpt>
        <trkpt lat="28.819488" lon="105.953008"><ele>547.5805</ele><time>2026-03-27T20:03:25.000Z</time></trkpt>
        <trkpt lat="28.81943" lon="105.953006"><ele>550.2833</ele><time>2026-03-27T20:03:47.000Z</time></trkpt>
        <trkpt lat="28.819393" lon="105.952972"><ele>552.10754</ele><time>2026-03-27T20:04:18.000Z</time></trkpt>
        <trkpt lat="28.819351" lon="105.952953"><ele>553.14154</ele><time>2026-03-27T20:04:28.000Z</time></trkpt>
        <trkpt lat="28.819301" lon="105.952948"><ele>555.2717</ele><time>2026-03-27T20:04:39.000Z</time></trkpt>
        <trkpt lat="28.819257" lon="105.952967"><ele>555.67944</ele><time>2026-03-27T20:04:47.000Z</time></trkpt>
        <trkpt lat="28.819219" lon="105.953006"><ele>556.3908</ele><time>2026-03-27T20:05:01.000Z</time></trkpt>
        <trkpt lat="28.819177" lon="105.952984"><ele>558.3443</ele><time>2026-03-27T20:05:15.000Z</time></trkpt>
        <trkpt lat="28.819136" lon="105.953011"><ele>563.3132</ele><time>2026-03-27T20:05:53.000Z</time></trkpt>
        <trkpt lat="28.819091" lon="105.953009"><ele>565.3266</ele><time>2026-03-27T20:06:28.000Z</time></trkpt>
        <trkpt lat="28.819049" lon="105.953037"><ele>566.1612</ele><time>2026-03-27T20:06:37.000Z</time></trkpt>
        <trkpt lat="28.819026" lon="105.953092"><ele>567.2591</ele><time>2026-03-27T20:06:48.000Z</time></trkpt>
        <trkpt lat="28.81902" lon="105.953146"><ele>569.9923</ele><time>2026-03-27T20:07:05.000Z</time></trkpt>
        <trkpt lat="28.818974" lon="105.953149"><ele>570.96857</ele><time>2026-03-27T20:07:16.000Z</time></trkpt>
        <trkpt lat="28.818952" lon="105.953099"><ele>570.72845</ele><time>2026-03-27T20:07:34.000Z</time></trkpt>
        <trkpt lat="28.81891" lon="105.95311"><ele>570.8523</ele><time>2026-03-27T20:07:41.000Z</time></trkpt>
        <trkpt lat="28.818854" lon="105.953119"><ele>572.90356</ele><time>2026-03-27T20:08:04.000Z</time></trkpt>
        <trkpt lat="28.818843" lon="105.953168"><ele>573.8665</ele><time>2026-03-27T20:08:13.000Z</time></trkpt>
        <trkpt lat="28.818834" lon="105.953226"><ele>575.16174</ele><time>2026-03-27T20:08:42.000Z</time></trkpt>
        <trkpt lat="28.818844" lon="105.953176"><ele>576.53143</ele><time>2026-03-27T20:09:02.000Z</time></trkpt>
        <trkpt lat="28.818868" lon="105.953228"><ele>580.3408</ele><time>2026-03-27T20:09:35.000Z</time></trkpt>
        <trkpt lat="28.818907" lon="105.953249"><ele>581.22345</ele><time>2026-03-27T20:09:42.000Z</time></trkpt>
        <trkpt lat="28.818953" lon="105.953223"><ele>582.1149</ele><time>2026-03-27T20:09:53.000Z</time></trkpt>
        <trkpt lat="28.818951" lon="105.953276"><ele>583.6697</ele><time>2026-03-27T20:10:03.000Z</time></trkpt>
        <trkpt lat="28.818952" lon="105.953337"><ele>584.47</ele><time>2026-03-27T20:10:23.000Z</time></trkpt>
        <trkpt lat="28.818971" lon="105.953278"><ele>585.9349</ele><time>2026-03-27T20:10:41.000Z</time></trkpt>
        <trkpt lat="28.818992" lon="105.953229"><ele>586.58887</ele><time>2026-03-27T20:10:54.000Z</time></trkpt>
        <trkpt lat="28.818964" lon="105.953268"><ele>586.9552</ele><time>2026-03-27T20:11:18.000Z</time></trkpt>
        <trkpt lat="28.818966" lon="105.953315"><ele>586.999</ele><time>2026-03-27T20:11:23.000Z</time></trkpt>
        <trkpt lat="28.818934" lon="105.953368"><ele>588.6955</ele><time>2026-03-27T20:11:35.000Z</time></trkpt>
        <trkpt lat="28.818888" lon="105.953366"><ele>589.8958</ele><time>2026-03-27T20:11:44.000Z</time></trkpt>
        <trkpt lat="28.818857" lon="105.953328"><ele>590.8039</ele><time>2026-03-27T20:11:52.000Z</time></trkpt>
        <trkpt lat="28.818809" lon="105.953334"><ele>592.98267</ele><time>2026-03-27T20:12:11.000Z</time></trkpt>
        <trkpt lat="28.818765" lon="105.953353"><ele>594.01605</ele><time>2026-03-27T20:12:22.000Z</time></trkpt>
        <trkpt lat="28.818769" lon="105.953308"><ele>594.23755</ele><time>2026-03-27T20:12:31.000Z</time></trkpt>
        <trkpt lat="28.818762" lon="105.95334"><ele>594.4099</ele><time>2026-03-27T20:12:36.000Z</time></trkpt>
        <trkpt lat="28.818742" lon="105.953391"><ele>594.565</ele><time>2026-03-27T20:12:40.000Z</time></trkpt>
        <trkpt lat="28.818698" lon="105.953444"><ele>594.733</ele><time>2026-03-27T20:12:54.000Z</time></trkpt>
        <trkpt lat="28.818651" lon="105.953427"><ele>596.2054</ele><time>2026-03-27T20:13:12.000Z</time></trkpt>
        <trkpt lat="28.818608" lon="105.953439"><ele>597.2016</ele><time>2026-03-27T20:13:34.000Z</time></trkpt>
        <trkpt lat="28.81857" lon="105.953468"><ele>599.2666</ele><time>2026-03-27T20:13:51.000Z</time></trkpt>
        <trkpt lat="28.818548" lon="105.95351"><ele>600.64105</ele><time>2026-03-27T20:13:59.000Z</time></trkpt>
        <trkpt lat="28.818504" lon="105.953528"><ele>602.4504</ele><time>2026-03-27T20:14:17.000Z</time></trkpt>
        <trkpt lat="28.818474" lon="105.953485"><ele>602.9888</ele><time>2026-03-27T20:14:51.000Z</time></trkpt>
        <trkpt lat="28.818466" lon="105.953421"><ele>602.90216</ele><time>2026-03-27T20:15:32.000Z</time></trkpt>
        <trkpt lat="28.818453" lon="105.953459"><ele>603.1571</ele><time>2026-03-27T20:15:37.000Z</time></trkpt>
        <trkpt lat="28.818405" lon="105.953489"><ele>606.775</ele><time>2026-03-27T20:16:02.000Z</time></trkpt>
        <trkpt lat="28.818369" lon="105.953499"><ele>607.76495</ele><time>2026-03-27T20:16:07.000Z</time></trkpt>
        <trkpt lat="28.818365" lon="105.953546"><ele>608.0841</ele><time>2026-03-27T20:16:13.000Z</time></trkpt>
        <trkpt lat="28.818326" lon="105.953538"><ele>610.63293</ele><time>2026-03-27T20:16:35.000Z</time></trkpt>
        <trkpt lat="28.818283" lon="105.953553"><ele>612.1046</ele><time>2026-03-27T20:16:48.000Z</time></trkpt>
        <trkpt lat="28.818259" lon="105.953603"><ele>613.2516</ele><time>2026-03-27T20:16:57.000Z</time></trkpt>
        <trkpt lat="28.81826" lon="105.953661"><ele>614.1489</ele><time>2026-03-27T20:17:07.000Z</time></trkpt>
        <trkpt lat="28.818277" lon="105.953711"><ele>614.3961</ele><time>2026-03-27T20:17:14.000Z</time></trkpt>
        <trkpt lat="28.818259" lon="105.953764"><ele>614.0306</ele><time>2026-03-27T20:17:44.000Z</time></trkpt>
        <trkpt lat="28.818237" lon="105.9538"><ele>613.577</ele><time>2026-03-27T20:17:51.000Z</time></trkpt>
        <trkpt lat="28.818194" lon="105.953831"><ele>614.8303</ele><time>2026-03-27T20:18:04.000Z</time></trkpt>
        <trkpt lat="28.818152" lon="105.953856"><ele>617.59875</ele><time>2026-03-27T20:18:20.000Z</time></trkpt>
        <trkpt lat="28.818107" lon="105.953874"><ele>618.5574</ele><time>2026-03-27T20:18:30.000Z</time></trkpt>
        <trkpt lat="28.818074" lon="105.953913"><ele>620.871</ele><time>2026-03-27T20:18:49.000Z</time></trkpt>
        <trkpt lat="28.818032" lon="105.953937"><ele>622.4257</ele><time>2026-03-27T20:19:01.000Z</time></trkpt>
        <trkpt lat="28.817981" lon="105.95395"><ele>624.182</ele><time>2026-03-27T20:19:16.000Z</time></trkpt>
        <trkpt lat="28.81794" lon="105.953961"><ele>624.9669</ele><time>2026-03-27T20:19:23.000Z</time></trkpt>
        <trkpt lat="28.817888" lon="105.953988"><ele>625.16565</ele><time>2026-03-27T20:19:36.000Z</time></trkpt>
        <trkpt lat="28.81784" lon="105.95398"><ele>625.04553</ele><time>2026-03-27T20:19:43.000Z</time></trkpt>
        <trkpt lat="28.817786" lon="105.953983"><ele>625.0731</ele><time>2026-03-27T20:19:49.000Z</time></trkpt>
        <trkpt lat="28.817736" lon="105.953973"><ele>625.0996</ele><time>2026-03-27T20:19:54.000Z</time></trkpt>
        <trkpt lat="28.817685" lon="105.953971"><ele>625.4417</ele><time>2026-03-27T20:20:01.000Z</time></trkpt>
        <trkpt lat="28.817656" lon="105.953942"><ele>625.5437</ele><time>2026-03-27T20:20:05.000Z</time></trkpt>
        <trkpt lat="28.81762" lon="105.953901"><ele>625.618</ele><time>2026-03-27T20:20:10.000Z</time></trkpt>
        <trkpt lat="28.817574" lon="105.953865"><ele>625.9617</ele><time>2026-03-27T20:20:18.000Z</time></trkpt>
        <trkpt lat="28.817601" lon="105.953908"><ele>627.88275</ele><time>2026-03-27T20:20:49.000Z</time></trkpt>
        <trkpt lat="28.817627" lon="105.953957"><ele>628.5275</ele><time>2026-03-27T20:20:58.000Z</time></trkpt>
        <trkpt lat="28.817653" lon="105.953998"><ele>629.74493</ele><time>2026-03-27T20:21:06.000Z</time></trkpt>
        <trkpt lat="28.817653" lon="105.954052"><ele>631.15216</ele><time>2026-03-27T20:21:17.000Z</time></trkpt>
        <trkpt lat="28.817629" lon="105.954095"><ele>632.33075</ele><time>2026-03-27T20:21:25.000Z</time></trkpt>
        <trkpt lat="28.817591" lon="105.954139"><ele>632.8528</ele><time>2026-03-27T20:21:45.000Z</time></trkpt>
        <trkpt lat="28.817555" lon="105.954167"><ele>632.13684</ele><time>2026-03-27T20:21:57.000Z</time></trkpt>
        <trkpt lat="28.817525" lon="105.954204"><ele>631.4233</ele><time>2026-03-27T20:22:02.000Z</time></trkpt>
        <trkpt lat="28.817494" lon="105.954253"><ele>629.95703</ele><time>2026-03-27T20:22:09.000Z</time></trkpt>
        <trkpt lat="28.81746" lon="105.954298"><ele>628.5064</ele><time>2026-03-27T20:22:15.000Z</time></trkpt>
        <trkpt lat="28.81743" lon="105.954341"><ele>627.54095</ele><time>2026-03-27T20:22:20.000Z</time></trkpt>
        <trkpt lat="28.817403" lon="105.954392"><ele>626.5262</ele><time>2026-03-27T20:22:25.000Z</time></trkpt>
        <trkpt lat="28.817386" lon="105.954447"><ele>625.8905</ele><time>2026-03-27T20:22:30.000Z</time></trkpt>
        <trkpt lat="28.817375" lon="105.954505"><ele>625.6375</ele><time>2026-03-27T20:22:34.000Z</time></trkpt>
        <trkpt lat="28.817363" lon="105.954566"><ele>624.78125</ele><time>2026-03-27T20:22:39.000Z</time></trkpt>
        <trkpt lat="28.817341" lon="105.954617"><ele>624.38477</ele><time>2026-03-27T20:22:45.000Z</time></trkpt>
        <trkpt lat="28.817305" lon="105.954654"><ele>623.966</ele><time>2026-03-27T20:22:51.000Z</time></trkpt>
        <trkpt lat="28.817257" lon="105.954675"><ele>624.1235</ele><time>2026-03-27T20:22:57.000Z</time></trkpt>
        <trkpt lat="28.817211" lon="105.954695"><ele>624.3052</ele><time>2026-03-27T20:23:02.000Z</time></trkpt>
        <trkpt lat="28.817164" lon="105.954714"><ele>624.5473</ele><time>2026-03-27T20:23:06.000Z</time></trkpt>
        <trkpt lat="28.817119" lon="105.954736"><ele>624.69666</ele><time>2026-03-27T20:23:10.000Z</time></trkpt>
        <trkpt lat="28.817076" lon="105.954762"><ele>624.3677</ele><time>2026-03-27T20:23:14.000Z</time></trkpt>
        <trkpt lat="28.817034" lon="105.954807"><ele>623.74603</ele><time>2026-03-27T20:23:22.000Z</time></trkpt>
        <trkpt lat="28.817009" lon="105.954841"><ele>623.0926</ele><time>2026-03-27T20:23:27.000Z</time></trkpt>
        <trkpt lat="28.816991" lon="105.954889"><ele>622.4046</ele><time>2026-03-27T20:23:33.000Z</time></trkpt>
        <trkpt lat="28.816964" lon="105.954932"><ele>621.9129</ele><time>2026-03-27T20:23:39.000Z</time></trkpt>
        <trkpt lat="28.81694" lon="105.954984"><ele>621.7863</ele><time>2026-03-27T20:24:05.000Z</time></trkpt>
        <trkpt lat="28.816904" lon="105.954987"><ele>622.1538</ele><time>2026-03-27T20:24:10.000Z</time></trkpt>
        <trkpt lat="28.81685" lon="105.954964"><ele>622.73267</ele><time>2026-03-27T20:24:17.000Z</time></trkpt>
        <trkpt lat="28.816811" lon="105.954923"><ele>623.6871</ele><time>2026-03-27T20:24:27.000Z</time></trkpt>
        <trkpt lat="28.816782" lon="105.954884"><ele>625.13916</ele><time>2026-03-27T20:24:33.000Z</time></trkpt>
        <trkpt lat="28.816738" lon="105.954876"><ele>626.2715</ele><time>2026-03-27T20:24:40.000Z</time></trkpt>
        <trkpt lat="28.816691" lon="105.954882"><ele>626.20154</ele><time>2026-03-27T20:24:47.000Z</time></trkpt>
        <trkpt lat="28.816657" lon="105.954915"><ele>626.6268</ele><time>2026-03-27T20:24:52.000Z</time></trkpt>
        <trkpt lat="28.816613" lon="105.954936"><ele>626.7825</ele><time>2026-03-27T20:24:58.000Z</time></trkpt>
        <trkpt lat="28.81657" lon="105.954928"><ele>626.4948</ele><time>2026-03-27T20:25:03.000Z</time></trkpt>
        <trkpt lat="28.816516" lon="105.95493"><ele>627.0401</ele><time>2026-03-27T20:25:10.000Z</time></trkpt>
        <trkpt lat="28.816477" lon="105.954962"><ele>627.51965</ele><time>2026-03-27T20:25:25.000Z</time></trkpt>
        <trkpt lat="28.816435" lon="105.954975"><ele>629.3907</ele><time>2026-03-27T20:25:37.000Z</time></trkpt>
        <trkpt lat="28.816408" lon="105.95502"><ele>631.19775</ele><time>2026-03-27T20:25:47.000Z</time></trkpt>
        <trkpt lat="28.816374" lon="105.955058"><ele>633.1989</ele><time>2026-03-27T20:26:01.000Z</time></trkpt>
        <trkpt lat="28.816344" lon="105.955087"><ele>633.8247</ele><time>2026-03-27T20:26:07.000Z</time></trkpt>
        <trkpt lat="28.816328" lon="105.955146"><ele>635.03094</ele><time>2026-03-27T20:26:19.000Z</time></trkpt>
        <trkpt lat="28.816293" lon="105.955179"><ele>636.0665</ele><time>2026-03-27T20:26:59.000Z</time></trkpt>
        <trkpt lat="28.816286" lon="105.955227"><ele>636.86365</ele><time>2026-03-27T20:27:08.000Z</time></trkpt>
        <trkpt lat="28.816271" lon="105.955277"><ele>637.4415</ele><time>2026-03-27T20:27:14.000Z</time></trkpt>
        <trkpt lat="28.816249" lon="105.955328"><ele>637.92865</ele><time>2026-03-27T20:27:20.000Z</time></trkpt>
        <trkpt lat="28.816228" lon="105.955388"><ele>639.17444</ele><time>2026-03-27T20:27:36.000Z</time></trkpt>
        <trkpt lat="28.81621" lon="105.955427"><ele>638.9527</ele><time>2026-03-27T20:27:41.000Z</time></trkpt>
        <trkpt lat="28.816172" lon="105.955456"><ele>638.819</ele><time>2026-03-27T20:27:46.000Z</time></trkpt>
        <trkpt lat="28.816125" lon="105.955465"><ele>639.0659</ele><time>2026-03-27T20:27:51.000Z</time></trkpt>
        <trkpt lat="28.816084" lon="105.95544"><ele>639.08093</ele><time>2026-03-27T20:27:55.000Z</time></trkpt>
        <trkpt lat="28.816049" lon="105.955392"><ele>638.84827</ele><time>2026-03-27T20:28:00.000Z</time></trkpt>
        <trkpt lat="28.816032" lon="105.955335"><ele>638.8793</ele><time>2026-03-27T20:28:05.000Z</time></trkpt>
        <trkpt lat="28.816002" lon="105.95528"><ele>639.4384</ele><time>2026-03-27T20:28:12.000Z</time></trkpt>
        <trkpt lat="28.815953" lon="105.955269"><ele>639.73267</ele><time>2026-03-27T20:28:18.000Z</time></trkpt>
        <trkpt lat="28.815898" lon="105.955286"><ele>639.6339</ele><time>2026-03-27T20:28:24.000Z</time></trkpt>
        <trkpt lat="28.815862" lon="105.955325"><ele>639.61945</ele><time>2026-03-27T20:28:29.000Z</time></trkpt>
        <trkpt lat="28.815837" lon="105.955378"><ele>639.66077</ele><time>2026-03-27T20:28:34.000Z</time></trkpt>
        <trkpt lat="28.815808" lon="105.955419"><ele>639.8015</ele><time>2026-03-27T20:28:38.000Z</time></trkpt>
        <trkpt lat="28.815761" lon="105.955448"><ele>640.1305</ele><time>2026-03-27T20:28:43.000Z</time></trkpt>
        <trkpt lat="28.815715" lon="105.955474"><ele>640.1517</ele><time>2026-03-27T20:28:49.000Z</time></trkpt>
        <trkpt lat="28.815689" lon="105.955517"><ele>640.9611</ele><time>2026-03-27T20:28:56.000Z</time></trkpt>
        <trkpt lat="28.815657" lon="105.955554"><ele>643.32104</ele><time>2026-03-27T20:29:04.000Z</time></trkpt>
        <trkpt lat="28.815617" lon="105.955585"><ele>644.2715</ele><time>2026-03-27T20:29:12.000Z</time></trkpt>
        <trkpt lat="28.815592" lon="105.955634"><ele>645.6891</ele><time>2026-03-27T20:29:39.000Z</time></trkpt>
        <trkpt lat="28.815594" lon="105.955638"><ele>645.6918</ele><time>2026-03-27T20:29:40.000Z</time></trkpt>
        <trkpt lat="28.815609" lon="105.955669"><ele>645.8126</ele><time>2026-03-27T20:29:44.000Z</time></trkpt>
        <trkpt lat="28.815589" lon="105.955727"><ele>646.8005</ele><time>2026-03-27T20:29:58.000Z</time></trkpt>
        <trkpt lat="28.815603" lon="105.955774"><ele>648.0601</ele><time>2026-03-27T20:30:09.000Z</time></trkpt>
        <trkpt lat="28.815611" lon="105.955832"><ele>649.41534</ele><time>2026-03-27T20:30:25.000Z</time></trkpt>
        <trkpt lat="28.81565" lon="105.955856"><ele>653.048</ele><time>2026-03-27T20:30:54.000Z</time></trkpt>
        <trkpt lat="28.815652" lon="105.955855"><ele>653.1238</ele><time>2026-03-27T20:30:55.000Z</time></trkpt>
        <trkpt lat="28.815647" lon="105.955908"><ele>653.0193</ele><time>2026-03-27T20:31:20.000Z</time></trkpt>
        <trkpt lat="28.815688" lon="105.955927"><ele>652.8208</ele><time>2026-03-27T20:31:38.000Z</time></trkpt>
        <trkpt lat="28.8157" lon="105.955939"><ele>653.0193</ele><time>2026-03-27T20:31:41.000Z</time></trkpt>
        <trkpt lat="28.815751" lon="105.955957"><ele>657.5269</ele><time>2026-03-27T20:32:32.000Z</time></trkpt>
        <trkpt lat="28.815766" lon="105.956"><ele>658.1776</ele><time>2026-03-27T20:32:39.000Z</time></trkpt>
        <trkpt lat="28.815795" lon="105.95606"><ele>659.36145</ele><time>2026-03-27T20:32:49.000Z</time></trkpt>
        <trkpt lat="28.815772" lon="105.956106"><ele>659.6219</ele><time>2026-03-27T20:33:05.000Z</time></trkpt>
        <trkpt lat="28.815733" lon="105.956129"><ele>659.4902</ele><time>2026-03-27T20:33:11.000Z</time></trkpt>
        <trkpt lat="28.815695" lon="105.956164"><ele>660.0607</ele><time>2026-03-27T20:33:17.000Z</time></trkpt>
        <trkpt lat="28.815687" lon="105.95622"><ele>661.5326</ele><time>2026-03-27T20:33:36.000Z</time></trkpt>
        <trkpt lat="28.815708" lon="105.956269"><ele>663.12695</ele><time>2026-03-27T20:33:57.000Z</time></trkpt>
        <trkpt lat="28.815747" lon="105.956304"><ele>664.9443</ele><time>2026-03-27T20:34:23.000Z</time></trkpt>
        <trkpt lat="28.815715" lon="105.956349"><ele>667.4287</ele><time>2026-03-27T20:34:44.000Z</time></trkpt>
        <trkpt lat="28.815698" lon="105.956397"><ele>668.9011</ele><time>2026-03-27T20:34:54.000Z</time></trkpt>
        <trkpt lat="28.815675" lon="105.956445"><ele>669.2568</ele><time>2026-03-27T20:35:01.000Z</time></trkpt>
        <trkpt lat="28.815649" lon="105.956493"><ele>670.12634</ele><time>2026-03-27T20:35:08.000Z</time></trkpt>
        <trkpt lat="28.81563" lon="105.956546"><ele>670.8274</ele><time>2026-03-27T20:35:27.000Z</time></trkpt>
        <trkpt lat="28.815636" lon="105.956599"><ele>672.92633</ele><time>2026-03-27T20:36:00.000Z</time></trkpt>
        <trkpt lat="28.81563" lon="105.956642"><ele>673.2299</ele><time>2026-03-27T20:36:06.000Z</time></trkpt>
        <trkpt lat="28.815627" lon="105.956698"><ele>673.1251</ele><time>2026-03-27T20:36:11.000Z</time></trkpt>
        <trkpt lat="28.815631" lon="105.956757"><ele>673.60724</ele><time>2026-03-27T20:36:18.000Z</time></trkpt>
        <trkpt lat="28.8156" lon="105.956799"><ele>674.2418</ele><time>2026-03-27T20:36:27.000Z</time></trkpt>
        <trkpt lat="28.815558" lon="105.956828"><ele>676.2567</ele><time>2026-03-27T20:36:52.000Z</time></trkpt>
        <trkpt lat="28.815555" lon="105.956828"><ele>675.9528</ele><time>2026-03-27T20:36:53.000Z</time></trkpt>
        <trkpt lat="28.815553" lon="105.956829"><ele>675.6937</ele><time>2026-03-27T20:36:54.000Z</time></trkpt>
        <trkpt lat="28.815551" lon="105.956831"><ele>675.20056</ele><time>2026-03-27T20:36:55.000Z</time></trkpt>
        <trkpt lat="28.815549" lon="105.956832"><ele>674.7925</ele><time>2026-03-27T20:36:56.000Z</time></trkpt>
        <trkpt lat="28.815506" lon="105.956835"><ele>674.19824</ele><time>2026-03-27T20:37:03.000Z</time></trkpt>
        <trkpt lat="28.815453" lon="105.956833"><ele>673.89514</ele><time>2026-03-27T20:37:08.000Z</time></trkpt>
        <trkpt lat="28.815401" lon="105.95683"><ele>673.56104</ele><time>2026-03-27T20:37:12.000Z</time></trkpt>
        <trkpt lat="28.815344" lon="105.956822"><ele>673.05664</ele><time>2026-03-27T20:37:18.000Z</time></trkpt>
        <trkpt lat="28.815296" lon="105.956833"><ele>675.09924</ele><time>2026-03-27T20:37:22.000Z</time></trkpt>
        <trkpt lat="28.815249" lon="105.956843"><ele>676.9658</ele><time>2026-03-27T20:37:26.000Z</time></trkpt>
        <trkpt lat="28.815192" lon="105.95685"><ele>678.17706</ele><time>2026-03-27T20:37:31.000Z</time></trkpt>
        <trkpt lat="28.815147" lon="105.956846"><ele>678.58453</ele><time>2026-03-27T20:37:35.000Z</time></trkpt>
        <trkpt lat="28.815095" lon="105.956839"><ele>678.7333</ele><time>2026-03-27T20:37:40.000Z</time></trkpt>
        <trkpt lat="28.815041" lon="105.956838"><ele>678.873</ele><time>2026-03-27T20:37:46.000Z</time></trkpt>
      </trkseg>
      <trkseg>
        <trkpt lat="28.814838" lon="105.956849"><ele>680.0157</ele><time>2026-03-27T20:38:06.000Z</time></trkpt>
        <trkpt lat="28.814828" lon="105.956854"><ele>680.09595</ele><time>2026-03-27T20:38:11.000Z</time></trkpt>
        <trkpt lat="28.814753" lon="105.956881"><ele>680.6904</ele><time>2026-03-27T20:38:18.000Z</time></trkpt>
        <trkpt lat="28.814694" lon="105.956884"><ele>681.03796</ele><time>2026-03-27T20:38:22.000Z</time></trkpt>
        <trkpt lat="28.814639" lon="105.956881"><ele>680.87775</ele><time>2026-03-27T20:38:26.000Z</time></trkpt>
        <trkpt lat="28.814589" lon="105.956888"><ele>680.9197</ele><time>2026-03-27T20:38:30.000Z</time></trkpt>
        <trkpt lat="28.814535" lon="105.956884"><ele>680.7976</ele><time>2026-03-27T20:38:35.000Z</time></trkpt>
        <trkpt lat="28.814484" lon="105.956884"><ele>680.82446</ele><time>2026-03-27T20:38:39.000Z</time></trkpt>
        <trkpt lat="28.81443" lon="105.956891"><ele>680.5871</ele><time>2026-03-27T20:38:44.000Z</time></trkpt>
        <trkpt lat="28.814395" lon="105.956929"><ele>680.5074</ele><time>2026-03-27T20:38:49.000Z</time></trkpt>
        <trkpt lat="28.81435" lon="105.956966"><ele>680.6018</ele><time>2026-03-27T20:38:55.000Z</time></trkpt>
        <trkpt lat="28.814315" lon="105.957007"><ele>680.6098</ele><time>2026-03-27T20:39:01.000Z</time></trkpt>
        <trkpt lat="28.814288" lon="105.95704"><ele>680.7149</ele><time>2026-03-27T20:39:05.000Z</time></trkpt>
        <trkpt lat="28.814254" lon="105.957085"><ele>680.8331</ele><time>2026-03-27T20:39:10.000Z</time></trkpt>
        <trkpt lat="28.814219" lon="105.957131"><ele>680.78546</ele><time>2026-03-27T20:39:17.000Z</time></trkpt>
        <trkpt lat="28.814181" lon="105.957179"><ele>680.844</ele><time>2026-03-27T20:39:24.000Z</time></trkpt>
        <trkpt lat="28.814139" lon="105.957212"><ele>680.6595</ele><time>2026-03-27T20:39:28.000Z</time></trkpt>
        <trkpt lat="28.8141" lon="105.957246"><ele>680.5045</ele><time>2026-03-27T20:39:31.000Z</time></trkpt>
        <trkpt lat="28.814047" lon="105.957285"><ele>680.466</ele><time>2026-03-27T20:39:35.000Z</time></trkpt>
        <trkpt lat="28.813992" lon="105.957309"><ele>680.3522</ele><time>2026-03-27T20:39:39.000Z</time></trkpt>
        <trkpt lat="28.813941" lon="105.957324"><ele>680.65674</ele><time>2026-03-27T20:39:43.000Z</time></trkpt>
        <trkpt lat="28.813894" lon="105.957331"><ele>680.82544</ele><time>2026-03-27T20:39:47.000Z</time></trkpt>
        <trkpt lat="28.813844" lon="105.957328"><ele>681.2366</ele><time>2026-03-27T20:39:51.000Z</time></trkpt>
        <trkpt lat="28.813787" lon="105.957319"><ele>681.8964</ele><time>2026-03-27T20:39:56.000Z</time></trkpt>
        <trkpt lat="28.813735" lon="105.95732"><ele>682.2966</ele><time>2026-03-27T20:40:01.000Z</time></trkpt>
        <trkpt lat="28.813685" lon="105.957317"><ele>682.7526</ele><time>2026-03-27T20:40:05.000Z</time></trkpt>
        <trkpt lat="28.81363" lon="105.957317"><ele>682.9584</ele><time>2026-03-27T20:40:10.000Z</time></trkpt>
        <trkpt lat="28.813583" lon="105.957328"><ele>682.7257</ele><time>2026-03-27T20:40:14.000Z</time></trkpt>
        <trkpt lat="28.81353" lon="105.957363"><ele>682.8822</ele><time>2026-03-27T20:40:22.000Z</time></trkpt>
        <trkpt lat="28.813491" lon="105.957384"><ele>682.79114</ele><time>2026-03-27T20:40:27.000Z</time></trkpt>
        <trkpt lat="28.813444" lon="105.957413"><ele>683.15283</ele><time>2026-03-27T20:40:33.000Z</time></trkpt>
        <trkpt lat="28.813404" lon="105.957442"><ele>683.8813</ele><time>2026-03-27T20:40:38.000Z</time></trkpt>
        <trkpt lat="28.813367" lon="105.957474"><ele>684.8302</ele><time>2026-03-27T20:40:43.000Z</time></trkpt>
        <trkpt lat="28.813312" lon="105.957485"><ele>685.27094</ele><time>2026-03-27T20:40:52.000Z</time></trkpt>
        <trkpt lat="28.813267" lon="105.957475"><ele>685.7862</ele><time>2026-03-27T20:40:57.000Z</time></trkpt>
        <trkpt lat="28.813211" lon="105.957453"><ele>686.8098</ele><time>2026-03-27T20:41:04.000Z</time></trkpt>
        <trkpt lat="28.813163" lon="105.957451"><ele>687.6738</ele><time>2026-03-27T20:41:09.000Z</time></trkpt>
        <trkpt lat="28.813111" lon="105.957442"><ele>688.71124</ele><time>2026-03-27T20:41:16.000Z</time></trkpt>
        <trkpt lat="28.813063" lon="105.957438"><ele>689.3431</ele><time>2026-03-27T20:41:21.000Z</time></trkpt>
        <trkpt lat="28.813012" lon="105.957439"><ele>690.1505</ele><time>2026-03-27T20:41:28.000Z</time></trkpt>
        <trkpt lat="28.812966" lon="105.957425"><ele>690.60565</ele><time>2026-03-27T20:41:34.000Z</time></trkpt>
      </trkseg>
      <trkseg>
        <trkpt lat="28.81371" lon="105.958334"><ele>749.38806</ele><time>2026-03-27T20:57:51.000Z</time></trkpt>
        <trkpt lat="28.813727" lon="105.958314"><ele>749.3706</ele><time>2026-03-27T20:57:58.000Z</time></trkpt>
        <trkpt lat="28.813779" lon="105.958326"><ele>751.24786</ele><time>2026-03-27T20:58:48.000Z</time></trkpt>
        <trkpt lat="28.813822" lon="105.95831"><ele>752.58325</ele><time>2026-03-27T20:59:01.000Z</time></trkpt>
        <trkpt lat="28.813871" lon="105.958304"><ele>752.7944</ele><time>2026-03-27T20:59:08.000Z</time></trkpt>
        <trkpt lat="28.813874" lon="105.958306"><ele>753.164</ele><time>2026-03-27T20:59:09.000Z</time></trkpt>
        <trkpt lat="28.813918" lon="105.958287"><ele>752.8509</ele><time>2026-03-27T20:59:26.000Z</time></trkpt>
        <trkpt lat="28.813957" lon="105.958303"><ele>754.3328</ele><time>2026-03-27T20:59:37.000Z</time></trkpt>
        <trkpt lat="28.814006" lon="105.958305"><ele>755.43536</ele><time>2026-03-27T20:59:44.000Z</time></trkpt>
        <trkpt lat="28.814051" lon="105.95832"><ele>755.34467</ele><time>2026-03-27T20:59:49.000Z</time></trkpt>
        <trkpt lat="28.814101" lon="105.958334"><ele>755.32904</ele><time>2026-03-27T20:59:54.000Z</time></trkpt>
        <trkpt lat="28.81408" lon="105.958361"><ele>755.53235</ele><time>2026-03-27T21:00:02.000Z</time></trkpt>
        <trkpt lat="28.814032" lon="105.958358"><ele>755.6891</ele><time>2026-03-27T21:00:06.000Z</time></trkpt>
        <trkpt lat="28.814038" lon="105.958323"><ele>756.06885</ele><time>2026-03-27T21:00:11.000Z</time></trkpt>
        <trkpt lat="28.814086" lon="105.958343"><ele>757.34625</ele><time>2026-03-27T21:00:39.000Z</time></trkpt>
        <trkpt lat="28.814123" lon="105.958346"><ele>757.596</ele><time>2026-03-27T21:00:43.000Z</time></trkpt>
        <trkpt lat="28.81418" lon="105.958343"><ele>759.10095</ele><time>2026-03-27T21:00:59.000Z</time></trkpt>
        <trkpt lat="28.814218" lon="105.958353"><ele>759.6596</ele><time>2026-03-27T21:01:06.000Z</time></trkpt>
        <trkpt lat="28.81427" lon="105.958336"><ele>763.8389</ele><time>2026-03-27T21:01:40.000Z</time></trkpt>
        <trkpt lat="28.814295" lon="105.958313"><ele>763.8261</ele><time>2026-03-27T21:01:44.000Z</time></trkpt>
        <trkpt lat="28.81435" lon="105.958299"><ele>764.1711</ele><time>2026-03-27T21:01:52.000Z</time></trkpt>
        <trkpt lat="28.814396" lon="105.958277"><ele>764.4327</ele><time>2026-03-27T21:02:02.000Z</time></trkpt>
        <trkpt lat="28.814431" lon="105.958246"><ele>764.32086</ele><time>2026-03-27T21:02:09.000Z</time></trkpt>
        <trkpt lat="28.814467" lon="105.958216"><ele>764.31055</ele><time>2026-03-27T21:02:15.000Z</time></trkpt>
        <trkpt lat="28.814493" lon="105.958246"><ele>764.4061</ele><time>2026-03-27T21:02:20.000Z</time></trkpt>
        <trkpt lat="28.814539" lon="105.958259"><ele>765.33606</ele><time>2026-03-27T21:02:52.000Z</time></trkpt>
        <trkpt lat="28.814572" lon="105.958222"><ele>766.0052</ele><time>2026-03-27T21:03:33.000Z</time></trkpt>
        <trkpt lat="28.814564" lon="105.95817"><ele>764.0279</ele><time>2026-03-27T21:04:33.000Z</time></trkpt>
        <trkpt lat="28.814603" lon="105.958139"><ele>764.184</ele><time>2026-03-27T21:05:08.000Z</time></trkpt>
        <trkpt lat="28.814629" lon="105.958107"><ele>764.7492</ele><time>2026-03-27T21:05:14.000Z</time></trkpt>
        <trkpt lat="28.814626" lon="105.958041"><ele>766.11053</ele><time>2026-03-27T21:05:27.000Z</time></trkpt>
        <trkpt lat="28.814635" lon="105.957992"><ele>766.9824</ele><time>2026-03-27T21:05:34.000Z</time></trkpt>
        <trkpt lat="28.814672" lon="105.957953"><ele>767.73517</ele><time>2026-03-27T21:05:43.000Z</time></trkpt>
        <trkpt lat="28.81472" lon="105.957941"><ele>769.9905</ele><time>2026-03-27T21:06:04.000Z</time></trkpt>
        <trkpt lat="28.814744" lon="105.95789"><ele>770.8734</ele><time>2026-03-27T21:06:16.000Z</time></trkpt>
        <trkpt lat="28.814767" lon="105.957838"><ele>772.352</ele><time>2026-03-27T21:06:26.000Z</time></trkpt>
        <trkpt lat="28.814783" lon="105.957884"><ele>774.0034</ele><time>2026-03-27T21:06:40.000Z</time></trkpt>
        <trkpt lat="28.81482" lon="105.95792"><ele>775.19934</ele><time>2026-03-27T21:06:53.000Z</time></trkpt>
        <trkpt lat="28.814846" lon="105.957959"><ele>775.6897</ele><time>2026-03-27T21:07:04.000Z</time></trkpt>
        <trkpt lat="28.814811" lon="105.957995"><ele>778.0253</ele><time>2026-03-27T21:07:37.000Z</time></trkpt>
        <trkpt lat="28.814761" lon="105.958009"><ele>778.7288</ele><time>2026-03-27T21:08:26.000Z</time></trkpt>
        <trkpt lat="28.814786" lon="105.958057"><ele>780.1715</ele><time>2026-03-27T21:08:42.000Z</time></trkpt>
        <trkpt lat="28.814787" lon="105.958116"><ele>780.9974</ele><time>2026-03-27T21:08:48.000Z</time></trkpt>
        <trkpt lat="28.814802" lon="105.958152"><ele>781.3615</ele><time>2026-03-27T21:08:50.000Z</time></trkpt>
        <trkpt lat="28.814847" lon="105.958171"><ele>781.76056</ele><time>2026-03-27T21:08:55.000Z</time></trkpt>
        <trkpt lat="28.814849" lon="105.958078"><ele>783.25397</ele><time>2026-03-27T21:09:09.000Z</time></trkpt>
        <trkpt lat="28.814829" lon="105.95802"><ele>782.4317</ele><time>2026-03-27T21:09:33.000Z</time></trkpt>
        <trkpt lat="28.81487" lon="105.957998"><ele>784.9834</ele><time>2026-03-27T21:10:02.000Z</time></trkpt>
        <trkpt lat="28.814914" lon="105.957975"><ele>786.3708</ele><time>2026-03-27T21:11:10.000Z</time></trkpt>
        <trkpt lat="28.814938" lon="105.958019"><ele>782.3903</ele><time>2026-03-27T21:14:20.000Z</time></trkpt>
        <trkpt lat="28.814961" lon="105.958049"><ele>783.5334</ele><time>2026-03-27T21:14:27.000Z</time></trkpt>
        <trkpt lat="28.815009" lon="105.958076"><ele>785.73914</ele><time>2026-03-27T21:14:47.000Z</time></trkpt>
        <trkpt lat="28.815032" lon="105.958038"><ele>785.9615</ele><time>2026-03-27T21:14:53.000Z</time></trkpt>
        <trkpt lat="28.81501" lon="105.958076"><ele>787.3609</ele><time>2026-03-27T21:15:09.000Z</time></trkpt>
        <trkpt lat="28.815052" lon="105.958055"><ele>788.61975</ele><time>2026-03-27T21:17:05.000Z</time></trkpt>
        <trkpt lat="28.8151" lon="105.958045"><ele>788.7441</ele><time>2026-03-27T21:17:19.000Z</time></trkpt>
        <trkpt lat="28.815051" lon="105.958062"><ele>788.949</ele><time>2026-03-27T21:18:16.000Z</time></trkpt>
        <trkpt lat="28.815" lon="105.958066"><ele>790.3099</ele><time>2026-03-27T21:18:40.000Z</time></trkpt>
        <trkpt lat="28.814967" lon="105.958094"><ele>791.2128</ele><time>2026-03-27T21:18:46.000Z</time></trkpt>
        <trkpt lat="28.814969" lon="105.958152"><ele>797.1649</ele><time>2026-03-27T21:19:31.000Z</time></trkpt>
        <trkpt lat="28.815023" lon="105.958145"><ele>800.4486</ele><time>2026-03-27T21:20:38.000Z</time></trkpt>
        <trkpt lat="28.815072" lon="105.958141"><ele>802.54047</ele><time>2026-03-27T21:20:55.000Z</time></trkpt>
        <trkpt lat="28.81512" lon="105.95816"><ele>803.0395</ele><time>2026-03-27T21:21:02.000Z</time></trkpt>
        <trkpt lat="28.815156" lon="105.958213"><ele>803.08813</ele><time>2026-03-27T21:21:15.000Z</time></trkpt>
        <trkpt lat="28.815197" lon="105.958232"><ele>803.67303</ele><time>2026-03-27T21:21:29.000Z</time></trkpt>
        <trkpt lat="28.815247" lon="105.958231"><ele>804.1728</ele><time>2026-03-27T21:21:53.000Z</time></trkpt>
        <trkpt lat="28.815309" lon="105.958207"><ele>804.2466</ele><time>2026-03-27T21:22:14.000Z</time></trkpt>
        <trkpt lat="28.815353" lon="105.958218"><ele>804.5999</ele><time>2026-03-27T21:22:19.000Z</time></trkpt>
        <trkpt lat="28.815404" lon="105.958233"><ele>805.08936</ele><time>2026-03-27T21:22:26.000Z</time></trkpt>
        <trkpt lat="28.815453" lon="105.958248"><ele>805.55145</ele><time>2026-03-27T21:22:33.000Z</time></trkpt>
        <trkpt lat="28.81549" lon="105.958284"><ele>807.1236</ele><time>2026-03-27T21:22:53.000Z</time></trkpt>
        <trkpt lat="28.815538" lon="105.95824"><ele>808.77246</ele><time>2026-03-27T21:23:09.000Z</time></trkpt>
        <trkpt lat="28.81558" lon="105.958209"><ele>808.3258</ele><time>2026-03-27T21:23:21.000Z</time></trkpt>
        <trkpt lat="28.815612" lon="105.958175"><ele>808.7506</ele><time>2026-03-27T21:23:29.000Z</time></trkpt>
        <trkpt lat="28.815651" lon="105.958133"><ele>809.4387</ele><time>2026-03-27T21:23:37.000Z</time></trkpt>
        <trkpt lat="28.815693" lon="105.958117"><ele>809.00867</ele><time>2026-03-27T21:23:42.000Z</time></trkpt>
        <trkpt lat="28.815741" lon="105.958105"><ele>808.88654</ele><time>2026-03-27T21:23:47.000Z</time></trkpt>
        <trkpt lat="28.81579" lon="105.958126"><ele>809.4653</ele><time>2026-03-27T21:23:57.000Z</time></trkpt>
        <trkpt lat="28.815842" lon="105.958141"><ele>810.41766</ele><time>2026-03-27T21:24:26.000Z</time></trkpt>
        <trkpt lat="28.815886" lon="105.958125"><ele>810.2585</ele><time>2026-03-27T21:24:44.000Z</time></trkpt>
        <trkpt lat="28.815926" lon="105.958097"><ele>809.64105</ele><time>2026-03-27T21:24:52.000Z</time></trkpt>
        <trkpt lat="28.815968" lon="105.958099"><ele>809.8565</ele><time>2026-03-27T21:24:57.000Z</time></trkpt>
        <trkpt lat="28.816018" lon="105.958096"><ele>809.8062</ele><time>2026-03-27T21:25:03.000Z</time></trkpt>
        <trkpt lat="28.816051" lon="105.958063"><ele>809.7858</ele><time>2026-03-27T21:25:08.000Z</time></trkpt>
        <trkpt lat="28.816098" lon="105.958053"><ele>809.8778</ele><time>2026-03-27T21:25:15.000Z</time></trkpt>
        <trkpt lat="28.816146" lon="105.95805"><ele>810.11066</ele><time>2026-03-27T21:25:22.000Z</time></trkpt>
        <trkpt lat="28.816192" lon="105.95805"><ele>810.60266</ele><time>2026-03-27T21:25:28.000Z</time></trkpt>
        <trkpt lat="28.81624" lon="105.958031"><ele>811.21045</ele><time>2026-03-27T21:25:36.000Z</time></trkpt>
        <trkpt lat="28.816287" lon="105.958049"><ele>811.3785</ele><time>2026-03-27T21:25:50.000Z</time></trkpt>
        <trkpt lat="28.816325" lon="105.95802"><ele>811.7285</ele><time>2026-03-27T21:26:19.000Z</time></trkpt>
        <trkpt lat="28.816367" lon="105.958008"><ele>810.95703</ele><time>2026-03-27T21:26:28.000Z</time></trkpt>
        <trkpt lat="28.81641" lon="105.957995"><ele>811.0328</ele><time>2026-03-27T21:26:33.000Z</time></trkpt>
        <trkpt lat="28.816454" lon="105.957968"><ele>811.5348</ele><time>2026-03-27T21:26:39.000Z</time></trkpt>
        <trkpt lat="28.816503" lon="105.957954"><ele>812.23584</ele><time>2026-03-27T21:26:48.000Z</time></trkpt>
        <trkpt lat="28.81655" lon="105.957946"><ele>811.90173</ele><time>2026-03-27T21:27:12.000Z</time></trkpt>
        <trkpt lat="28.816588" lon="105.957951"><ele>811.2456</ele><time>2026-03-27T21:27:20.000Z</time></trkpt>
        <trkpt lat="28.816637" lon="105.95796"><ele>811.74536</ele><time>2026-03-27T21:27:28.000Z</time></trkpt>
        <trkpt lat="28.816704" lon="105.957961"><ele>811.8305</ele><time>2026-03-27T21:27:38.000Z</time></trkpt>
        <trkpt lat="28.816744" lon="105.957992"><ele>812.3707</ele><time>2026-03-27T21:27:53.000Z</time></trkpt>
        <trkpt lat="28.816785" lon="105.957974"><ele>811.9482</ele><time>2026-03-27T21:28:16.000Z</time></trkpt>
        <trkpt lat="28.816831" lon="105.957963"><ele>811.17413</ele><time>2026-03-27T21:28:21.000Z</time></trkpt>
        <trkpt lat="28.816889" lon="105.957961"><ele>812.3665</ele><time>2026-03-27T21:28:31.000Z</time></trkpt>
        <trkpt lat="28.816932" lon="105.957973"><ele>812.0448</ele><time>2026-03-27T21:28:36.000Z</time></trkpt>
        <trkpt lat="28.816967" lon="105.957943"><ele>811.04065</ele><time>2026-03-27T21:28:43.000Z</time></trkpt>
        <trkpt lat="28.817001" lon="105.957906"><ele>809.9837</ele><time>2026-03-27T21:28:49.000Z</time></trkpt>
        <trkpt lat="28.817047" lon="105.957884"><ele>809.08325</ele><time>2026-03-27T21:28:55.000Z</time></trkpt>
        <trkpt lat="28.817099" lon="105.957866"><ele>809.02515</ele><time>2026-03-27T21:29:03.000Z</time></trkpt>
        <trkpt lat="28.817152" lon="105.957867"><ele>808.64343</ele><time>2026-03-27T21:29:16.000Z</time></trkpt>
        <trkpt lat="28.817193" lon="105.957873"><ele>809.0144</ele><time>2026-03-27T21:29:21.000Z</time></trkpt>
        <trkpt lat="28.817233" lon="105.957878"><ele>809.4902</ele><time>2026-03-27T21:29:24.000Z</time></trkpt>
        <trkpt lat="28.817296" lon="105.957876"><ele>808.9389</ele><time>2026-03-27T21:29:31.000Z</time></trkpt>
        <trkpt lat="28.817344" lon="105.95786"><ele>807.6376</ele><time>2026-03-27T21:29:46.000Z</time></trkpt>
        <trkpt lat="28.817392" lon="105.95785"><ele>806.94196</ele><time>2026-03-27T21:30:13.000Z</time></trkpt>
        <trkpt lat="28.81742" lon="105.957819"><ele>806.5734</ele><time>2026-03-27T21:30:20.000Z</time></trkpt>
        <trkpt lat="28.817465" lon="105.957796"><ele>805.9024</ele><time>2026-03-27T21:30:31.000Z</time></trkpt>
        <trkpt lat="28.817509" lon="105.957775"><ele>804.2923</ele><time>2026-03-27T21:30:45.000Z</time></trkpt>
        <trkpt lat="28.817549" lon="105.957748"><ele>804.8345</ele><time>2026-03-27T21:30:59.000Z</time></trkpt>
        <trkpt lat="28.817595" lon="105.957766"><ele>805.4734</ele><time>2026-03-27T21:31:14.000Z</time></trkpt>
        <trkpt lat="28.817616" lon="105.95772"><ele>806.83673</ele><time>2026-03-27T21:31:30.000Z</time></trkpt>
        <trkpt lat="28.81766" lon="105.95769"><ele>806.91254</ele><time>2026-03-27T21:31:39.000Z</time></trkpt>
        <trkpt lat="28.817708" lon="105.957698"><ele>806.47144</ele><time>2026-03-27T21:31:45.000Z</time></trkpt>
        <trkpt lat="28.817759" lon="105.957724"><ele>805.6931</ele><time>2026-03-27T21:31:53.000Z</time></trkpt>
        <trkpt lat="28.8178" lon="105.957764"><ele>806.3228</ele><time>2026-03-27T21:32:01.000Z</time></trkpt>
        <trkpt lat="28.817844" lon="105.957768"><ele>807.1078</ele><time>2026-03-27T21:32:06.000Z</time></trkpt>
        <trkpt lat="28.817896" lon="105.95778"><ele>807.60144</ele><time>2026-03-27T21:32:24.000Z</time></trkpt>
        <trkpt lat="28.817934" lon="105.957803"><ele>808.73444</ele><time>2026-03-27T21:32:37.000Z</time></trkpt>
        <trkpt lat="28.817988" lon="105.957816"><ele>809.3994</ele><time>2026-03-27T21:33:21.000Z</time></trkpt>
        <trkpt lat="28.818027" lon="105.957844"><ele>811.55835</ele><time>2026-03-27T21:33:50.000Z</time></trkpt>
        <trkpt lat="28.81806" lon="105.957865"><ele>811.8005</ele><time>2026-03-27T21:33:54.000Z</time></trkpt>
        <trkpt lat="28.818109" lon="105.957895"><ele>811.36127</ele><time>2026-03-27T21:34:02.000Z</time></trkpt>
        <trkpt lat="28.818153" lon="105.957878"><ele>811.766</ele><time>2026-03-27T21:34:11.000Z</time></trkpt>
        <trkpt lat="28.818192" lon="105.957847"><ele>810.8647</ele><time>2026-03-27T21:34:18.000Z</time></trkpt>
        <trkpt lat="28.818234" lon="105.957821"><ele>810.25494</ele><time>2026-03-27T21:34:22.000Z</time></trkpt>
        <trkpt lat="28.818278" lon="105.957785"><ele>809.5767</ele><time>2026-03-27T21:34:28.000Z</time></trkpt>
        <trkpt lat="28.818324" lon="105.957754"><ele>810.96875</ele><time>2026-03-27T21:34:48.000Z</time></trkpt>
        <trkpt lat="28.81838" lon="105.957743"><ele>811.1485</ele><time>2026-03-27T21:34:58.000Z</time></trkpt>
        <trkpt lat="28.818434" lon="105.957755"><ele>811.5515</ele><time>2026-03-27T21:35:23.000Z</time></trkpt>
        <trkpt lat="28.818478" lon="105.957744"><ele>811.5409</ele><time>2026-03-27T21:35:41.000Z</time></trkpt>
        <trkpt lat="28.818515" lon="105.95771"><ele>810.75476</ele><time>2026-03-27T21:35:50.000Z</time></trkpt>
        <trkpt lat="28.818551" lon="105.95767"><ele>810.1417</ele><time>2026-03-27T21:36:00.000Z</time></trkpt>
        <trkpt lat="28.818588" lon="105.957634"><ele>809.9002</ele><time>2026-03-27T21:36:13.000Z</time></trkpt>
        <trkpt lat="28.818628" lon="105.957632"><ele>809.6037</ele><time>2026-03-27T21:36:19.000Z</time></trkpt>
        <trkpt lat="28.818687" lon="105.957632"><ele>809.3352</ele><time>2026-03-27T21:36:36.000Z</time></trkpt>
        <trkpt lat="28.81873" lon="105.957622"><ele>809.6623</ele><time>2026-03-27T21:36:44.000Z</time></trkpt>
        <trkpt lat="28.81877" lon="105.95758"><ele>809.7762</ele><time>2026-03-27T21:36:52.000Z</time></trkpt>
        <trkpt lat="28.818806" lon="105.957529"><ele>809.6169</ele><time>2026-03-27T21:37:08.000Z</time></trkpt>
        <trkpt lat="28.818852" lon="105.95752"><ele>810.81036</ele><time>2026-03-27T21:37:53.000Z</time></trkpt>
        <trkpt lat="28.81889" lon="105.957505"><ele>811.528</ele><time>2026-03-27T21:38:01.000Z</time></trkpt>
        <trkpt lat="28.818938" lon="105.957476"><ele>811.32874</ele><time>2026-03-27T21:38:21.000Z</time></trkpt>
        <trkpt lat="28.818986" lon="105.957481"><ele>810.75104</ele><time>2026-03-27T21:38:34.000Z</time></trkpt>
        <trkpt lat="28.819034" lon="105.957475"><ele>809.8796</ele><time>2026-03-27T21:38:45.000Z</time></trkpt>
        <trkpt lat="28.819076" lon="105.957505"><ele>808.25116</ele><time>2026-03-27T21:39:06.000Z</time></trkpt>
        <trkpt lat="28.819104" lon="105.957545"><ele>808.57477</ele><time>2026-03-27T21:39:13.000Z</time></trkpt>
        <trkpt lat="28.819142" lon="105.957555"><ele>809.0114</ele><time>2026-03-27T21:39:16.000Z</time></trkpt>
        <trkpt lat="28.819205" lon="105.957554"><ele>809.3089</ele><time>2026-03-27T21:39:25.000Z</time></trkpt>
        <trkpt lat="28.819248" lon="105.957574"><ele>809.1831</ele><time>2026-03-27T21:39:40.000Z</time></trkpt>
        <trkpt lat="28.819288" lon="105.957589"><ele>808.8285</ele><time>2026-03-27T21:39:45.000Z</time></trkpt>
        <trkpt lat="28.819344" lon="105.957586"><ele>808.60156</ele><time>2026-03-27T21:39:58.000Z</time></trkpt>
        <trkpt lat="28.819372" lon="105.957544"><ele>808.4438</ele><time>2026-03-27T21:40:13.000Z</time></trkpt>
        <trkpt lat="28.819408" lon="105.957517"><ele>807.4187</ele><time>2026-03-27T21:40:20.000Z</time></trkpt>
        <trkpt lat="28.819454" lon="105.957487"><ele>806.84357</ele><time>2026-03-27T21:40:27.000Z</time></trkpt>
        <trkpt lat="28.819501" lon="105.957454"><ele>807.8056</ele><time>2026-03-27T21:40:35.000Z</time></trkpt>
        <trkpt lat="28.819546" lon="105.957431"><ele>808.2175</ele><time>2026-03-27T21:40:44.000Z</time></trkpt>
        <trkpt lat="28.819584" lon="105.957394"><ele>808.22876</ele><time>2026-03-27T21:40:58.000Z</time></trkpt>
        <trkpt lat="28.819621" lon="105.957363"><ele>808.69867</ele><time>2026-03-27T21:41:09.000Z</time></trkpt>
        <trkpt lat="28.819661" lon="105.957335"><ele>810.77716</ele><time>2026-03-27T21:41:20.000Z</time></trkpt>
        <trkpt lat="28.819683" lon="105.95729"><ele>810.9317</ele><time>2026-03-27T21:41:33.000Z</time></trkpt>
        <trkpt lat="28.819681" lon="105.957235"><ele>811.1215</ele><time>2026-03-27T21:41:43.000Z</time></trkpt>
        <trkpt lat="28.819724" lon="105.957207"><ele>811.82855</ele><time>2026-03-27T21:42:07.000Z</time></trkpt>
        <trkpt lat="28.819763" lon="105.957206"><ele>812.13574</ele><time>2026-03-27T21:42:12.000Z</time></trkpt>
        <trkpt lat="28.819796" lon="105.957247"><ele>812.6562</ele><time>2026-03-27T21:42:33.000Z</time></trkpt>
        <trkpt lat="28.819838" lon="105.957241"><ele>813.3476</ele><time>2026-03-27T21:42:44.000Z</time></trkpt>
        <trkpt lat="28.81988" lon="105.957218"><ele>813.77094</ele><time>2026-03-27T21:42:50.000Z</time></trkpt>
        <trkpt lat="28.819931" lon="105.957195"><ele>814.11017</ele><time>2026-03-27T21:42:58.000Z</time></trkpt>
        <trkpt lat="28.819977" lon="105.957126"><ele>815.248</ele><time>2026-03-27T21:43:21.000Z</time></trkpt>
        <trkpt lat="28.820012" lon="105.957095"><ele>815.2726</ele><time>2026-03-27T21:43:43.000Z</time></trkpt>
        <trkpt lat="28.820051" lon="105.957076"><ele>816.31433</ele><time>2026-03-27T21:43:51.000Z</time></trkpt>
        <trkpt lat="28.820055" lon="105.957017"><ele>815.7377</ele><time>2026-03-27T21:44:01.000Z</time></trkpt>
        <trkpt lat="28.820052" lon="105.956968"><ele>815.0371</ele><time>2026-03-27T21:44:06.000Z</time></trkpt>
        <trkpt lat="28.820065" lon="105.956914"><ele>814.8742</ele><time>2026-03-27T21:44:13.000Z</time></trkpt>
        <trkpt lat="28.820102" lon="105.956872"><ele>814.6308</ele><time>2026-03-27T21:44:20.000Z</time></trkpt>
        <trkpt lat="28.820144" lon="105.956858"><ele>814.0221</ele><time>2026-03-27T21:44:25.000Z</time></trkpt>
        <trkpt lat="28.820198" lon="105.956844"><ele>813.03955</ele><time>2026-03-27T21:44:33.000Z</time></trkpt>
        <trkpt lat="28.820234" lon="105.956811"><ele>812.46936</ele><time>2026-03-27T21:44:40.000Z</time></trkpt>
        <trkpt lat="28.820287" lon="105.956783"><ele>813.3323</ele><time>2026-03-27T21:45:03.000Z</time></trkpt>
        <trkpt lat="28.820336" lon="105.956785"><ele>812.18005</ele><time>2026-03-27T21:45:18.000Z</time></trkpt>
        <trkpt lat="28.820385" lon="105.956774"><ele>811.30396</ele><time>2026-03-27T21:45:27.000Z</time></trkpt>
        <trkpt lat="28.820427" lon="105.956752"><ele>811.06665</ele><time>2026-03-27T21:45:34.000Z</time></trkpt>
        <trkpt lat="28.820478" lon="105.956759"><ele>810.8601</ele><time>2026-03-27T21:45:56.000Z</time></trkpt>
        <trkpt lat="28.820511" lon="105.956722"><ele>810.13776</ele><time>2026-03-27T21:46:14.000Z</time></trkpt>
        <trkpt lat="28.820541" lon="105.95676"><ele>809.2661</ele><time>2026-03-27T21:46:35.000Z</time></trkpt>
        <trkpt lat="28.820575" lon="105.956739"><ele>809.093</ele><time>2026-03-27T21:46:44.000Z</time></trkpt>
        <trkpt lat="28.82063" lon="105.956747"><ele>808.18286</ele><time>2026-03-27T21:46:58.000Z</time></trkpt>
        <trkpt lat="28.820654" lon="105.956698"><ele>807.57684</ele><time>2026-03-27T21:47:20.000Z</time></trkpt>
        <trkpt lat="28.820679" lon="105.956658"><ele>808.2656</ele><time>2026-03-27T21:47:29.000Z</time></trkpt>
        <trkpt lat="28.820728" lon="105.956672"><ele>805.2929</ele><time>2026-03-27T21:48:26.000Z</time></trkpt>
        <trkpt lat="28.820752" lon="105.956632"><ele>803.26154</ele><time>2026-03-27T21:48:40.000Z</time></trkpt>
        <trkpt lat="28.820781" lon="105.956578"><ele>802.3331</ele><time>2026-03-27T21:48:47.000Z</time></trkpt>
        <trkpt lat="28.820794" lon="105.956518"><ele>801.2956</ele><time>2026-03-27T21:48:55.000Z</time></trkpt>
        <trkpt lat="28.820823" lon="105.956484"><ele>800.5092</ele><time>2026-03-27T21:49:00.000Z</time></trkpt>
        <trkpt lat="28.820851" lon="105.95656"><ele>800.8308</ele><time>2026-03-27T21:49:18.000Z</time></trkpt>
      </trkseg>
      <trkseg>
        <trkpt lat="28.820745" lon="105.956801"><ele>814.4965</ele><time>2026-03-27T21:53:57.000Z</time></trkpt>
        <trkpt lat="28.820793" lon="105.956812"><ele>815.7451</ele><time>2026-03-27T21:54:45.000Z</time></trkpt>
        <trkpt lat="28.820829" lon="105.956796"><ele>816.4522</ele><time>2026-03-27T21:54:51.000Z</time></trkpt>
        <trkpt lat="28.820881" lon="105.956757"><ele>818.4498</ele><time>2026-03-27T21:55:06.000Z</time></trkpt>
        <trkpt lat="28.820921" lon="105.956723"><ele>820.7483</ele><time>2026-03-27T21:55:22.000Z</time></trkpt>
        <trkpt lat="28.820969" lon="105.956729"><ele>822.1037</ele><time>2026-03-27T21:55:59.000Z</time></trkpt>
        <trkpt lat="28.820967" lon="105.956682"><ele>822.5832</ele><time>2026-03-27T21:56:09.000Z</time></trkpt>
        <trkpt lat="28.820966" lon="105.95672"><ele>823.6988</ele><time>2026-03-27T21:56:16.000Z</time></trkpt>
        <trkpt lat="28.820988" lon="105.956781"><ele>824.5627</ele><time>2026-03-27T21:56:45.000Z</time></trkpt>
        <trkpt lat="28.821028" lon="105.956817"><ele>826.9193</ele><time>2026-03-27T21:58:40.000Z</time></trkpt>
        <trkpt lat="28.821003" lon="105.95686"><ele>828.6657</ele><time>2026-03-27T21:58:50.000Z</time></trkpt>
        <trkpt lat="28.820955" lon="105.95687"><ele>830.4041</ele><time>2026-03-27T21:59:07.000Z</time></trkpt>
        <trkpt lat="28.820949" lon="105.95692"><ele>834.43567</ele><time>2026-03-27T22:00:55.000Z</time></trkpt>
        <trkpt lat="28.820938" lon="105.956972"><ele>836.6256</ele><time>2026-03-27T22:01:16.000Z</time></trkpt>
        <trkpt lat="28.820917" lon="105.957024"><ele>839.2789</ele><time>2026-03-27T22:01:51.000Z</time></trkpt>
        <trkpt lat="28.820893" lon="105.957074"><ele>841.41345</ele><time>2026-03-27T22:02:10.000Z</time></trkpt>
        <trkpt lat="28.820871" lon="105.95712"><ele>843.73706</ele><time>2026-03-27T22:02:32.000Z</time></trkpt>
        <trkpt lat="28.820829" lon="105.957124"><ele>844.8356</ele><time>2026-03-27T22:02:41.000Z</time></trkpt>
        <trkpt lat="28.820837" lon="105.957175"><ele>846.216</ele><time>2026-03-27T22:03:18.000Z</time></trkpt>
        <trkpt lat="28.820843" lon="105.957125"><ele>847.73193</ele><time>2026-03-27T22:03:34.000Z</time></trkpt>
        <trkpt lat="28.820889" lon="105.957119"><ele>850.8922</ele><time>2026-03-27T22:04:08.000Z</time></trkpt>
        <trkpt lat="28.82092" lon="105.957077"><ele>851.4088</ele><time>2026-03-27T22:04:22.000Z</time></trkpt>
        <trkpt lat="28.820953" lon="105.957106"><ele>852.58905</ele><time>2026-03-27T22:04:38.000Z</time></trkpt>
        <trkpt lat="28.821002" lon="105.957108"><ele>853.80615</ele><time>2026-03-27T22:04:47.000Z</time></trkpt>
        <trkpt lat="28.821048" lon="105.957091"><ele>854.9103</ele><time>2026-03-27T22:04:56.000Z</time></trkpt>
        <trkpt lat="28.821092" lon="105.957081"><ele>855.57043</ele><time>2026-03-27T22:05:03.000Z</time></trkpt>
        <trkpt lat="28.821133" lon="105.957095"><ele>855.87665</ele><time>2026-03-27T22:05:08.000Z</time></trkpt>
        <trkpt lat="28.821185" lon="105.957089"><ele>856.0522</ele><time>2026-03-27T22:05:17.000Z</time></trkpt>
        <trkpt lat="28.821221" lon="105.957056"><ele>856.7245</ele><time>2026-03-27T22:05:24.000Z</time></trkpt>
        <trkpt lat="28.82125" lon="105.957002"><ele>857.4368</ele><time>2026-03-27T22:05:33.000Z</time></trkpt>
        <trkpt lat="28.821293" lon="105.956971"><ele>857.9685</ele><time>2026-03-27T22:05:43.000Z</time></trkpt>
        <trkpt lat="28.821337" lon="105.95695"><ele>857.9808</ele><time>2026-03-27T22:05:49.000Z</time></trkpt>
        <trkpt lat="28.821389" lon="105.956947"><ele>858.57196</ele><time>2026-03-27T22:05:55.000Z</time></trkpt>
        <trkpt lat="28.821437" lon="105.956975"><ele>858.8593</ele><time>2026-03-27T22:06:02.000Z</time></trkpt>
        <trkpt lat="28.821471" lon="105.95701"><ele>858.54803</ele><time>2026-03-27T22:06:07.000Z</time></trkpt>
        <trkpt lat="28.821503" lon="105.957059"><ele>858.2794</ele><time>2026-03-27T22:06:13.000Z</time></trkpt>
        <trkpt lat="28.821521" lon="105.957107"><ele>858.39667</ele><time>2026-03-27T22:06:17.000Z</time></trkpt>
        <trkpt lat="28.821547" lon="105.957155"><ele>858.27203</ele><time>2026-03-27T22:06:22.000Z</time></trkpt>
        <trkpt lat="28.82158" lon="105.957204"><ele>858.7864</ele><time>2026-03-27T22:06:29.000Z</time></trkpt>
        <trkpt lat="28.821625" lon="105.957223"><ele>859.0488</ele><time>2026-03-27T22:06:42.000Z</time></trkpt>
        <trkpt lat="28.821644" lon="105.957259"><ele>858.81885</ele><time>2026-03-27T22:06:49.000Z</time></trkpt>
        <trkpt lat="28.821665" lon="105.957315"><ele>858.26166</ele><time>2026-03-27T22:06:57.000Z</time></trkpt>
        <trkpt lat="28.821695" lon="105.957356"><ele>858.03784</ele><time>2026-03-27T22:07:03.000Z</time></trkpt>
        <trkpt lat="28.821735" lon="105.957387"><ele>858.52136</ele><time>2026-03-27T22:07:08.000Z</time></trkpt>
        <trkpt lat="28.821779" lon="105.957417"><ele>859.5859</ele><time>2026-03-27T22:07:15.000Z</time></trkpt>
        <trkpt lat="28.821822" lon="105.95742"><ele>860.5454</ele><time>2026-03-27T22:07:21.000Z</time></trkpt>
        <trkpt lat="28.821859" lon="105.957453"><ele>862.8222</ele><time>2026-03-27T22:07:39.000Z</time></trkpt>
        <trkpt lat="28.821867" lon="105.957508"><ele>864.9903</ele><time>2026-03-27T22:07:55.000Z</time></trkpt>
        <trkpt lat="28.821904" lon="105.957536"><ele>865.28326</ele><time>2026-03-27T22:08:05.000Z</time></trkpt>
        <trkpt lat="28.821938" lon="105.957568"><ele>865.7195</ele><time>2026-03-27T22:08:11.000Z</time></trkpt>
        <trkpt lat="28.821962" lon="105.957619"><ele>866.27496</ele><time>2026-03-27T22:08:41.000Z</time></trkpt>
        <trkpt lat="28.821987" lon="105.957662"><ele>866.19556</ele><time>2026-03-27T22:08:58.000Z</time></trkpt>
        <trkpt lat="28.822025" lon="105.957699"><ele>866.1743</ele><time>2026-03-27T22:09:05.000Z</time></trkpt>
        <trkpt lat="28.822073" lon="105.957724"><ele>865.3461</ele><time>2026-03-27T22:09:14.000Z</time></trkpt>
        <trkpt lat="28.822097" lon="105.957764"><ele>865.0907</ele><time>2026-03-27T22:09:19.000Z</time></trkpt>
        <trkpt lat="28.822129" lon="105.95781"><ele>864.7823</ele><time>2026-03-27T22:09:26.000Z</time></trkpt>
        <trkpt lat="28.822162" lon="105.957858"><ele>864.03436</ele><time>2026-03-27T22:09:33.000Z</time></trkpt>
        <trkpt lat="28.822188" lon="105.957902"><ele>863.8753</ele><time>2026-03-27T22:09:38.000Z</time></trkpt>
        <trkpt lat="28.822185" lon="105.957957"><ele>862.60077</ele><time>2026-03-27T22:09:46.000Z</time></trkpt>
        <trkpt lat="28.822181" lon="105.958016"><ele>861.29834</ele><time>2026-03-27T22:09:54.000Z</time></trkpt>
        <trkpt lat="28.822172" lon="105.958069"><ele>860.4387</ele><time>2026-03-27T22:10:00.000Z</time></trkpt>
        <trkpt lat="28.822155" lon="105.958123"><ele>859.7287</ele><time>2026-03-27T22:10:08.000Z</time></trkpt>
        <trkpt lat="28.822143" lon="105.958174"><ele>859.3298</ele><time>2026-03-27T22:10:14.000Z</time></trkpt>
        <trkpt lat="28.822135" lon="105.958228"><ele>858.89136</ele><time>2026-03-27T22:10:20.000Z</time></trkpt>
        <trkpt lat="28.822145" lon="105.958287"><ele>856.28064</ele><time>2026-03-27T22:10:44.000Z</time></trkpt>
        <trkpt lat="28.822157" lon="105.958337"><ele>855.06757</ele><time>2026-03-27T22:10:55.000Z</time></trkpt>
        <trkpt lat="28.822148" lon="105.958395"><ele>854.39703</ele><time>2026-03-27T22:11:03.000Z</time></trkpt>
        <trkpt lat="28.822148" lon="105.95845"><ele>852.5602</ele><time>2026-03-27T22:11:16.000Z</time></trkpt>
        <trkpt lat="28.822157" lon="105.9585"><ele>850.937</ele><time>2026-03-27T22:11:32.000Z</time></trkpt>
        <trkpt lat="28.822156" lon="105.958554"><ele>850.3412</ele><time>2026-03-27T22:11:42.000Z</time></trkpt>
        <trkpt lat="28.822201" lon="105.958565"><ele>850.9325</ele><time>2026-03-27T22:11:53.000Z</time></trkpt>
        <trkpt lat="28.822261" lon="105.958542"><ele>852.2963</ele><time>2026-03-27T22:12:07.000Z</time></trkpt>
        <trkpt lat="28.822299" lon="105.958574"><ele>852.69116</ele><time>2026-03-27T22:12:21.000Z</time></trkpt>
        <trkpt lat="28.82233" lon="105.958608"><ele>852.53955</ele><time>2026-03-27T22:12:28.000Z</time></trkpt>
        <trkpt lat="28.822357" lon="105.958648"><ele>851.64374</ele><time>2026-03-27T22:12:33.000Z</time></trkpt>
        <trkpt lat="28.82238" lon="105.958691"><ele>851.6033</ele><time>2026-03-27T22:12:37.000Z</time></trkpt>
        <trkpt lat="28.822383" lon="105.958758"><ele>851.7056</ele><time>2026-03-27T22:12:49.000Z</time></trkpt>
        <trkpt lat="28.822398" lon="105.958805"><ele>852.3634</ele><time>2026-03-27T22:12:59.000Z</time></trkpt>
        <trkpt lat="28.822426" lon="105.958852"><ele>853.18835</ele><time>2026-03-27T22:13:09.000Z</time></trkpt>
        <trkpt lat="28.82246" lon="105.958888"><ele>854.5342</ele><time>2026-03-27T22:13:18.000Z</time></trkpt>
        <trkpt lat="28.822504" lon="105.958916"><ele>855.5475</ele><time>2026-03-27T22:13:30.000Z</time></trkpt>
        <trkpt lat="28.822538" lon="105.958951"><ele>857.146</ele><time>2026-03-27T22:13:44.000Z</time></trkpt>
        <trkpt lat="28.822556" lon="105.959004"><ele>857.77045</ele><time>2026-03-27T22:13:55.000Z</time></trkpt>
        <trkpt lat="28.822596" lon="105.959041"><ele>859.7138</ele><time>2026-03-27T22:14:14.000Z</time></trkpt>
        <trkpt lat="28.822642" lon="105.959031"><ele>862.09564</ele><time>2026-03-27T22:14:32.000Z</time></trkpt>
        <trkpt lat="28.822672" lon="105.959062"><ele>863.2605</ele><time>2026-03-27T22:14:40.000Z</time></trkpt>
        <trkpt lat="28.82269" lon="105.959117"><ele>864.9468</ele><time>2026-03-27T22:15:02.000Z</time></trkpt>
        <trkpt lat="28.822712" lon="105.959158"><ele>866.1267</ele><time>2026-03-27T22:15:13.000Z</time></trkpt>
        <trkpt lat="28.822706" lon="105.95921"><ele>866.7415</ele><time>2026-03-27T22:15:22.000Z</time></trkpt>
        <trkpt lat="28.822749" lon="105.95922"><ele>862.1357</ele><time>2026-03-27T22:16:23.000Z</time></trkpt>
        <trkpt lat="28.822783" lon="105.959253"><ele>861.6356</ele><time>2026-03-27T22:16:29.000Z</time></trkpt>
        <trkpt lat="28.822822" lon="105.959295"><ele>861.3354</ele><time>2026-03-27T22:16:33.000Z</time></trkpt>
        <trkpt lat="28.822858" lon="105.959348"><ele>861.0523</ele><time>2026-03-27T22:16:38.000Z</time></trkpt>
        <trkpt lat="28.822885" lon="105.959399"><ele>860.66095</ele><time>2026-03-27T22:16:44.000Z</time></trkpt>
        <trkpt lat="28.822914" lon="105.959439"><ele>860.2454</ele><time>2026-03-27T22:16:49.000Z</time></trkpt>
        <trkpt lat="28.822947" lon="105.959474"><ele>859.8912</ele><time>2026-03-27T22:16:52.000Z</time></trkpt>
        <trkpt lat="28.822992" lon="105.959516"><ele>859.6151</ele><time>2026-03-27T22:16:56.000Z</time></trkpt>
        <trkpt lat="28.823043" lon="105.959556"><ele>858.9903</ele><time>2026-03-27T22:17:06.000Z</time></trkpt>
        <trkpt lat="28.823084" lon="105.959551"><ele>859.43414</ele><time>2026-03-27T22:17:13.000Z</time></trkpt>
        <trkpt lat="28.823099" lon="105.959599"><ele>858.15015</ele><time>2026-03-27T22:17:39.000Z</time></trkpt>
        <trkpt lat="28.823072" lon="105.959643"><ele>858.13354</ele><time>2026-03-27T22:18:08.000Z</time></trkpt>
        <trkpt lat="28.823099" lon="105.959672"><ele>857.71606</ele><time>2026-03-27T22:18:14.000Z</time></trkpt>
        <trkpt lat="28.823143" lon="105.95967"><ele>858.0263</ele><time>2026-03-27T22:18:19.000Z</time></trkpt>
        <trkpt lat="28.823188" lon="105.959666"><ele>858.5193</ele><time>2026-03-27T22:18:23.000Z</time></trkpt>
        <trkpt lat="28.823243" lon="105.959637"><ele>859.08905</ele><time>2026-03-27T22:18:37.000Z</time></trkpt>
        <trkpt lat="28.823267" lon="105.959689"><ele>862.0498</ele><time>2026-03-27T22:19:08.000Z</time></trkpt>
        <trkpt lat="28.823258" lon="105.95974"><ele>862.4497</ele><time>2026-03-27T22:19:21.000Z</time></trkpt>
        <trkpt lat="28.823207" lon="105.959755"><ele>864.6406</ele><time>2026-03-27T22:19:54.000Z</time></trkpt>
        <trkpt lat="28.823154" lon="105.959746"><ele>865.07825</ele><time>2026-03-27T22:20:16.000Z</time></trkpt>
        <trkpt lat="28.82311" lon="105.95975"><ele>864.86035</ele><time>2026-03-27T22:20:26.000Z</time></trkpt>
        <trkpt lat="28.82307" lon="105.959781"><ele>865.0246</ele><time>2026-03-27T22:20:38.000Z</time></trkpt>
        <trkpt lat="28.823023" lon="105.959779"><ele>866.64343</ele><time>2026-03-27T22:20:51.000Z</time></trkpt>
        <trkpt lat="28.822969" lon="105.959791"><ele>867.2095</ele><time>2026-03-27T22:21:07.000Z</time></trkpt>
        <trkpt lat="28.822925" lon="105.9598"><ele>866.9757</ele><time>2026-03-27T22:21:16.000Z</time></trkpt>
        <trkpt lat="28.822883" lon="105.959827"><ele>866.4436</ele><time>2026-03-27T22:21:44.000Z</time></trkpt>
        <trkpt lat="28.822871" lon="105.959883"><ele>865.224</ele><time>2026-03-27T22:22:06.000Z</time></trkpt>
        <trkpt lat="28.822851" lon="105.959932"><ele>865.7108</ele><time>2026-03-27T22:24:30.000Z</time></trkpt>
        <trkpt lat="28.822883" lon="105.959971"><ele>866.60706</ele><time>2026-03-27T22:25:57.000Z</time></trkpt>
        <trkpt lat="28.822866" lon="105.96002"><ele>865.1343</ele><time>2026-03-27T22:26:10.000Z</time></trkpt>
        <trkpt lat="28.822865" lon="105.960081"><ele>863.82</ele><time>2026-03-27T22:27:17.000Z</time></trkpt>
        <trkpt lat="28.822901" lon="105.960124"><ele>863.8885</ele><time>2026-03-27T22:27:37.000Z</time></trkpt>
        <trkpt lat="28.822909" lon="105.960183"><ele>863.5053</ele><time>2026-03-27T22:27:45.000Z</time></trkpt>
        <trkpt lat="28.822917" lon="105.960244"><ele>863.88745</ele><time>2026-03-27T22:28:04.000Z</time></trkpt>
        <trkpt lat="28.822952" lon="105.960277"><ele>865.06866</ele><time>2026-03-27T22:28:18.000Z</time></trkpt>
        <trkpt lat="28.822944" lon="105.96033"><ele>865.976</ele><time>2026-03-27T22:28:38.000Z</time></trkpt>
        <trkpt lat="28.822896" lon="105.960337"><ele>867.1846</ele><time>2026-03-27T22:28:55.000Z</time></trkpt>
        <trkpt lat="28.822851" lon="105.960355"><ele>870.0503</ele><time>2026-03-27T22:29:25.000Z</time></trkpt>
        <trkpt lat="28.822815" lon="105.960353"><ele>870.202</ele><time>2026-03-27T22:29:30.000Z</time></trkpt>
        <trkpt lat="28.822773" lon="105.960387"><ele>871.35846</ele><time>2026-03-27T22:29:44.000Z</time></trkpt>
        <trkpt lat="28.822728" lon="105.96038"><ele>872.1482</ele><time>2026-03-27T22:29:53.000Z</time></trkpt>
        <trkpt lat="28.822673" lon="105.960362"><ele>872.71594</ele><time>2026-03-27T22:30:08.000Z</time></trkpt>
        <trkpt lat="28.822655" lon="105.96041"><ele>873.5584</ele><time>2026-03-27T22:30:21.000Z</time></trkpt>
        <trkpt lat="28.822627" lon="105.960465"><ele>874.30725</ele><time>2026-03-27T22:30:35.000Z</time></trkpt>
        <trkpt lat="28.822591" lon="105.960501"><ele>874.763</ele><time>2026-03-27T22:31:05.000Z</time></trkpt>
        <trkpt lat="28.822609" lon="105.96054"><ele>874.9149</ele><time>2026-03-27T22:31:12.000Z</time></trkpt>
        <trkpt lat="28.822617" lon="105.960601"><ele>875.20123</ele><time>2026-03-27T22:31:23.000Z</time></trkpt>
        <trkpt lat="28.822611" lon="105.960655"><ele>874.5374</ele><time>2026-03-27T22:31:29.000Z</time></trkpt>
        <trkpt lat="28.822625" lon="105.960719"><ele>875.328</ele><time>2026-03-27T22:31:42.000Z</time></trkpt>
        <trkpt lat="28.822623" lon="105.960771"><ele>875.95715</ele><time>2026-03-27T22:31:49.000Z</time></trkpt>
        <trkpt lat="28.822624" lon="105.960829"><ele>875.92426</ele><time>2026-03-27T22:31:57.000Z</time></trkpt>
        <trkpt lat="28.822601" lon="105.960875"><ele>875.90576</ele><time>2026-03-27T22:32:06.000Z</time></trkpt>
        <trkpt lat="28.82259" lon="105.960926"><ele>875.5678</ele><time>2026-03-27T22:32:15.000Z</time></trkpt>
        <trkpt lat="28.822582" lon="105.960981"><ele>874.8968</ele><time>2026-03-27T22:32:22.000Z</time></trkpt>
        <trkpt lat="28.822572" lon="105.961042"><ele>874.68317</ele><time>2026-03-27T22:32:30.000Z</time></trkpt>
        <trkpt lat="28.822578" lon="105.961095"><ele>874.1563</ele><time>2026-03-27T22:32:37.000Z</time></trkpt>
        <trkpt lat="28.822603" lon="105.961143"><ele>874.4753</ele><time>2026-03-27T22:32:45.000Z</time></trkpt>
        <trkpt lat="28.822632" lon="105.96119"><ele>875.2358</ele><time>2026-03-27T22:32:54.000Z</time></trkpt>
        <trkpt lat="28.822661" lon="105.961235"><ele>875.6709</ele><time>2026-03-27T22:33:09.000Z</time></trkpt>
        <trkpt lat="28.82268" lon="105.96128"><ele>876.4954</ele><time>2026-03-27T22:33:18.000Z</time></trkpt>
        <trkpt lat="28.822711" lon="105.961327"><ele>876.81226</ele><time>2026-03-27T22:33:32.000Z</time></trkpt>
        <trkpt lat="28.822708" lon="105.961376"><ele>877.43054</ele><time>2026-03-27T22:33:42.000Z</time></trkpt>
        <trkpt lat="28.822685" lon="105.961429"><ele>876.9942</ele><time>2026-03-27T22:33:53.000Z</time></trkpt>
        <trkpt lat="28.822638" lon="105.961415"><ele>876.5326</ele><time>2026-03-27T22:34:45.000Z</time></trkpt>
        <trkpt lat="28.822594" lon="105.961442"><ele>876.6625</ele><time>2026-03-27T22:35:06.000Z</time></trkpt>
        <trkpt lat="28.822544" lon="105.96146"><ele>876.9301</ele><time>2026-03-27T22:35:17.000Z</time></trkpt>
        <trkpt lat="28.822498" lon="105.96147"><ele>875.9524</ele><time>2026-03-27T22:35:42.000Z</time></trkpt>
        <trkpt lat="28.822453" lon="105.96149"><ele>872.78284</ele><time>2026-03-27T22:36:36.000Z</time></trkpt>
        <trkpt lat="28.822429" lon="105.961539"><ele>872.14435</ele><time>2026-03-27T22:36:57.000Z</time></trkpt>
        <trkpt lat="28.822424" lon="105.961596"><ele>872.17303</ele><time>2026-03-27T22:37:20.000Z</time></trkpt>
        <trkpt lat="28.822435" lon="105.961652"><ele>872.12463</ele><time>2026-03-27T22:37:29.000Z</time></trkpt>
        <trkpt lat="28.822391" lon="105.961657"><ele>872.7382</ele><time>2026-03-27T22:37:50.000Z</time></trkpt>
        <trkpt lat="28.822342" lon="105.961656"><ele>873.226</ele><time>2026-03-27T22:39:00.000Z</time></trkpt>
        <trkpt lat="28.822313" lon="105.961696"><ele>873.14124</ele><time>2026-03-27T22:39:27.000Z</time></trkpt>
        <trkpt lat="28.822283" lon="105.961744"><ele>872.9463</ele><time>2026-03-27T22:40:15.000Z</time></trkpt>
        <trkpt lat="28.822252" lon="105.96175"><ele>872.89624</ele><time>2026-03-27T22:40:20.000Z</time></trkpt>
        <trkpt lat="28.822195" lon="105.961768"><ele>872.89014</ele><time>2026-03-27T22:40:32.000Z</time></trkpt>
        <trkpt lat="28.822202" lon="105.961734"><ele>872.8608</ele><time>2026-03-27T22:40:37.000Z</time></trkpt>
        <trkpt lat="28.822198" lon="105.961674"><ele>872.97064</ele><time>2026-03-27T22:40:49.000Z</time></trkpt>
        <trkpt lat="28.822238" lon="105.96166"><ele>873.062</ele><time>2026-03-27T22:40:54.000Z</time></trkpt>
        <trkpt lat="28.822253" lon="105.961717"><ele>873.4547</ele><time>2026-03-27T22:42:18.000Z</time></trkpt>
        <trkpt lat="28.822206" lon="105.961699"><ele>873.4771</ele><time>2026-03-27T22:42:27.000Z</time></trkpt>
        <trkpt lat="28.822248" lon="105.961692"><ele>873.5164</ele><time>2026-03-27T22:42:44.000Z</time></trkpt>
        <trkpt lat="28.8223" lon="105.961684"><ele>873.52374</ele><time>2026-03-27T22:42:54.000Z</time></trkpt>
        <trkpt lat="28.822348" lon="105.961681"><ele>872.9315</ele><time>2026-03-27T22:43:32.000Z</time></trkpt>
        <trkpt lat="28.822304" lon="105.961697"><ele>872.851</ele><time>2026-03-27T22:43:45.000Z</time></trkpt>
        <trkpt lat="28.822335" lon="105.961733"><ele>873.7942</ele><time>2026-03-27T22:45:13.000Z</time></trkpt>
        <trkpt lat="28.822293" lon="105.961741"><ele>873.4576</ele><time>2026-03-27T22:45:26.000Z</time></trkpt>
        <trkpt lat="28.822245" lon="105.961724"><ele>873.0167</ele><time>2026-03-27T22:46:01.000Z</time></trkpt>
        <trkpt lat="28.822294" lon="105.961723"><ele>873.44543</ele><time>2026-03-27T22:46:53.000Z</time></trkpt>
        <trkpt lat="28.822313" lon="105.961777"><ele>873.8701</ele><time>2026-03-27T22:47:27.000Z</time></trkpt>
        <trkpt lat="28.822333" lon="105.961723"><ele>873.9576</ele><time>2026-03-27T22:47:51.000Z</time></trkpt>
        <trkpt lat="28.822333" lon="105.961674"><ele>873.90247</ele><time>2026-03-27T22:47:59.000Z</time></trkpt>
        <trkpt lat="28.822319" lon="105.961618"><ele>873.8404</ele><time>2026-03-27T22:48:04.000Z</time></trkpt>
        <trkpt lat="28.822332" lon="105.961652"><ele>873.85785</ele><time>2026-03-27T22:48:11.000Z</time></trkpt>
        <trkpt lat="28.822355" lon="105.961695"><ele>873.98425</ele><time>2026-03-27T22:48:14.000Z</time></trkpt>
        <trkpt lat="28.822403" lon="105.961673"><ele>874.6855</ele><time>2026-03-27T22:48:36.000Z</time></trkpt>
        <trkpt lat="28.822388" lon="105.961719"><ele>877.0274</ele><time>2026-03-27T22:48:56.000Z</time></trkpt>
        <trkpt lat="28.822434" lon="105.961702"><ele>880.41364</ele><time>2026-03-27T22:49:36.000Z</time></trkpt>
        <trkpt lat="28.822475" lon="105.961726"><ele>881.7852</ele><time>2026-03-27T22:49:53.000Z</time></trkpt>
        <trkpt lat="28.822439" lon="105.961764"><ele>884.0866</ele><time>2026-03-27T22:50:17.000Z</time></trkpt>
        <trkpt lat="28.822458" lon="105.961816"><ele>884.73505</ele><time>2026-03-27T22:50:40.000Z</time></trkpt>
        <trkpt lat="28.822418" lon="105.961831"><ele>885.4468</ele><time>2026-03-27T22:50:55.000Z</time></trkpt>
        <trkpt lat="28.822371" lon="105.96186"><ele>888.11066</ele><time>2026-03-27T22:51:37.000Z</time></trkpt>
        <trkpt lat="28.822399" lon="105.96191"><ele>889.5921</ele><time>2026-03-27T22:51:53.000Z</time></trkpt>
        <trkpt lat="28.822356" lon="105.961927"><ele>891.8556</ele><time>2026-03-27T22:52:15.000Z</time></trkpt>
        <trkpt lat="28.822319" lon="105.96196"><ele>893.6296</ele><time>2026-03-27T22:52:28.000Z</time></trkpt>
        <trkpt lat="28.822294" lon="105.962009"><ele>892.3358</ele><time>2026-03-27T22:52:52.000Z</time></trkpt>
        <trkpt lat="28.822257" lon="105.962039"><ele>890.54785</ele><time>2026-03-27T22:53:05.000Z</time></trkpt>
        <trkpt lat="28.822212" lon="105.962072"><ele>888.116</ele><time>2026-03-27T22:53:40.000Z</time></trkpt>
        <trkpt lat="28.822188" lon="105.962101"><ele>887.951</ele><time>2026-03-27T22:53:46.000Z</time></trkpt>
        <trkpt lat="28.822136" lon="105.962107"><ele>886.99255</ele><time>2026-03-27T22:53:56.000Z</time></trkpt>
        <trkpt lat="28.822086" lon="105.962111"><ele>886.5386</ele><time>2026-03-27T22:54:05.000Z</time></trkpt>
        <trkpt lat="28.82204" lon="105.962128"><ele>885.91736</ele><time>2026-03-27T22:54:12.000Z</time></trkpt>
        <trkpt lat="28.821995" lon="105.962139"><ele>885.32745</ele><time>2026-03-27T22:54:18.000Z</time></trkpt>
        <trkpt lat="28.821947" lon="105.962151"><ele>884.33417</ele><time>2026-03-27T22:54:25.000Z</time></trkpt>
        <trkpt lat="28.821913" lon="105.962181"><ele>883.6331</ele><time>2026-03-27T22:54:30.000Z</time></trkpt>
        <trkpt lat="28.821886" lon="105.962246"><ele>883.3139</ele><time>2026-03-27T22:54:36.000Z</time></trkpt>
        <trkpt lat="28.82185" lon="105.962289"><ele>882.37225</ele><time>2026-03-27T22:54:47.000Z</time></trkpt>
        <trkpt lat="28.821808" lon="105.962306"><ele>881.0125</ele><time>2026-03-27T22:55:00.000Z</time></trkpt>
        <trkpt lat="28.821793" lon="105.962358"><ele>881.118</ele><time>2026-03-27T22:55:28.000Z</time></trkpt>
        <trkpt lat="28.821824" lon="105.962322"><ele>880.8529</ele><time>2026-03-27T22:55:45.000Z</time></trkpt>
        <trkpt lat="28.821864" lon="105.962291"><ele>879.63684</ele><time>2026-03-27T22:55:58.000Z</time></trkpt>
        <trkpt lat="28.821821" lon="105.962312"><ele>875.5271</ele><time>2026-03-27T22:57:07.000Z</time></trkpt>
        <trkpt lat="28.821792" lon="105.962348"><ele>875.0334</ele><time>2026-03-27T22:57:13.000Z</time></trkpt>
        <trkpt lat="28.821768" lon="105.962398"><ele>874.64703</ele><time>2026-03-27T22:57:18.000Z</time></trkpt>
        <trkpt lat="28.821761" lon="105.962462"><ele>873.5879</ele><time>2026-03-27T22:57:26.000Z</time></trkpt>
        <trkpt lat="28.821722" lon="105.962447"><ele>872.54047</ele><time>2026-03-27T22:57:43.000Z</time></trkpt>
        <trkpt lat="28.821676" lon="105.962467"><ele>871.2522</ele><time>2026-03-27T22:58:25.000Z</time></trkpt>
        <trkpt lat="28.821667" lon="105.962519"><ele>869.6916</ele><time>2026-03-27T22:58:42.000Z</time></trkpt>
        <trkpt lat="28.821662" lon="105.96257"><ele>866.9929</ele><time>2026-03-27T22:58:58.000Z</time></trkpt>
        <trkpt lat="28.821617" lon="105.962592"><ele>864.327</ele><time>2026-03-27T22:59:14.000Z</time></trkpt>
        <trkpt lat="28.821582" lon="105.962627"><ele>862.57764</ele><time>2026-03-27T22:59:26.000Z</time></trkpt>
        <trkpt lat="28.821555" lon="105.962659"><ele>861.5869</ele><time>2026-03-27T22:59:31.000Z</time></trkpt>
        <trkpt lat="28.821595" lon="105.962651"><ele>858.0122</ele><time>2026-03-27T23:00:02.000Z</time></trkpt>
        <trkpt lat="28.821589" lon="105.962702"><ele>855.6607</ele><time>2026-03-27T23:00:26.000Z</time></trkpt>
        <trkpt lat="28.821628" lon="105.962715"><ele>854.6603</ele><time>2026-03-27T23:00:37.000Z</time></trkpt>
        <trkpt lat="28.821591" lon="105.962724"><ele>851.4205</ele><time>2026-03-27T23:01:00.000Z</time></trkpt>
        <trkpt lat="28.821551" lon="105.962755"><ele>850.5091</ele><time>2026-03-27T23:01:06.000Z</time></trkpt>
        <trkpt lat="28.821514" lon="105.962794"><ele>849.62604</ele><time>2026-03-27T23:01:15.000Z</time></trkpt>
        <trkpt lat="28.821474" lon="105.962816"><ele>848.2628</ele><time>2026-03-27T23:01:25.000Z</time></trkpt>
        <trkpt lat="28.821429" lon="105.962817"><ele>847.23737</ele><time>2026-03-27T23:01:32.000Z</time></trkpt>
        <trkpt lat="28.821428" lon="105.962874"><ele>845.9773</ele><time>2026-03-27T23:01:44.000Z</time></trkpt>
        <trkpt lat="28.821427" lon="105.962925"><ele>845.2568</ele><time>2026-03-27T23:01:49.000Z</time></trkpt>
        <trkpt lat="28.821395" lon="105.962908"><ele>844.3253</ele><time>2026-03-27T23:01:58.000Z</time></trkpt>
        <trkpt lat="28.821353" lon="105.962925"><ele>842.2372</ele><time>2026-03-27T23:02:13.000Z</time></trkpt>
        <trkpt lat="28.82134" lon="105.96298"><ele>838.44507</ele><time>2026-03-27T23:02:44.000Z</time></trkpt>
        <trkpt lat="28.821308" lon="105.963014"><ele>838.37317</ele><time>2026-03-27T23:02:52.000Z</time></trkpt>
        <trkpt lat="28.821271" lon="105.963059"><ele>836.01404</ele><time>2026-03-27T23:03:18.000Z</time></trkpt>
        <trkpt lat="28.821261" lon="105.963098"><ele>835.24774</ele><time>2026-03-27T23:03:24.000Z</time></trkpt>
        <trkpt lat="28.821214" lon="105.963091"><ele>834.1694</ele><time>2026-03-27T23:03:36.000Z</time></trkpt>
        <trkpt lat="28.821223" lon="105.963036"><ele>833.46436</ele><time>2026-03-27T23:03:49.000Z</time></trkpt>
        <trkpt lat="28.821203" lon="105.963079"><ele>833.29</ele><time>2026-03-27T23:04:28.000Z</time></trkpt>
        <trkpt lat="28.821164" lon="105.963119"><ele>831.91974</ele><time>2026-03-27T23:04:41.000Z</time></trkpt>
        <trkpt lat="28.821124" lon="105.963116"><ele>830.48047</ele><time>2026-03-27T23:04:47.000Z</time></trkpt>
        <trkpt lat="28.821069" lon="105.963127"><ele>827.1251</ele><time>2026-03-27T23:05:13.000Z</time></trkpt>
        <trkpt lat="28.821051" lon="105.963167"><ele>826.48944</ele><time>2026-03-27T23:05:18.000Z</time></trkpt>
        <trkpt lat="28.821014" lon="105.963215"><ele>825.32477</ele><time>2026-03-27T23:05:27.000Z</time></trkpt>
        <trkpt lat="28.820977" lon="105.963247"><ele>824.7556</ele><time>2026-03-27T23:05:32.000Z</time></trkpt>
        <trkpt lat="28.820963" lon="105.963299"><ele>824.8542</ele><time>2026-03-27T23:05:38.000Z</time></trkpt>
        <trkpt lat="28.820962" lon="105.963356"><ele>824.2051</ele><time>2026-03-27T23:05:45.000Z</time></trkpt>
        <trkpt lat="28.820937" lon="105.963329"><ele>823.3559</ele><time>2026-03-27T23:05:53.000Z</time></trkpt>
        <trkpt lat="28.820898" lon="105.963346"><ele>821.9141</ele><time>2026-03-27T23:06:03.000Z</time></trkpt>
        <trkpt lat="28.820872" lon="105.963395"><ele>819.578</ele><time>2026-03-27T23:06:15.000Z</time></trkpt>
        <trkpt lat="28.820899" lon="105.963445"><ele>816.3225</ele><time>2026-03-27T23:06:37.000Z</time></trkpt>
        <trkpt lat="28.820933" lon="105.963477"><ele>815.034</ele><time>2026-03-27T23:06:46.000Z</time></trkpt>
        <trkpt lat="28.820892" lon="105.963471"><ele>812.79346</ele><time>2026-03-27T23:06:59.000Z</time></trkpt>
        <trkpt lat="28.820847" lon="105.963483"><ele>811.14276</ele><time>2026-03-27T23:07:06.000Z</time></trkpt>
        <trkpt lat="28.820819" lon="105.96353"><ele>809.99915</ele><time>2026-03-27T23:07:15.000Z</time></trkpt>
        <trkpt lat="28.820793" lon="105.963577"><ele>808.23334</ele><time>2026-03-27T23:07:26.000Z</time></trkpt>
        <trkpt lat="28.820805" lon="105.963624"><ele>806.82764</ele><time>2026-03-27T23:07:34.000Z</time></trkpt>
        <trkpt lat="28.820775" lon="105.963593"><ele>803.60486</ele><time>2026-03-27T23:07:51.000Z</time></trkpt>
        <trkpt lat="28.820761" lon="105.96364"><ele>801.966</ele><time>2026-03-27T23:08:13.000Z</time></trkpt>
        <trkpt lat="28.82074" lon="105.963696"><ele>800.4946</ele><time>2026-03-27T23:09:11.000Z</time></trkpt>
        <trkpt lat="28.820705" lon="105.963715"><ele>799.64154</ele><time>2026-03-27T23:09:18.000Z</time></trkpt>
        <trkpt lat="28.820663" lon="105.963754"><ele>796.1549</ele><time>2026-03-27T23:09:42.000Z</time></trkpt>
        <trkpt lat="28.820637" lon="105.963716"><ele>794.8249</ele><time>2026-03-27T23:09:53.000Z</time></trkpt>
        <trkpt lat="28.820613" lon="105.963669"><ele>793.9587</ele><time>2026-03-27T23:10:01.000Z</time></trkpt>
        <trkpt lat="28.820569" lon="105.963664"><ele>792.81683</ele><time>2026-03-27T23:10:11.000Z</time></trkpt>
        <trkpt lat="28.820521" lon="105.96368"><ele>789.4332</ele><time>2026-03-27T23:10:42.000Z</time></trkpt>
        <trkpt lat="28.820481" lon="105.963704"><ele>788.19135</ele><time>2026-03-27T23:10:51.000Z</time></trkpt>
        <trkpt lat="28.820471" lon="105.96376"><ele>788.3665</ele><time>2026-03-27T23:11:06.000Z</time></trkpt>
        <trkpt lat="28.820448" lon="105.963714"><ele>788.5866</ele><time>2026-03-27T23:11:36.000Z</time></trkpt>
        <trkpt lat="28.82041" lon="105.963746"><ele>786.56177</ele><time>2026-03-27T23:12:02.000Z</time></trkpt>
        <trkpt lat="28.820415" lon="105.9638"><ele>784.1835</ele><time>2026-03-27T23:12:47.000Z</time></trkpt>
        <trkpt lat="28.820389" lon="105.963837"><ele>783.8678</ele><time>2026-03-27T23:12:54.000Z</time></trkpt>
        <trkpt lat="28.820358" lon="105.963819"><ele>783.21173</ele><time>2026-03-27T23:13:00.000Z</time></trkpt>
        <trkpt lat="28.820309" lon="105.963813"><ele>780.5282</ele><time>2026-03-27T23:13:34.000Z</time></trkpt>
        <trkpt lat="28.820336" lon="105.963853"><ele>780.3557</ele><time>2026-03-27T23:13:57.000Z</time></trkpt>
        <trkpt lat="28.820383" lon="105.963869"><ele>776.2879</ele><time>2026-03-27T23:16:32.000Z</time></trkpt>
        <trkpt lat="28.820397" lon="105.963808"><ele>776.64856</ele><time>2026-03-27T23:16:51.000Z</time></trkpt>
        <trkpt lat="28.820398" lon="105.963804"><ele>776.54584</ele><time>2026-03-27T23:16:52.000Z</time></trkpt>
        <trkpt lat="28.820391" lon="105.963856"><ele>772.0838</ele><time>2026-03-27T23:17:40.000Z</time></trkpt>
        <trkpt lat="28.820407" lon="105.963906"><ele>770.26605</ele><time>2026-03-27T23:17:51.000Z</time></trkpt>
        <trkpt lat="28.820449" lon="105.96394"><ele>768.6945</ele><time>2026-03-27T23:18:03.000Z</time></trkpt>
        <trkpt lat="28.820443" lon="105.963994"><ele>765.14624</ele><time>2026-03-27T23:18:30.000Z</time></trkpt>
        <trkpt lat="28.820395" lon="105.963988"><ele>762.80005</ele><time>2026-03-27T23:18:41.000Z</time></trkpt>
        <trkpt lat="28.820346" lon="105.963986"><ele>761.63324</ele><time>2026-03-27T23:18:48.000Z</time></trkpt>
        <trkpt lat="28.820306" lon="105.964014"><ele>760.27216</ele><time>2026-03-27T23:18:55.000Z</time></trkpt>
        <trkpt lat="28.820263" lon="105.964032"><ele>759.3999</ele><time>2026-03-27T23:19:00.000Z</time></trkpt>
        <trkpt lat="28.820221" lon="105.964058"><ele>758.8124</ele><time>2026-03-27T23:19:04.000Z</time></trkpt>
        <trkpt lat="28.820175" lon="105.964059"><ele>758.8402</ele><time>2026-03-27T23:19:08.000Z</time></trkpt>
        <trkpt lat="28.820135" lon="105.964011"><ele>759.62714</ele><time>2026-03-27T23:19:25.000Z</time></trkpt>
        <trkpt lat="28.820102" lon="105.964048"><ele>758.6414</ele><time>2026-03-27T23:19:42.000Z</time></trkpt>
        <trkpt lat="28.820051" lon="105.96404"><ele>758.4998</ele><time>2026-03-27T23:19:58.000Z</time></trkpt>
        <trkpt lat="28.820021" lon="105.964006"><ele>758.6349</ele><time>2026-03-27T23:20:03.000Z</time></trkpt>
        <trkpt lat="28.81997" lon="105.963985"><ele>758.0508</ele><time>2026-03-27T23:20:14.000Z</time></trkpt>
        <trkpt lat="28.819925" lon="105.963995"><ele>756.0628</ele><time>2026-03-27T23:20:26.000Z</time></trkpt>
        <trkpt lat="28.819882" lon="105.964014"><ele>754.1743</ele><time>2026-03-27T23:20:34.000Z</time></trkpt>
        <trkpt lat="28.819847" lon="105.96405"><ele>752.6982</ele><time>2026-03-27T23:20:41.000Z</time></trkpt>
        <trkpt lat="28.819821" lon="105.964104"><ele>748.2054</ele><time>2026-03-27T23:21:03.000Z</time></trkpt>
        <trkpt lat="28.819796" lon="105.964135"><ele>746.9308</ele><time>2026-03-27T23:21:10.000Z</time></trkpt>
        <trkpt lat="28.819772" lon="105.964178"><ele>746.3279</ele><time>2026-03-27T23:21:15.000Z</time></trkpt>
        <trkpt lat="28.819735" lon="105.964232"><ele>745.12427</ele><time>2026-03-27T23:21:27.000Z</time></trkpt>
        <trkpt lat="28.819738" lon="105.964287"><ele>742.6104</ele><time>2026-03-27T23:21:51.000Z</time></trkpt>
        <trkpt lat="28.819759" lon="105.964332"><ele>741.8757</ele><time>2026-03-27T23:21:59.000Z</time></trkpt>
        <trkpt lat="28.81977" lon="105.964385"><ele>740.377</ele><time>2026-03-27T23:22:06.000Z</time></trkpt>
        <trkpt lat="28.819729" lon="105.964412"><ele>737.3158</ele><time>2026-03-27T23:22:28.000Z</time></trkpt>
        <trkpt lat="28.819684" lon="105.964396"><ele>735.85</ele><time>2026-03-27T23:22:40.000Z</time></trkpt>
        <trkpt lat="28.819687" lon="105.964454"><ele>733.805</ele><time>2026-03-27T23:22:55.000Z</time></trkpt>
        <trkpt lat="28.819688" lon="105.964506"><ele>733.3318</ele><time>2026-03-27T23:23:01.000Z</time></trkpt>
        <trkpt lat="28.819669" lon="105.964565"><ele>731.79144</ele><time>2026-03-27T23:23:12.000Z</time></trkpt>
        <trkpt lat="28.819648" lon="105.964613"><ele>730.32587</ele><time>2026-03-27T23:23:23.000Z</time></trkpt>
        <trkpt lat="28.819626" lon="105.964661"><ele>728.4463</ele><time>2026-03-27T23:23:35.000Z</time></trkpt>
        <trkpt lat="28.819615" lon="105.964707"><ele>727.0371</ele><time>2026-03-27T23:23:41.000Z</time></trkpt>
        <trkpt lat="28.819626" lon="105.964771"><ele>726.8262</ele><time>2026-03-27T23:23:54.000Z</time></trkpt>
        <trkpt lat="28.819603" lon="105.964826"><ele>723.88104</ele><time>2026-03-27T23:24:12.000Z</time></trkpt>
        <trkpt lat="28.819609" lon="105.964869"><ele>722.8253</ele><time>2026-03-27T23:24:17.000Z</time></trkpt>
        <trkpt lat="28.819617" lon="105.964939"><ele>721.4951</ele><time>2026-03-27T23:24:24.000Z</time></trkpt>
        <trkpt lat="28.819606" lon="105.964996"><ele>720.3728</ele><time>2026-03-27T23:24:34.000Z</time></trkpt>
        <trkpt lat="28.819581" lon="105.965038"><ele>718.558</ele><time>2026-03-27T23:24:43.000Z</time></trkpt>
        <trkpt lat="28.819536" lon="105.965049"><ele>716.9825</ele><time>2026-03-27T23:24:48.000Z</time></trkpt>
        <trkpt lat="28.819558" lon="105.96501"><ele>713.6834</ele><time>2026-03-27T23:25:40.000Z</time></trkpt>
        <trkpt lat="28.819552" lon="105.965046"><ele>712.8246</ele><time>2026-03-27T23:25:47.000Z</time></trkpt>
        <trkpt lat="28.819577" lon="105.965095"><ele>708.3954</ele><time>2026-03-27T23:26:13.000Z</time></trkpt>
        <trkpt lat="28.81962" lon="105.965118"><ele>706.4756</ele><time>2026-03-27T23:26:27.000Z</time></trkpt>
        <trkpt lat="28.819644" lon="105.965169"><ele>706.47034</ele><time>2026-03-27T23:26:45.000Z</time></trkpt>
        <trkpt lat="28.819653" lon="105.96522"><ele>702.43134</ele><time>2026-03-27T23:27:16.000Z</time></trkpt>
        <trkpt lat="28.819665" lon="105.965269"><ele>700.6645</ele><time>2026-03-27T23:27:27.000Z</time></trkpt>
        <trkpt lat="28.819667" lon="105.965325"><ele>698.4144</ele><time>2026-03-27T23:28:02.000Z</time></trkpt>
        <trkpt lat="28.819635" lon="105.965362"><ele>695.12177</ele><time>2026-03-27T23:28:30.000Z</time></trkpt>
        <trkpt lat="28.819639" lon="105.965412"><ele>693.78613</ele><time>2026-03-27T23:28:37.000Z</time></trkpt>
        <trkpt lat="28.819606" lon="105.965428"><ele>693.5183</ele><time>2026-03-27T23:28:42.000Z</time></trkpt>
        <trkpt lat="28.81956" lon="105.96543"><ele>693.11865</ele><time>2026-03-27T23:28:46.000Z</time></trkpt>
        <trkpt lat="28.819502" lon="105.965408"><ele>692.4163</ele><time>2026-03-27T23:28:53.000Z</time></trkpt>
        <trkpt lat="28.819455" lon="105.965384"><ele>692.548</ele><time>2026-03-27T23:29:03.000Z</time></trkpt>
        <trkpt lat="28.819405" lon="105.965381"><ele>691.76154</ele><time>2026-03-27T23:29:31.000Z</time></trkpt>
        <trkpt lat="28.819365" lon="105.965388"><ele>691.80695</ele><time>2026-03-27T23:29:39.000Z</time></trkpt>
        <trkpt lat="28.819315" lon="105.965405"><ele>691.8342</ele><time>2026-03-27T23:29:52.000Z</time></trkpt>
        <trkpt lat="28.819281" lon="105.965438"><ele>692.3537</ele><time>2026-03-27T23:29:58.000Z</time></trkpt>
        <trkpt lat="28.81924" lon="105.965471"><ele>692.2314</ele><time>2026-03-27T23:30:06.000Z</time></trkpt>
        <trkpt lat="28.819224" lon="105.965522"><ele>692.51575</ele><time>2026-03-27T23:30:12.000Z</time></trkpt>
        <trkpt lat="28.819195" lon="105.965562"><ele>692.84094</ele><time>2026-03-27T23:30:17.000Z</time></trkpt>
        <trkpt lat="28.81918" lon="105.965618"><ele>692.8408</ele><time>2026-03-27T23:30:22.000Z</time></trkpt>
        <trkpt lat="28.819154" lon="105.965671"><ele>692.8482</ele><time>2026-03-27T23:30:28.000Z</time></trkpt>
        <trkpt lat="28.819115" lon="105.965699"><ele>692.747</ele><time>2026-03-27T23:30:33.000Z</time></trkpt>
        <trkpt lat="28.81906" lon="105.965702"><ele>692.6467</ele><time>2026-03-27T23:31:01.000Z</time></trkpt>
        <trkpt lat="28.819027" lon="105.965678"><ele>693.08075</ele><time>2026-03-27T23:31:08.000Z</time></trkpt>
        <trkpt lat="28.818975" lon="105.965678"><ele>693.32056</ele><time>2026-03-27T23:31:14.000Z</time></trkpt>
        <trkpt lat="28.818929" lon="105.96567"><ele>693.69165</ele><time>2026-03-27T23:31:19.000Z</time></trkpt>
        <trkpt lat="28.818877" lon="105.965679"><ele>688.28613</ele><time>2026-03-27T23:31:43.000Z</time></trkpt>
        <trkpt lat="28.818858" lon="105.965637"><ele>685.6312</ele><time>2026-03-27T23:31:55.000Z</time></trkpt>
        <trkpt lat="28.818815" lon="105.965603"><ele>686.21906</ele><time>2026-03-27T23:32:10.000Z</time></trkpt>
        <trkpt lat="28.818795" lon="105.965555"><ele>687.69354</ele><time>2026-03-27T23:32:21.000Z</time></trkpt>
        <trkpt lat="28.818763" lon="105.965523"><ele>687.9897</ele><time>2026-03-27T23:32:26.000Z</time></trkpt>
        <trkpt lat="28.818724" lon="105.965531"><ele>687.1477</ele><time>2026-03-27T23:32:30.000Z</time></trkpt>
        <trkpt lat="28.818679" lon="105.965556"><ele>684.87524</ele><time>2026-03-27T23:32:34.000Z</time></trkpt>
        <trkpt lat="28.818622" lon="105.96556"><ele>682.3144</ele><time>2026-03-27T23:32:43.000Z</time></trkpt>
        <trkpt lat="28.818576" lon="105.965553"><ele>682.38324</ele><time>2026-03-27T23:32:55.000Z</time></trkpt>
        <trkpt lat="28.818538" lon="105.965571"><ele>682.78235</ele><time>2026-03-27T23:33:02.000Z</time></trkpt>
        <trkpt lat="28.8185" lon="105.965601"><ele>682.91565</ele><time>2026-03-27T23:33:08.000Z</time></trkpt>
        <trkpt lat="28.818457" lon="105.96558"><ele>683.4051</ele><time>2026-03-27T23:33:21.000Z</time></trkpt>
        <trkpt lat="28.818439" lon="105.96553"><ele>683.4403</ele><time>2026-03-27T23:33:28.000Z</time></trkpt>
        <trkpt lat="28.818413" lon="105.965461"><ele>682.91144</ele><time>2026-03-27T23:33:42.000Z</time></trkpt>
        <trkpt lat="28.818394" lon="105.965416"><ele>683.0735</ele><time>2026-03-27T23:33:50.000Z</time></trkpt>
        <trkpt lat="28.818363" lon="105.965375"><ele>683.19244</ele><time>2026-03-27T23:33:58.000Z</time></trkpt>
        <trkpt lat="28.818346" lon="105.965326"><ele>683.4694</ele><time>2026-03-27T23:34:06.000Z</time></trkpt>
        <trkpt lat="28.818324" lon="105.965273"><ele>683.9723</ele><time>2026-03-27T23:34:25.000Z</time></trkpt>
        <trkpt lat="28.818343" lon="105.965226"><ele>687.5384</ele><time>2026-03-27T23:35:16.000Z</time></trkpt>
        <trkpt lat="28.818372" lon="105.965189"><ele>688.5552</ele><time>2026-03-27T23:35:27.000Z</time></trkpt>
        <trkpt lat="28.818336" lon="105.965164"><ele>689.3329</ele><time>2026-03-27T23:35:37.000Z</time></trkpt>
        <trkpt lat="28.818302" lon="105.965124"><ele>690.15234</ele><time>2026-03-27T23:35:46.000Z</time></trkpt>
        <trkpt lat="28.818258" lon="105.965124"><ele>690.0154</ele><time>2026-03-27T23:35:52.000Z</time></trkpt>
        <trkpt lat="28.818203" lon="105.965112"><ele>690.29364</ele><time>2026-03-27T23:36:06.000Z</time></trkpt>
        <trkpt lat="28.818161" lon="105.965095"><ele>690.51196</ele><time>2026-03-27T23:36:16.000Z</time></trkpt>
        <trkpt lat="28.818113" lon="105.96507"><ele>690.514</ele><time>2026-03-27T23:36:26.000Z</time></trkpt>
        <trkpt lat="28.818067" lon="105.96507"><ele>690.6193</ele><time>2026-03-27T23:36:32.000Z</time></trkpt>
        <trkpt lat="28.818018" lon="105.965054"><ele>690.278</ele><time>2026-03-27T23:36:39.000Z</time></trkpt>
        <trkpt lat="28.817972" lon="105.965056"><ele>691.481</ele><time>2026-03-27T23:36:46.000Z</time></trkpt>
        <trkpt lat="28.817925" lon="105.965038"><ele>691.8273</ele><time>2026-03-27T23:36:56.000Z</time></trkpt>
        <trkpt lat="28.817878" lon="105.965034"><ele>690.53906</ele><time>2026-03-27T23:37:07.000Z</time></trkpt>
        <trkpt lat="28.817831" lon="105.965037"><ele>689.5921</ele><time>2026-03-27T23:37:20.000Z</time></trkpt>
        <trkpt lat="28.817796" lon="105.965012"><ele>690.0569</ele><time>2026-03-27T23:37:27.000Z</time></trkpt>
        <trkpt lat="28.817754" lon="105.964993"><ele>690.51587</ele><time>2026-03-27T23:37:33.000Z</time></trkpt>
        <trkpt lat="28.817709" lon="105.964966"><ele>690.6726</ele><time>2026-03-27T23:37:38.000Z</time></trkpt>
        <trkpt lat="28.817659" lon="105.964951"><ele>690.2488</ele><time>2026-03-27T23:37:43.000Z</time></trkpt>
        <trkpt lat="28.817608" lon="105.964937"><ele>690.37805</ele><time>2026-03-27T23:37:49.000Z</time></trkpt>
        <trkpt lat="28.817561" lon="105.964926"><ele>690.2452</ele><time>2026-03-27T23:37:57.000Z</time></trkpt>
        <trkpt lat="28.817518" lon="105.964913"><ele>690.32166</ele><time>2026-03-27T23:38:06.000Z</time></trkpt>
        <trkpt lat="28.817471" lon="105.964919"><ele>689.59644</ele><time>2026-03-27T23:38:25.000Z</time></trkpt>
        <trkpt lat="28.817427" lon="105.964886"><ele>689.30756</ele><time>2026-03-27T23:42:10.000Z</time></trkpt>
        <trkpt lat="28.817379" lon="105.964889"><ele>688.83276</ele><time>2026-03-27T23:42:23.000Z</time></trkpt>
        <trkpt lat="28.81733" lon="105.964892"><ele>688.7476</ele><time>2026-03-27T23:42:34.000Z</time></trkpt>
      </trkseg>
      <trkseg>
        <trkpt lat="28.817337" lon="105.96491"><ele>688.53644</ele><time>2026-03-27T23:42:55.000Z</time></trkpt>
        <trkpt lat="28.81734" lon="105.964911"><ele>688.518</ele><time>2026-03-27T23:43:03.000Z</time></trkpt>
        <trkpt lat="28.8173" lon="105.964893"><ele>688.7226</ele><time>2026-03-27T23:43:42.000Z</time></trkpt>
        <trkpt lat="28.817293" lon="105.964841"><ele>689.65405</ele><time>2026-03-27T23:44:00.000Z</time></trkpt>
        <trkpt lat="28.817269" lon="105.964797"><ele>690.1864</ele><time>2026-03-27T23:44:11.000Z</time></trkpt>
        <trkpt lat="28.817238" lon="105.964757"><ele>690.3802</ele><time>2026-03-27T23:44:17.000Z</time></trkpt>
        <trkpt lat="28.817195" lon="105.964729"><ele>691.17645</ele><time>2026-03-27T23:44:25.000Z</time></trkpt>
        <trkpt lat="28.817156" lon="105.964704"><ele>691.35376</ele><time>2026-03-27T23:44:31.000Z</time></trkpt>
        <trkpt lat="28.817115" lon="105.964671"><ele>691.5778</ele><time>2026-03-27T23:44:37.000Z</time></trkpt>
        <trkpt lat="28.817107" lon="105.964616"><ele>691.418</ele><time>2026-03-27T23:44:46.000Z</time></trkpt>
        <trkpt lat="28.817076" lon="105.964578"><ele>691.6769</ele><time>2026-03-27T23:44:59.000Z</time></trkpt>
        <trkpt lat="28.817068" lon="105.964538"><ele>691.5052</ele><time>2026-03-27T23:45:03.000Z</time></trkpt>
        <trkpt lat="28.817021" lon="105.964523"><ele>691.77313</ele><time>2026-03-27T23:45:13.000Z</time></trkpt>
        <trkpt lat="28.81697" lon="105.964526"><ele>692.0597</ele><time>2026-03-27T23:45:24.000Z</time></trkpt>
        <trkpt lat="28.816934" lon="105.964494"><ele>691.9302</ele><time>2026-03-27T23:45:32.000Z</time></trkpt>
        <trkpt lat="28.816898" lon="105.964461"><ele>692.43085</ele><time>2026-03-27T23:45:39.000Z</time></trkpt>
        <trkpt lat="28.816854" lon="105.964438"><ele>691.9634</ele><time>2026-03-27T23:45:47.000Z</time></trkpt>
        <trkpt lat="28.816806" lon="105.964449"><ele>689.44434</ele><time>2026-03-27T23:46:04.000Z</time></trkpt>
        <trkpt lat="28.816776" lon="105.964478"><ele>688.7464</ele><time>2026-03-27T23:46:09.000Z</time></trkpt>
        <trkpt lat="28.816719" lon="105.964475"><ele>688.23505</ele><time>2026-03-27T23:46:20.000Z</time></trkpt>
        <trkpt lat="28.816675" lon="105.964503"><ele>686.8381</ele><time>2026-03-27T23:47:01.000Z</time></trkpt>
        <trkpt lat="28.81663" lon="105.964517"><ele>686.3915</ele><time>2026-03-27T23:47:18.000Z</time></trkpt>
        <trkpt lat="28.816573" lon="105.964517"><ele>686.49554</ele><time>2026-03-27T23:47:27.000Z</time></trkpt>
        <trkpt lat="28.816545" lon="105.964557"><ele>686.08105</ele><time>2026-03-27T23:47:33.000Z</time></trkpt>
        <trkpt lat="28.816504" lon="105.964589"><ele>687.2936</ele><time>2026-03-27T23:47:42.000Z</time></trkpt>
        <trkpt lat="28.816462" lon="105.964587"><ele>687.297</ele><time>2026-03-27T23:47:48.000Z</time></trkpt>
        <trkpt lat="28.816416" lon="105.96456"><ele>687.6238</ele><time>2026-03-27T23:47:59.000Z</time></trkpt>
        <trkpt lat="28.81637" lon="105.964549"><ele>687.5984</ele><time>2026-03-27T23:48:14.000Z</time></trkpt>
        <trkpt lat="28.816327" lon="105.964547"><ele>687.63873</ele><time>2026-03-27T23:48:21.000Z</time></trkpt>
        <trkpt lat="28.816272" lon="105.964559"><ele>687.54755</ele><time>2026-03-27T23:48:30.000Z</time></trkpt>
        <trkpt lat="28.816244" lon="105.964598"><ele>687.097</ele><time>2026-03-27T23:48:35.000Z</time></trkpt>
        <trkpt lat="28.81623" lon="105.964558"><ele>689.2048</ele><time>2026-03-27T23:49:15.000Z</time></trkpt>
        <trkpt lat="28.8162" lon="105.964527"><ele>689.81165</ele><time>2026-03-27T23:49:23.000Z</time></trkpt>
        <trkpt lat="28.816154" lon="105.964488"><ele>690.141</ele><time>2026-03-27T23:49:31.000Z</time></trkpt>
        <trkpt lat="28.816113" lon="105.964452"><ele>689.9621</ele><time>2026-03-27T23:49:42.000Z</time></trkpt>
        <trkpt lat="28.816077" lon="105.964413"><ele>689.76935</ele><time>2026-03-27T23:49:50.000Z</time></trkpt>
        <trkpt lat="28.816033" lon="105.964384"><ele>690.0774</ele><time>2026-03-27T23:49:56.000Z</time></trkpt>
        <trkpt lat="28.815983" lon="105.964367"><ele>689.9769</ele><time>2026-03-27T23:50:02.000Z</time></trkpt>
        <trkpt lat="28.815941" lon="105.964335"><ele>690.5049</ele><time>2026-03-27T23:50:17.000Z</time></trkpt>
        <trkpt lat="28.815903" lon="105.964361"><ele>689.885</ele><time>2026-03-27T23:50:37.000Z</time></trkpt>
        <trkpt lat="28.815873" lon="105.964402"><ele>687.5377</ele><time>2026-03-27T23:50:54.000Z</time></trkpt>
        <trkpt lat="28.815832" lon="105.964435"><ele>685.58594</ele><time>2026-03-27T23:51:04.000Z</time></trkpt>
        <trkpt lat="28.815784" lon="105.964445"><ele>684.5068</ele><time>2026-03-27T23:51:13.000Z</time></trkpt>
        <trkpt lat="28.815761" lon="105.964399"><ele>685.6735</ele><time>2026-03-27T23:51:23.000Z</time></trkpt>
        <trkpt lat="28.815736" lon="105.96435"><ele>686.9289</ele><time>2026-03-27T23:51:43.000Z</time></trkpt>
        <trkpt lat="28.815755" lon="105.964391"><ele>685.99365</ele><time>2026-03-27T23:51:51.000Z</time></trkpt>
        <trkpt lat="28.815794" lon="105.964431"><ele>685.22363</ele><time>2026-03-27T23:51:58.000Z</time></trkpt>
        <trkpt lat="28.815834" lon="105.964466"><ele>684.36475</ele><time>2026-03-27T23:52:06.000Z</time></trkpt>
        <trkpt lat="28.815792" lon="105.964475"><ele>682.7502</ele><time>2026-03-27T23:52:19.000Z</time></trkpt>
        <trkpt lat="28.81575" lon="105.964498"><ele>682.3017</ele><time>2026-03-27T23:52:26.000Z</time></trkpt>
        <trkpt lat="28.815753" lon="105.964562"><ele>682.4061</ele><time>2026-03-27T23:52:37.000Z</time></trkpt>
        <trkpt lat="28.815739" lon="105.964616"><ele>682.1785</ele><time>2026-03-27T23:52:46.000Z</time></trkpt>
        <trkpt lat="28.815718" lon="105.964568"><ele>682.43335</ele><time>2026-03-27T23:53:07.000Z</time></trkpt>
        <trkpt lat="28.815735" lon="105.964514"><ele>682.56555</ele><time>2026-03-27T23:53:26.000Z</time></trkpt>
        <trkpt lat="28.815696" lon="105.964485"><ele>682.09753</ele><time>2026-03-27T23:53:47.000Z</time></trkpt>
        <trkpt lat="28.815657" lon="105.964514"><ele>681.6364</ele><time>2026-03-27T23:54:01.000Z</time></trkpt>
        <trkpt lat="28.815613" lon="105.964519"><ele>680.6748</ele><time>2026-03-27T23:54:08.000Z</time></trkpt>
        <trkpt lat="28.815566" lon="105.964527"><ele>680.1156</ele><time>2026-03-27T23:54:13.000Z</time></trkpt>
        <trkpt lat="28.815519" lon="105.964506"><ele>679.6671</ele><time>2026-03-27T23:54:18.000Z</time></trkpt>
        <trkpt lat="28.815487" lon="105.964464"><ele>679.30493</ele><time>2026-03-27T23:54:23.000Z</time></trkpt>
        <trkpt lat="28.815459" lon="105.964417"><ele>679.1479</ele><time>2026-03-27T23:54:29.000Z</time></trkpt>
        <trkpt lat="28.815433" lon="105.964372"><ele>678.42975</ele><time>2026-03-27T23:54:37.000Z</time></trkpt>
        <trkpt lat="28.81539" lon="105.964336"><ele>677.6534</ele><time>2026-03-27T23:54:57.000Z</time></trkpt>
        <trkpt lat="28.815354" lon="105.964301"><ele>677.83435</ele><time>2026-03-27T23:55:17.000Z</time></trkpt>
        <trkpt lat="28.815315" lon="105.964241"><ele>678.58374</ele><time>2026-03-27T23:55:35.000Z</time></trkpt>
        <trkpt lat="28.815287" lon="105.964198"><ele>679.86273</ele><time>2026-03-27T23:55:58.000Z</time></trkpt>
        <trkpt lat="28.815247" lon="105.964174"><ele>682.1946</ele><time>2026-03-27T23:56:29.000Z</time></trkpt>
        <trkpt lat="28.815204" lon="105.964147"><ele>683.61664</ele><time>2026-03-27T23:57:32.000Z</time></trkpt>
        <trkpt lat="28.815203" lon="105.9642"><ele>683.8537</ele><time>2026-03-27T23:57:53.000Z</time></trkpt>
        <trkpt lat="28.815169" lon="105.964172"><ele>684.305</ele><time>2026-03-27T23:58:00.000Z</time></trkpt>
        <trkpt lat="28.815128" lon="105.964135"><ele>684.3363</ele><time>2026-03-27T23:58:06.000Z</time></trkpt>
        <trkpt lat="28.815113" lon="105.964066"><ele>684.2471</ele><time>2026-03-27T23:58:25.000Z</time></trkpt>
        <trkpt lat="28.815152" lon="105.964048"><ele>684.19794</ele><time>2026-03-27T23:58:32.000Z</time></trkpt>
        <trkpt lat="28.815198" lon="105.964059"><ele>684.2101</ele><time>2026-03-27T23:58:38.000Z</time></trkpt>
        <trkpt lat="28.815249" lon="105.964081"><ele>684.35675</ele><time>2026-03-27T23:58:46.000Z</time></trkpt>
        <trkpt lat="28.815208" lon="105.964106"><ele>684.1139</ele><time>2026-03-27T23:59:06.000Z</time></trkpt>
        <trkpt lat="28.81516" lon="105.964091"><ele>684.15936</ele><time>2026-03-27T23:59:16.000Z</time></trkpt>
        <trkpt lat="28.815115" lon="105.964134"><ele>684.2146</ele><time>2026-03-28T00:00:02.000Z</time></trkpt>
        <trkpt lat="28.81507" lon="105.96414"><ele>684.4806</ele><time>2026-03-28T00:00:39.000Z</time></trkpt>
        <trkpt lat="28.815093" lon="105.964095"><ele>685.50085</ele><time>2026-03-28T00:01:00.000Z</time></trkpt>
        <trkpt lat="28.815056" lon="105.964067"><ele>686.4537</ele><time>2026-03-28T00:01:45.000Z</time></trkpt>
        <trkpt lat="28.815051" lon="105.964015"><ele>689.4915</ele><time>2026-03-28T00:02:41.000Z</time></trkpt>
        <trkpt lat="28.815012" lon="105.964041"><ele>690.0804</ele><time>2026-03-28T00:03:07.000Z</time></trkpt>
        <trkpt lat="28.815009" lon="105.963987"><ele>692.59503</ele><time>2026-03-28T00:03:48.000Z</time></trkpt>
        <trkpt lat="28.814969" lon="105.96396"><ele>692.68744</ele><time>2026-03-28T00:04:11.000Z</time></trkpt>
        <trkpt lat="28.814925" lon="105.96397"><ele>692.32056</ele><time>2026-03-28T00:04:16.000Z</time></trkpt>
        <trkpt lat="28.814877" lon="105.963975"><ele>692.47906</ele><time>2026-03-28T00:04:21.000Z</time></trkpt>
        <trkpt lat="28.814826" lon="105.963967"><ele>692.3175</ele><time>2026-03-28T00:04:28.000Z</time></trkpt>
        <trkpt lat="28.814778" lon="105.963963"><ele>692.5516</ele><time>2026-03-28T00:04:34.000Z</time></trkpt>
        <trkpt lat="28.814734" lon="105.963958"><ele>692.5221</ele><time>2026-03-28T00:04:38.000Z</time></trkpt>
        <trkpt lat="28.814686" lon="105.963977"><ele>692.7723</ele><time>2026-03-28T00:04:43.000Z</time></trkpt>
        <trkpt lat="28.814653" lon="105.964026"><ele>692.8709</ele><time>2026-03-28T00:04:49.000Z</time></trkpt>
        <trkpt lat="28.814666" lon="105.963984"><ele>693.643</ele><time>2026-03-28T00:05:37.000Z</time></trkpt>
        <trkpt lat="28.814716" lon="105.963981"><ele>693.4296</ele><time>2026-03-28T00:05:45.000Z</time></trkpt>
        <trkpt lat="28.81476" lon="105.963986"><ele>693.30927</ele><time>2026-03-28T00:05:50.000Z</time></trkpt>
        <trkpt lat="28.814808" lon="105.96399"><ele>692.94824</ele><time>2026-03-28T00:05:55.000Z</time></trkpt>
        <trkpt lat="28.814856" lon="105.96398"><ele>692.80664</ele><time>2026-03-28T00:05:59.000Z</time></trkpt>
        <trkpt lat="28.814911" lon="105.96396"><ele>692.73816</ele><time>2026-03-28T00:06:04.000Z</time></trkpt>
        <trkpt lat="28.814964" lon="105.96395"><ele>692.621</ele><time>2026-03-28T00:06:10.000Z</time></trkpt>
        <trkpt lat="28.815006" lon="105.963957"><ele>692.45905</ele><time>2026-03-28T00:06:14.000Z</time></trkpt>
        <trkpt lat="28.815054" lon="105.963968"><ele>692.0215</ele><time>2026-03-28T00:06:19.000Z</time></trkpt>
        <trkpt lat="28.815104" lon="105.963978"><ele>691.96387</ele><time>2026-03-28T00:06:26.000Z</time></trkpt>
        <trkpt lat="28.815151" lon="105.963974"><ele>691.28436</ele><time>2026-03-28T00:06:50.000Z</time></trkpt>
        <trkpt lat="28.81519" lon="105.963987"><ele>691.22797</ele><time>2026-03-28T00:07:00.000Z</time></trkpt>
        <trkpt lat="28.815233" lon="105.964009"><ele>691.2453</ele><time>2026-03-28T00:07:06.000Z</time></trkpt>
        <trkpt lat="28.815285" lon="105.963966"><ele>693.1575</ele><time>2026-03-28T00:07:44.000Z</time></trkpt>
        <trkpt lat="28.81533" lon="105.963967"><ele>694.9912</ele><time>2026-03-28T00:08:13.000Z</time></trkpt>
        <trkpt lat="28.815375" lon="105.963979"><ele>696.2517</ele><time>2026-03-28T00:11:45.000Z</time></trkpt>
        <trkpt lat="28.815414" lon="105.963981"><ele>696.49677</ele><time>2026-03-28T00:11:56.000Z</time></trkpt>
        <trkpt lat="28.815415" lon="105.963928"><ele>697.3733</ele><time>2026-03-28T00:13:19.000Z</time></trkpt>
        <trkpt lat="28.81539" lon="105.96388"><ele>698.30255</ele><time>2026-03-28T00:14:03.000Z</time></trkpt>
        <trkpt lat="28.81543" lon="105.963904"><ele>698.61145</ele><time>2026-03-28T00:14:17.000Z</time></trkpt>
        <trkpt lat="28.815464" lon="105.963938"><ele>699.1359</ele><time>2026-03-28T00:14:34.000Z</time></trkpt>
        <trkpt lat="28.815499" lon="105.963906"><ele>700.0431</ele><time>2026-03-28T00:14:48.000Z</time></trkpt>
        <trkpt lat="28.815457" lon="105.963872"><ele>702.65393</ele><time>2026-03-28T00:15:44.000Z</time></trkpt>
        <trkpt lat="28.815456" lon="105.963822"><ele>703.12665</ele><time>2026-03-28T00:15:56.000Z</time></trkpt>
        <trkpt lat="28.815414" lon="105.963795"><ele>703.78796</ele><time>2026-03-28T00:16:42.000Z</time></trkpt>
        <trkpt lat="28.815386" lon="105.963752"><ele>703.92395</ele><time>2026-03-28T00:16:55.000Z</time></trkpt>
        <trkpt lat="28.81542" lon="105.963785"><ele>704.64026</ele><time>2026-03-28T00:17:14.000Z</time></trkpt>
        <trkpt lat="28.815458" lon="105.963747"><ele>705.7621</ele><time>2026-03-28T00:18:06.000Z</time></trkpt>
        <trkpt lat="28.815437" lon="105.963708"><ele>705.9198</ele><time>2026-03-28T00:18:10.000Z</time></trkpt>
        <trkpt lat="28.81547" lon="105.963731"><ele>706.21106</ele><time>2026-03-28T00:18:20.000Z</time></trkpt>
        <trkpt lat="28.815428" lon="105.963709"><ele>709.0984</ele><time>2026-03-28T00:20:03.000Z</time></trkpt>
        <trkpt lat="28.815477" lon="105.963689"><ele>708.85425</ele><time>2026-03-28T00:20:37.000Z</time></trkpt>
        <trkpt lat="28.815469" lon="105.963743"><ele>706.5619</ele><time>2026-03-28T00:21:05.000Z</time></trkpt>
        <trkpt lat="28.815445" lon="105.963695"><ele>704.5204</ele><time>2026-03-28T00:21:49.000Z</time></trkpt>
        <trkpt lat="28.815451" lon="105.963749"><ele>703.6421</ele><time>2026-03-28T00:22:12.000Z</time></trkpt>
        <trkpt lat="28.815463" lon="105.963799"><ele>703.5775</ele><time>2026-03-28T00:22:20.000Z</time></trkpt>
        <trkpt lat="28.815476" lon="105.963854"><ele>700.78174</ele><time>2026-03-28T00:23:28.000Z</time></trkpt>
        <trkpt lat="28.815429" lon="105.963862"><ele>699.112</ele><time>2026-03-28T00:23:42.000Z</time></trkpt>
        <trkpt lat="28.815414" lon="105.963913"><ele>697.7099</ele><time>2026-03-28T00:23:59.000Z</time></trkpt>
        <trkpt lat="28.815367" lon="105.963925"><ele>695.57227</ele><time>2026-03-28T00:24:27.000Z</time></trkpt>
        <trkpt lat="28.815328" lon="105.963951"><ele>694.1243</ele><time>2026-03-28T00:24:42.000Z</time></trkpt>
        <trkpt lat="28.815284" lon="105.963963"><ele>693.0942</ele><time>2026-03-28T00:24:53.000Z</time></trkpt>
        <trkpt lat="28.815226" lon="105.963968"><ele>691.3714</ele><time>2026-03-28T00:25:21.000Z</time></trkpt>
        <trkpt lat="28.815192" lon="105.963971"><ele>691.6177</ele><time>2026-03-28T00:25:26.000Z</time></trkpt>
        <trkpt lat="28.815143" lon="105.963958"><ele>691.6104</ele><time>2026-03-28T00:25:32.000Z</time></trkpt>
        <trkpt lat="28.815094" lon="105.963945"><ele>691.46484</ele><time>2026-03-28T00:25:38.000Z</time></trkpt>
        <trkpt lat="28.815046" lon="105.963955"><ele>691.6433</ele><time>2026-03-28T00:25:43.000Z</time></trkpt>
        <trkpt lat="28.815065" lon="105.964003"><ele>691.3834</ele><time>2026-03-28T00:26:08.000Z</time></trkpt>
        <trkpt lat="28.815048" lon="105.964053"><ele>689.56396</ele><time>2026-03-28T00:26:47.000Z</time></trkpt>
        <trkpt lat="28.815068" lon="105.964099"><ele>686.0675</ele><time>2026-03-28T00:28:13.000Z</time></trkpt>
        <trkpt lat="28.815106" lon="105.964067"><ele>686.58966</ele><time>2026-03-28T00:28:28.000Z</time></trkpt>
        <trkpt lat="28.815132" lon="105.964115"><ele>685.0135</ele><time>2026-03-28T00:28:44.000Z</time></trkpt>
        <trkpt lat="28.815161" lon="105.964159"><ele>684.43365</ele><time>2026-03-28T00:28:54.000Z</time></trkpt>
        <trkpt lat="28.8152" lon="105.964186"><ele>684.06354</ele><time>2026-03-28T00:29:04.000Z</time></trkpt>
        <trkpt lat="28.815238" lon="105.964226"><ele>683.3253</ele><time>2026-03-28T00:29:32.000Z</time></trkpt>
        <trkpt lat="28.815266" lon="105.964264"><ele>681.4627</ele><time>2026-03-28T00:29:46.000Z</time></trkpt>
        <trkpt lat="28.815309" lon="105.964295"><ele>678.49054</ele><time>2026-03-28T00:30:15.000Z</time></trkpt>
        <trkpt lat="28.815342" lon="105.964316"><ele>678.24426</ele><time>2026-03-28T00:30:22.000Z</time></trkpt>
        <trkpt lat="28.815371" lon="105.964365"><ele>677.9654</ele><time>2026-03-28T00:30:28.000Z</time></trkpt>
        <trkpt lat="28.815399" lon="105.964403"><ele>678.45416</ele><time>2026-03-28T00:30:32.000Z</time></trkpt>
        <trkpt lat="28.815439" lon="105.964442"><ele>679.1572</ele><time>2026-03-28T00:30:38.000Z</time></trkpt>
        <trkpt lat="28.815481" lon="105.96447"><ele>679.5264</ele><time>2026-03-28T00:30:44.000Z</time></trkpt>
        <trkpt lat="28.815518" lon="105.964505"><ele>679.4792</ele><time>2026-03-28T00:30:50.000Z</time></trkpt>
        <trkpt lat="28.815565" lon="105.964529"><ele>679.4835</ele><time>2026-03-28T00:30:56.000Z</time></trkpt>
        <trkpt lat="28.815616" lon="105.964533"><ele>679.47327</ele><time>2026-03-28T00:31:04.000Z</time></trkpt>
        <trkpt lat="28.815665" lon="105.964528"><ele>679.52466</ele><time>2026-03-28T00:31:15.000Z</time></trkpt>
        <trkpt lat="28.815687" lon="105.964482"><ele>680.3807</ele><time>2026-03-28T00:31:30.000Z</time></trkpt>
        <trkpt lat="28.815723" lon="105.964451"><ele>680.3293</ele><time>2026-03-28T00:31:43.000Z</time></trkpt>
        <trkpt lat="28.815771" lon="105.964441"><ele>681.0249</ele><time>2026-03-28T00:32:10.000Z</time></trkpt>
        <trkpt lat="28.815818" lon="105.964426"><ele>682.705</ele><time>2026-03-28T00:32:30.000Z</time></trkpt>
        <trkpt lat="28.815862" lon="105.964426"><ele>684.2572</ele><time>2026-03-28T00:32:38.000Z</time></trkpt>
        <trkpt lat="28.815877" lon="105.964379"><ele>686.3743</ele><time>2026-03-28T00:32:51.000Z</time></trkpt>
        <trkpt lat="28.815896" lon="105.96429"><ele>687.1323</ele><time>2026-03-28T00:33:07.000Z</time></trkpt>
        <trkpt lat="28.815919" lon="105.964241"><ele>688.7889</ele><time>2026-03-28T00:33:32.000Z</time></trkpt>
        <trkpt lat="28.815908" lon="105.964191"><ele>689.53326</ele><time>2026-03-28T00:33:49.000Z</time></trkpt>
        <trkpt lat="28.815915" lon="105.964136"><ele>691.35364</ele><time>2026-03-28T00:34:24.000Z</time></trkpt>
        <trkpt lat="28.815874" lon="105.964111"><ele>692.3421</ele><time>2026-03-28T00:35:37.000Z</time></trkpt>
        <trkpt lat="28.815875" lon="105.96406"><ele>692.96045</ele><time>2026-03-28T00:35:51.000Z</time></trkpt>
        <trkpt lat="28.815866" lon="105.964112"><ele>691.9932</ele><time>2026-03-28T00:36:08.000Z</time></trkpt>
        <trkpt lat="28.815858" lon="105.964168"><ele>690.9748</ele><time>2026-03-28T00:36:24.000Z</time></trkpt>
        <trkpt lat="28.815886" lon="105.964202"><ele>690.7522</ele><time>2026-03-28T00:36:33.000Z</time></trkpt>
        <trkpt lat="28.815907" lon="105.964255"><ele>689.4001</ele><time>2026-03-28T00:36:45.000Z</time></trkpt>
        <trkpt lat="28.815911" lon="105.964206"><ele>689.95886</ele><time>2026-03-28T00:37:21.000Z</time></trkpt>
        <trkpt lat="28.815881" lon="105.964159"><ele>690.2522</ele><time>2026-03-28T00:37:50.000Z</time></trkpt>
        <trkpt lat="28.815896" lon="105.964211"><ele>689.5294</ele><time>2026-03-28T00:38:45.000Z</time></trkpt>
        <trkpt lat="28.81589" lon="105.964281"><ele>689.7114</ele><time>2026-03-28T00:39:20.000Z</time></trkpt>
        <trkpt lat="28.815894" lon="105.964332"><ele>688.7602</ele><time>2026-03-28T00:39:27.000Z</time></trkpt>
        <trkpt lat="28.81585" lon="105.964363"><ele>685.0745</ele><time>2026-03-28T00:40:15.000Z</time></trkpt>
        <trkpt lat="28.81581" lon="105.964364"><ele>684.17096</ele><time>2026-03-28T00:40:20.000Z</time></trkpt>
        <trkpt lat="28.815756" lon="105.964349"><ele>683.2863</ele><time>2026-03-28T00:40:27.000Z</time></trkpt>
        <trkpt lat="28.815733" lon="105.964303"><ele>683.8595</ele><time>2026-03-28T00:40:32.000Z</time></trkpt>
        <trkpt lat="28.815702" lon="105.964251"><ele>684.86383</ele><time>2026-03-28T00:40:41.000Z</time></trkpt>
        <trkpt lat="28.815673" lon="105.964215"><ele>686.1724</ele><time>2026-03-28T00:40:47.000Z</time></trkpt>
        <trkpt lat="28.815666" lon="105.96416"><ele>690.01953</ele><time>2026-03-28T00:41:40.000Z</time></trkpt>
        <trkpt lat="28.815661" lon="105.964108"><ele>692.36804</ele><time>2026-03-28T00:41:57.000Z</time></trkpt>
        <trkpt lat="28.815688" lon="105.964058"><ele>695.2164</ele><time>2026-03-28T00:42:21.000Z</time></trkpt>
        <trkpt lat="28.815734" lon="105.964053"><ele>695.8398</ele><time>2026-03-28T00:42:27.000Z</time></trkpt>
        <trkpt lat="28.815791" lon="105.964056"><ele>697.7718</ele><time>2026-03-28T00:42:41.000Z</time></trkpt>
        <trkpt lat="28.815798" lon="105.964001"><ele>699.6432</ele><time>2026-03-28T00:43:22.000Z</time></trkpt>
        <trkpt lat="28.815816" lon="105.963953"><ele>701.07117</ele><time>2026-03-28T00:43:36.000Z</time></trkpt>
        <trkpt lat="28.815838" lon="105.96389"><ele>705.80975</ele><time>2026-03-28T00:44:50.000Z</time></trkpt>
        <trkpt lat="28.815829" lon="105.963818"><ele>708.07587</ele><time>2026-03-28T00:45:34.000Z</time></trkpt>
        <trkpt lat="28.815856" lon="105.963778"><ele>709.1967</ele><time>2026-03-28T00:45:45.000Z</time></trkpt>
        <trkpt lat="28.815903" lon="105.963777"><ele>711.56854</ele><time>2026-03-28T00:46:09.000Z</time></trkpt>
        <trkpt lat="28.815945" lon="105.963766"><ele>713.0766</ele><time>2026-03-28T00:46:23.000Z</time></trkpt>
        <trkpt lat="28.815924" lon="105.963721"><ele>714.47345</ele><time>2026-03-28T00:46:43.000Z</time></trkpt>
        <trkpt lat="28.815956" lon="105.963688"><ele>714.0497</ele><time>2026-03-28T00:47:02.000Z</time></trkpt>
        <trkpt lat="28.815934" lon="105.963732"><ele>713.93506</ele><time>2026-03-28T00:47:15.000Z</time></trkpt>
        <trkpt lat="28.815968" lon="105.963707"><ele>716.2584</ele><time>2026-03-28T00:47:58.000Z</time></trkpt>
        <trkpt lat="28.81601" lon="105.963684"><ele>717.1776</ele><time>2026-03-28T00:48:04.000Z</time></trkpt>
        <trkpt lat="28.816051" lon="105.963653"><ele>717.9937</ele><time>2026-03-28T00:48:11.000Z</time></trkpt>
        <trkpt lat="28.816084" lon="105.963612"><ele>718.8842</ele><time>2026-03-28T00:48:23.000Z</time></trkpt>
      </trkseg>
      <trkseg>
        <trkpt lat="28.816144" lon="105.963475"><ele>721.0891</ele><time>2026-03-28T00:49:17.000Z</time></trkpt>
        <trkpt lat="28.816163" lon="105.963417"><ele>723.83466</ele><time>2026-03-28T00:49:47.000Z</time></trkpt>
        <trkpt lat="28.816178" lon="105.963376"><ele>724.5943</ele><time>2026-03-28T00:49:52.000Z</time></trkpt>
        <trkpt lat="28.816139" lon="105.963351"><ele>726.74774</ele><time>2026-03-28T00:50:12.000Z</time></trkpt>
        <trkpt lat="28.816149" lon="105.963402"><ele>729.23346</ele><time>2026-03-28T00:50:32.000Z</time></trkpt>
        <trkpt lat="28.816105" lon="105.963366"><ele>729.0185</ele><time>2026-03-28T00:50:42.000Z</time></trkpt>
        <trkpt lat="28.81617" lon="105.963352"><ele>729.6049</ele><time>2026-03-28T00:51:02.000Z</time></trkpt>
        <trkpt lat="28.81621" lon="105.963314"><ele>731.2112</ele><time>2026-03-28T00:51:23.000Z</time></trkpt>
        <trkpt lat="28.816246" lon="105.963321"><ele>732.3294</ele><time>2026-03-28T00:51:32.000Z</time></trkpt>
        <trkpt lat="28.816298" lon="105.963311"><ele>733.9898</ele><time>2026-03-28T00:51:50.000Z</time></trkpt>
        <trkpt lat="28.816283" lon="105.963262"><ele>734.55035</ele><time>2026-03-28T00:52:12.000Z</time></trkpt>
        <trkpt lat="28.816285" lon="105.963212"><ele>735.997</ele><time>2026-03-28T00:52:25.000Z</time></trkpt>
        <trkpt lat="28.816276" lon="105.963159"><ele>738.17584</ele><time>2026-03-28T00:52:39.000Z</time></trkpt>
        <trkpt lat="28.816311" lon="105.963192"><ele>741.5011</ele><time>2026-03-28T00:53:24.000Z</time></trkpt>
        <trkpt lat="28.81636" lon="105.963178"><ele>744.1379</ele><time>2026-03-28T00:53:46.000Z</time></trkpt>
        <trkpt lat="28.816403" lon="105.963201"><ele>745.92926</ele><time>2026-03-28T00:53:59.000Z</time></trkpt>
        <trkpt lat="28.816451" lon="105.963196"><ele>747.8203</ele><time>2026-03-28T00:54:33.000Z</time></trkpt>
        <trkpt lat="28.816497" lon="105.96319"><ele>751.27716</ele><time>2026-03-28T00:55:14.000Z</time></trkpt>
        <trkpt lat="28.816538" lon="105.963166"><ele>752.9708</ele><time>2026-03-28T00:55:46.000Z</time></trkpt>
        <trkpt lat="28.816519" lon="105.963117"><ele>757.4457</ele><time>2026-03-28T00:56:45.000Z</time></trkpt>
        <trkpt lat="28.816474" lon="105.963101"><ele>758.87354</ele><time>2026-03-28T00:57:14.000Z</time></trkpt>
        <trkpt lat="28.816492" lon="105.963041"><ele>761.189</ele><time>2026-03-28T00:58:16.000Z</time></trkpt>
        <trkpt lat="28.816463" lon="105.963001"><ele>762.125</ele><time>2026-03-28T00:58:28.000Z</time></trkpt>
        <trkpt lat="28.816413" lon="105.962966"><ele>763.6585</ele><time>2026-03-28T00:58:55.000Z</time></trkpt>
        <trkpt lat="28.816424" lon="105.962921"><ele>766.3187</ele><time>2026-03-28T00:59:06.000Z</time></trkpt>
        <trkpt lat="28.81647" lon="105.962889"><ele>768.23553</ele><time>2026-03-28T00:59:32.000Z</time></trkpt>
        <trkpt lat="28.816427" lon="105.962907"><ele>769.8016</ele><time>2026-03-28T00:59:51.000Z</time></trkpt>
        <trkpt lat="28.816418" lon="105.962851"><ele>770.6714</ele><time>2026-03-28T01:00:00.000Z</time></trkpt>
        <trkpt lat="28.816441" lon="105.962794"><ele>771.00916</ele><time>2026-03-28T01:00:18.000Z</time></trkpt>
        <trkpt lat="28.816411" lon="105.962783"><ele>770.80286</ele><time>2026-03-28T01:00:22.000Z</time></trkpt>
        <trkpt lat="28.816347" lon="105.962788"><ele>772.4597</ele><time>2026-03-28T01:00:46.000Z</time></trkpt>
        <trkpt lat="28.816306" lon="105.962785"><ele>772.532</ele><time>2026-03-28T01:00:52.000Z</time></trkpt>
        <trkpt lat="28.816254" lon="105.962773"><ele>773.2571</ele><time>2026-03-28T01:01:00.000Z</time></trkpt>
        <trkpt lat="28.816204" lon="105.962741"><ele>774.268</ele><time>2026-03-28T01:01:13.000Z</time></trkpt>
        <trkpt lat="28.816156" lon="105.962735"><ele>774.3417</ele><time>2026-03-28T01:01:34.000Z</time></trkpt>
        <trkpt lat="28.816111" lon="105.962716"><ele>775.7662</ele><time>2026-03-28T01:01:44.000Z</time></trkpt>
        <trkpt lat="28.816063" lon="105.962702"><ele>776.67303</ele><time>2026-03-28T01:01:53.000Z</time></trkpt>
        <trkpt lat="28.816029" lon="105.962656"><ele>777.8101</ele><time>2026-03-28T01:02:20.000Z</time></trkpt>
        <trkpt lat="28.816017" lon="105.962703"><ele>777.82434</ele><time>2026-03-28T01:02:26.000Z</time></trkpt>
        <trkpt lat="28.816058" lon="105.962721"><ele>780.11334</ele><time>2026-03-28T01:04:19.000Z</time></trkpt>
        <trkpt lat="28.816105" lon="105.962732"><ele>780.92816</ele><time>2026-03-28T01:04:41.000Z</time></trkpt>
        <trkpt lat="28.816141" lon="105.962697"><ele>783.4236</ele><time>2026-03-28T01:05:01.000Z</time></trkpt>
        <trkpt lat="28.816184" lon="105.962697"><ele>785.0426</ele><time>2026-03-28T01:05:10.000Z</time></trkpt>
        <trkpt lat="28.816192" lon="105.962652"><ele>785.3617</ele><time>2026-03-28T01:05:25.000Z</time></trkpt>
        <trkpt lat="28.816175" lon="105.9626"><ele>785.9372</ele><time>2026-03-28T01:05:49.000Z</time></trkpt>
        <trkpt lat="28.816173" lon="105.962658"><ele>787.0133</ele><time>2026-03-28T01:06:04.000Z</time></trkpt>
        <trkpt lat="28.81621" lon="105.962631"><ele>788.9911</ele><time>2026-03-28T01:06:22.000Z</time></trkpt>
        <trkpt lat="28.816171" lon="105.962656"><ele>791.1863</ele><time>2026-03-28T01:06:55.000Z</time></trkpt>
        <trkpt lat="28.816155" lon="105.962603"><ele>793.89325</ele><time>2026-03-28T01:07:21.000Z</time></trkpt>
        <trkpt lat="28.816117" lon="105.96257"><ele>795.38983</ele><time>2026-03-28T01:07:51.000Z</time></trkpt>
        <trkpt lat="28.81608" lon="105.962537"><ele>796.7436</ele><time>2026-03-28T01:08:16.000Z</time></trkpt>
        <trkpt lat="28.816121" lon="105.962555"><ele>797.69073</ele><time>2026-03-28T01:08:28.000Z</time></trkpt>
        <trkpt lat="28.81617" lon="105.962571"><ele>798.6421</ele><time>2026-03-28T01:08:44.000Z</time></trkpt>
        <trkpt lat="28.816213" lon="105.962546"><ele>800.78625</ele><time>2026-03-28T01:09:09.000Z</time></trkpt>
        <trkpt lat="28.816156" lon="105.96254"><ele>803.1151</ele><time>2026-03-28T01:09:48.000Z</time></trkpt>
        <trkpt lat="28.816128" lon="105.962523"><ele>803.074</ele><time>2026-03-28T01:09:51.000Z</time></trkpt>
        <trkpt lat="28.816169" lon="105.96249"><ele>804.0053</ele><time>2026-03-28T01:10:02.000Z</time></trkpt>
        <trkpt lat="28.816212" lon="105.962491"><ele>804.1994</ele><time>2026-03-28T01:10:05.000Z</time></trkpt>
        <trkpt lat="28.816272" lon="105.962476"><ele>805.18365</ele><time>2026-03-28T01:10:44.000Z</time></trkpt>
        <trkpt lat="28.816306" lon="105.962516"><ele>806.04004</ele><time>2026-03-28T01:11:37.000Z</time></trkpt>
        <trkpt lat="28.816315" lon="105.962466"><ele>808.1254</ele><time>2026-03-28T01:11:58.000Z</time></trkpt>
        <trkpt lat="28.816317" lon="105.962516"><ele>808.5734</ele><time>2026-03-28T01:12:11.000Z</time></trkpt>
        <trkpt lat="28.816353" lon="105.962563"><ele>808.9125</ele><time>2026-03-28T01:13:11.000Z</time></trkpt>
        <trkpt lat="28.816393" lon="105.962583"><ele>810.95667</ele><time>2026-03-28T01:13:24.000Z</time></trkpt>
        <trkpt lat="28.816412" lon="105.962531"><ele>811.65216</ele><time>2026-03-28T01:13:51.000Z</time></trkpt>
        <trkpt lat="28.816405" lon="105.962584"><ele>811.7052</ele><time>2026-03-28T01:14:27.000Z</time></trkpt>
        <trkpt lat="28.816438" lon="105.962526"><ele>813.5728</ele><time>2026-03-28T01:15:13.000Z</time></trkpt>
        <trkpt lat="28.81648" lon="105.962544"><ele>815.37506</ele><time>2026-03-28T01:15:30.000Z</time></trkpt>
        <trkpt lat="28.816505" lon="105.962592"><ele>816.88275</ele><time>2026-03-28T01:16:04.000Z</time></trkpt>
        <trkpt lat="28.816554" lon="105.962611"><ele>817.9031</ele><time>2026-03-28T01:16:27.000Z</time></trkpt>
        <trkpt lat="28.816593" lon="105.962599"><ele>818.3535</ele><time>2026-03-28T01:16:32.000Z</time></trkpt>
        <trkpt lat="28.816621" lon="105.962637"><ele>819.5022</ele><time>2026-03-28T01:16:52.000Z</time></trkpt>
        <trkpt lat="28.816669" lon="105.962627"><ele>821.9683</ele><time>2026-03-28T01:17:37.000Z</time></trkpt>
        <trkpt lat="28.81669" lon="105.96258"><ele>823.7437</ele><time>2026-03-28T01:18:24.000Z</time></trkpt>
        <trkpt lat="28.816733" lon="105.962556"><ele>826.745</ele><time>2026-03-28T01:18:42.000Z</time></trkpt>
        <trkpt lat="28.816689" lon="105.962543"><ele>828.4877</ele><time>2026-03-28T01:19:32.000Z</time></trkpt>
        <trkpt lat="28.816684" lon="105.962596"><ele>828.6242</ele><time>2026-03-28T01:20:01.000Z</time></trkpt>
        <trkpt lat="28.816714" lon="105.962638"><ele>830.1095</ele><time>2026-03-28T01:20:12.000Z</time></trkpt>
        <trkpt lat="28.816752" lon="105.962617"><ele>830.368</ele><time>2026-03-28T01:20:25.000Z</time></trkpt>
        <trkpt lat="28.816794" lon="105.962605"><ele>830.2797</ele><time>2026-03-28T01:20:30.000Z</time></trkpt>
        <trkpt lat="28.816846" lon="105.962585"><ele>830.53296</ele><time>2026-03-28T01:20:47.000Z</time></trkpt>
        <trkpt lat="28.816805" lon="105.962569"><ele>831.6542</ele><time>2026-03-28T01:21:02.000Z</time></trkpt>
        <trkpt lat="28.816817" lon="105.962515"><ele>835.49475</ele><time>2026-03-28T01:21:44.000Z</time></trkpt>
        <trkpt lat="28.8168" lon="105.962474"><ele>836.81976</ele><time>2026-03-28T01:21:51.000Z</time></trkpt>
        <trkpt lat="28.81675" lon="105.962489"><ele>837.4949</ele><time>2026-03-28T01:22:11.000Z</time></trkpt>
        <trkpt lat="28.816789" lon="105.962523"><ele>839.6105</ele><time>2026-03-28T01:22:56.000Z</time></trkpt>
        <trkpt lat="28.816786" lon="105.962439"><ele>842.348</ele><time>2026-03-28T01:23:22.000Z</time></trkpt>
        <trkpt lat="28.816767" lon="105.96239"><ele>843.5314</ele><time>2026-03-28T01:23:32.000Z</time></trkpt>
        <trkpt lat="28.816737" lon="105.962342"><ele>844.07947</ele><time>2026-03-28T01:23:59.000Z</time></trkpt>
        <trkpt lat="28.816737" lon="105.962291"><ele>846.65405</ele><time>2026-03-28T01:24:25.000Z</time></trkpt>
        <trkpt lat="28.816739" lon="105.96224"><ele>847.5302</ele><time>2026-03-28T01:24:37.000Z</time></trkpt>
        <trkpt lat="28.816707" lon="105.96221"><ele>847.8466</ele><time>2026-03-28T01:24:43.000Z</time></trkpt>
        <trkpt lat="28.816653" lon="105.962193"><ele>850.41174</ele><time>2026-03-28T01:25:00.000Z</time></trkpt>
        <trkpt lat="28.816616" lon="105.962185"><ele>850.1925</ele><time>2026-03-28T01:25:06.000Z</time></trkpt>
        <trkpt lat="28.816564" lon="105.962195"><ele>850.3237</ele><time>2026-03-28T01:25:31.000Z</time></trkpt>
        <trkpt lat="28.81652" lon="105.962205"><ele>850.1937</ele><time>2026-03-28T01:25:44.000Z</time></trkpt>
        <trkpt lat="28.816479" lon="105.962233"><ele>850.48413</ele><time>2026-03-28T01:26:22.000Z</time></trkpt>
        <trkpt lat="28.816451" lon="105.962187"><ele>849.7064</ele><time>2026-03-28T01:26:57.000Z</time></trkpt>
        <trkpt lat="28.816402" lon="105.962167"><ele>850.7977</ele><time>2026-03-28T01:29:23.000Z</time></trkpt>
        <trkpt lat="28.816363" lon="105.962149"><ele>851.39514</ele><time>2026-03-28T01:29:32.000Z</time></trkpt>
        <trkpt lat="28.816313" lon="105.962145"><ele>852.5019</ele><time>2026-03-28T01:29:39.000Z</time></trkpt>
        <trkpt lat="28.81626" lon="105.962131"><ele>854.4002</ele><time>2026-03-28T01:29:52.000Z</time></trkpt>
        <trkpt lat="28.816222" lon="105.962097"><ele>855.15015</ele><time>2026-03-28T01:29:59.000Z</time></trkpt>
        <trkpt lat="28.816164" lon="105.962091"><ele>855.7057</ele><time>2026-03-28T01:30:18.000Z</time></trkpt>
        <trkpt lat="28.816143" lon="105.962136"><ele>856.0775</ele><time>2026-03-28T01:30:25.000Z</time></trkpt>
        <trkpt lat="28.816106" lon="105.962176"><ele>855.9679</ele><time>2026-03-28T01:30:44.000Z</time></trkpt>
        <trkpt lat="28.816059" lon="105.962163"><ele>857.42914</ele><time>2026-03-28T01:31:02.000Z</time></trkpt>
        <trkpt lat="28.81602" lon="105.962143"><ele>858.4002</ele><time>2026-03-28T01:31:09.000Z</time></trkpt>
        <trkpt lat="28.815971" lon="105.962125"><ele>858.856</ele><time>2026-03-28T01:31:19.000Z</time></trkpt>
        <trkpt lat="28.815924" lon="105.962106"><ele>859.0382</ele><time>2026-03-28T01:31:25.000Z</time></trkpt>
        <trkpt lat="28.815874" lon="105.962083"><ele>859.1813</ele><time>2026-03-28T01:31:33.000Z</time></trkpt>
        <trkpt lat="28.815827" lon="105.962064"><ele>859.8933</ele><time>2026-03-28T01:31:40.000Z</time></trkpt>
        <trkpt lat="28.815782" lon="105.962048"><ele>860.02057</ele><time>2026-03-28T01:31:46.000Z</time></trkpt>
        <trkpt lat="28.815738" lon="105.962027"><ele>860.3765</ele><time>2026-03-28T01:31:52.000Z</time></trkpt>
        <trkpt lat="28.815682" lon="105.962007"><ele>860.7811</ele><time>2026-03-28T01:32:04.000Z</time></trkpt>
        <trkpt lat="28.815643" lon="105.961986"><ele>861.28076</ele><time>2026-03-28T01:32:13.000Z</time></trkpt>
        <trkpt lat="28.815595" lon="105.961983"><ele>861.4503</ele><time>2026-03-28T01:32:21.000Z</time></trkpt>
        <trkpt lat="28.815556" lon="105.96195"><ele>862.4159</ele><time>2026-03-28T01:32:40.000Z</time></trkpt>
        <trkpt lat="28.815529" lon="105.961915"><ele>863.32135</ele><time>2026-03-28T01:32:48.000Z</time></trkpt>
        <trkpt lat="28.815502" lon="105.961861"><ele>863.3254</ele><time>2026-03-28T01:33:15.000Z</time></trkpt>
        <trkpt lat="28.815543" lon="105.961838"><ele>865.33044</ele><time>2026-03-28T01:33:58.000Z</time></trkpt>
        <trkpt lat="28.815586" lon="105.961843"><ele>866.0597</ele><time>2026-03-28T01:34:08.000Z</time></trkpt>
        <trkpt lat="28.815638" lon="105.961837"><ele>866.10803</ele><time>2026-03-28T01:34:15.000Z</time></trkpt>
        <trkpt lat="28.81569" lon="105.961829"><ele>867.19214</ele><time>2026-03-28T01:34:27.000Z</time></trkpt>
        <trkpt lat="28.815725" lon="105.961791"><ele>868.2607</ele><time>2026-03-28T01:34:43.000Z</time></trkpt>
        <trkpt lat="28.815768" lon="105.961765"><ele>868.8547</ele><time>2026-03-28T01:34:55.000Z</time></trkpt>
        <trkpt lat="28.815813" lon="105.961743"><ele>871.01483</ele><time>2026-03-28T01:35:16.000Z</time></trkpt>
        <trkpt lat="28.815867" lon="105.961745"><ele>871.41614</ele><time>2026-03-28T01:35:28.000Z</time></trkpt>
        <trkpt lat="28.815914" lon="105.961727"><ele>872.7087</ele><time>2026-03-28T01:35:36.000Z</time></trkpt>
        <trkpt lat="28.815952" lon="105.961669"><ele>872.81134</ele><time>2026-03-28T01:36:45.000Z</time></trkpt>
        <trkpt lat="28.815997" lon="105.961671"><ele>872.9243</ele><time>2026-03-28T01:37:00.000Z</time></trkpt>
        <trkpt lat="28.816046" lon="105.961652"><ele>874.74286</ele><time>2026-03-28T01:37:22.000Z</time></trkpt>
        <trkpt lat="28.816073" lon="105.961603"><ele>876.41754</ele><time>2026-03-28T01:37:47.000Z</time></trkpt>
        <trkpt lat="28.81612" lon="105.961604"><ele>877.9789</ele><time>2026-03-28T01:38:05.000Z</time></trkpt>
        <trkpt lat="28.816145" lon="105.961557"><ele>878.10767</ele><time>2026-03-28T01:38:19.000Z</time></trkpt>
        <trkpt lat="28.81618" lon="105.961519"><ele>880.0557</ele><time>2026-03-28T01:38:49.000Z</time></trkpt>
        <trkpt lat="28.816191" lon="105.961474"><ele>879.8903</ele><time>2026-03-28T01:38:59.000Z</time></trkpt>
        <trkpt lat="28.816152" lon="105.961443"><ele>879.264</ele><time>2026-03-28T01:39:11.000Z</time></trkpt>
        <trkpt lat="28.816106" lon="105.961418"><ele>879.848</ele><time>2026-03-28T01:39:35.000Z</time></trkpt>
        <trkpt lat="28.816063" lon="105.9614"><ele>879.96936</ele><time>2026-03-28T01:39:48.000Z</time></trkpt>
        <trkpt lat="28.816036" lon="105.961359"><ele>880.6203</ele><time>2026-03-28T01:39:57.000Z</time></trkpt>
        <trkpt lat="28.816" lon="105.961318"><ele>880.49445</ele><time>2026-03-28T01:40:10.000Z</time></trkpt>
        <trkpt lat="28.815985" lon="105.961263"><ele>881.73474</ele><time>2026-03-28T01:41:05.000Z</time></trkpt>
        <trkpt lat="28.815996" lon="105.961213"><ele>883.41437</ele><time>2026-03-28T01:41:21.000Z</time></trkpt>
        <trkpt lat="28.816003" lon="105.961161"><ele>884.1692</ele><time>2026-03-28T01:41:30.000Z</time></trkpt>
        <trkpt lat="28.815997" lon="105.961111"><ele>884.3202</ele><time>2026-03-28T01:41:37.000Z</time></trkpt>
        <trkpt lat="28.816012" lon="105.96106"><ele>884.66284</ele><time>2026-03-28T01:41:45.000Z</time></trkpt>
        <trkpt lat="28.816039" lon="105.961009"><ele>884.8347</ele><time>2026-03-28T01:41:53.000Z</time></trkpt>
        <trkpt lat="28.816037" lon="105.960953"><ele>884.97076</ele><time>2026-03-28T01:42:09.000Z</time></trkpt>
        <trkpt lat="28.816018" lon="105.960905"><ele>886.9928</ele><time>2026-03-28T01:42:33.000Z</time></trkpt>
        <trkpt lat="28.815988" lon="105.960855"><ele>887.9766</ele><time>2026-03-28T01:42:46.000Z</time></trkpt>
        <trkpt lat="28.816007" lon="105.960805"><ele>890.2755</ele><time>2026-03-28T01:43:07.000Z</time></trkpt>
        <trkpt lat="28.816025" lon="105.960761"><ele>890.8198</ele><time>2026-03-28T01:43:13.000Z</time></trkpt>
        <trkpt lat="28.816051" lon="105.960704"><ele>891.924</ele><time>2026-03-28T01:43:35.000Z</time></trkpt>
        <trkpt lat="28.816085" lon="105.960738"><ele>893.09106</ele><time>2026-03-28T01:43:49.000Z</time></trkpt>
        <trkpt lat="28.816119" lon="105.960771"><ele>893.8764</ele><time>2026-03-28T01:43:54.000Z</time></trkpt>
        <trkpt lat="28.816101" lon="105.960742"><ele>894.1093</ele><time>2026-03-28T01:44:03.000Z</time></trkpt>
        <trkpt lat="28.816072" lon="105.960698"><ele>894.18945</ele><time>2026-03-28T01:44:08.000Z</time></trkpt>
        <trkpt lat="28.816072" lon="105.960637"><ele>894.1493</ele><time>2026-03-28T01:44:17.000Z</time></trkpt>
        <trkpt lat="28.816102" lon="105.960592"><ele>895.03937</ele><time>2026-03-28T01:44:36.000Z</time></trkpt>
        <trkpt lat="28.816149" lon="105.960605"><ele>895.4643</ele><time>2026-03-28T01:44:57.000Z</time></trkpt>
        <trkpt lat="28.816202" lon="105.96061"><ele>897.7446</ele><time>2026-03-28T01:45:24.000Z</time></trkpt>
        <trkpt lat="28.816169" lon="105.960573"><ele>899.3734</ele><time>2026-03-28T01:45:46.000Z</time></trkpt>
        <trkpt lat="28.816132" lon="105.960537"><ele>899.50464</ele><time>2026-03-28T01:45:52.000Z</time></trkpt>
        <trkpt lat="28.816097" lon="105.96049"><ele>899.55176</ele><time>2026-03-28T01:45:57.000Z</time></trkpt>
        <trkpt lat="28.816059" lon="105.960448"><ele>899.7947</ele><time>2026-03-28T01:46:03.000Z</time></trkpt>
        <trkpt lat="28.816013" lon="105.960474"><ele>900.84576</ele><time>2026-03-28T01:46:20.000Z</time></trkpt>
        <trkpt lat="28.81597" lon="105.960494"><ele>904.3156</ele><time>2026-03-28T01:47:12.000Z</time></trkpt>
        <trkpt lat="28.815945" lon="105.960447"><ele>905.67395</ele><time>2026-03-28T01:47:21.000Z</time></trkpt>
        <trkpt lat="28.81592" lon="105.960401"><ele>905.7789</ele><time>2026-03-28T01:47:59.000Z</time></trkpt>
        <trkpt lat="28.815878" lon="105.96042"><ele>905.5053</ele><time>2026-03-28T01:48:17.000Z</time></trkpt>
        <trkpt lat="28.815831" lon="105.960429"><ele>905.8253</ele><time>2026-03-28T01:48:33.000Z</time></trkpt>
        <trkpt lat="28.815782" lon="105.960436"><ele>905.5973</ele><time>2026-03-28T01:48:42.000Z</time></trkpt>
        <trkpt lat="28.815736" lon="105.960468"><ele>905.5574</ele><time>2026-03-28T01:48:49.000Z</time></trkpt>
        <trkpt lat="28.81569" lon="105.960474"><ele>905.3752</ele><time>2026-03-28T01:48:54.000Z</time></trkpt>
        <trkpt lat="28.815633" lon="105.960485"><ele>906.0099</ele><time>2026-03-28T01:49:03.000Z</time></trkpt>
        <trkpt lat="28.815583" lon="105.960491"><ele>907.08655</ele><time>2026-03-28T01:49:15.000Z</time></trkpt>
        <trkpt lat="28.815562" lon="105.960445"><ele>907.3057</ele><time>2026-03-28T01:49:21.000Z</time></trkpt>
        <trkpt lat="28.815529" lon="105.960394"><ele>908.5616</ele><time>2026-03-28T01:49:41.000Z</time></trkpt>
        <trkpt lat="28.815518" lon="105.96035"><ele>908.3402</ele><time>2026-03-28T01:49:49.000Z</time></trkpt>
        <trkpt lat="28.815499" lon="105.960285"><ele>908.99634</ele><time>2026-03-28T01:50:05.000Z</time></trkpt>
        <trkpt lat="28.815467" lon="105.96025"><ele>909.0508</ele><time>2026-03-28T01:50:10.000Z</time></trkpt>
        <trkpt lat="28.815421" lon="105.960215"><ele>909.48566</ele><time>2026-03-28T01:50:19.000Z</time></trkpt>
        <trkpt lat="28.815374" lon="105.9602"><ele>909.6258</ele><time>2026-03-28T01:50:27.000Z</time></trkpt>
        <trkpt lat="28.815324" lon="105.960188"><ele>909.71014</ele><time>2026-03-28T01:50:33.000Z</time></trkpt>
        <trkpt lat="28.815273" lon="105.960169"><ele>909.26324</ele><time>2026-03-28T01:50:40.000Z</time></trkpt>
        <trkpt lat="28.815224" lon="105.960167"><ele>908.97314</ele><time>2026-03-28T01:50:48.000Z</time></trkpt>
        <trkpt lat="28.815179" lon="105.96017"><ele>909.06647</ele><time>2026-03-28T01:50:56.000Z</time></trkpt>
        <trkpt lat="28.815135" lon="105.960151"><ele>908.5085</ele><time>2026-03-28T01:51:05.000Z</time></trkpt>
        <trkpt lat="28.81511" lon="105.960104"><ele>908.1916</ele><time>2026-03-28T01:51:16.000Z</time></trkpt>
        <trkpt lat="28.815066" lon="105.960081"><ele>908.2628</ele><time>2026-03-28T01:51:32.000Z</time></trkpt>
        <trkpt lat="28.815021" lon="105.960067"><ele>907.5377</ele><time>2026-03-28T01:51:54.000Z</time></trkpt>
        <trkpt lat="28.81498" lon="105.960054"><ele>907.5232</ele><time>2026-03-28T01:52:03.000Z</time></trkpt>
        <trkpt lat="28.81493" lon="105.960035"><ele>907.7551</ele><time>2026-03-28T01:52:14.000Z</time></trkpt>
        <trkpt lat="28.814898" lon="105.959998"><ele>907.4251</ele><time>2026-03-28T01:52:20.000Z</time></trkpt>
        <trkpt lat="28.814875" lon="105.959944"><ele>907.52386</ele><time>2026-03-28T01:52:31.000Z</time></trkpt>
        <trkpt lat="28.814891" lon="105.959883"><ele>909.92847</ele><time>2026-03-28T01:53:48.000Z</time></trkpt>
        <trkpt lat="28.814908" lon="105.959835"><ele>909.8406</ele><time>2026-03-28T01:54:09.000Z</time></trkpt>
        <trkpt lat="28.814945" lon="105.959802"><ele>909.8337</ele><time>2026-03-28T01:54:37.000Z</time></trkpt>
        <trkpt lat="28.814994" lon="105.959801"><ele>911.12555</ele><time>2026-03-28T01:55:15.000Z</time></trkpt>
        <trkpt lat="28.815042" lon="105.959801"><ele>911.68054</ele><time>2026-03-28T01:55:26.000Z</time></trkpt>
        <trkpt lat="28.81509" lon="105.9598"><ele>911.36865</ele><time>2026-03-28T01:55:35.000Z</time></trkpt>
        <trkpt lat="28.815139" lon="105.959805"><ele>911.3878</ele><time>2026-03-28T01:55:46.000Z</time></trkpt>
        <trkpt lat="28.8152" lon="105.959779"><ele>911.21326</ele><time>2026-03-28T01:56:05.000Z</time></trkpt>
        <trkpt lat="28.815232" lon="105.959739"><ele>910.29016</ele><time>2026-03-28T01:57:02.000Z</time></trkpt>
        <trkpt lat="28.815279" lon="105.959741"><ele>909.6209</ele><time>2026-03-28T01:57:29.000Z</time></trkpt>
        <trkpt lat="28.815313" lon="105.959713"><ele>909.13556</ele><time>2026-03-28T01:57:36.000Z</time></trkpt>
        <trkpt lat="28.815363" lon="105.9597"><ele>909.05884</ele><time>2026-03-28T01:57:45.000Z</time></trkpt>
        <trkpt lat="28.815394" lon="105.959657"><ele>909.9022</ele><time>2026-03-28T01:57:58.000Z</time></trkpt>
        <trkpt lat="28.815393" lon="105.959609"><ele>909.49713</ele><time>2026-03-28T01:58:04.000Z</time></trkpt>
        <trkpt lat="28.81539" lon="105.95955"><ele>909.67114</ele><time>2026-03-28T01:58:21.000Z</time></trkpt>
        <trkpt lat="28.815423" lon="105.959522"><ele>909.35034</ele><time>2026-03-28T01:58:31.000Z</time></trkpt>
        <trkpt lat="28.815399" lon="105.95947"><ele>909.7281</ele><time>2026-03-28T01:58:59.000Z</time></trkpt>
        <trkpt lat="28.815427" lon="105.959425"><ele>907.6655</ele><time>2026-03-28T02:00:27.000Z</time></trkpt>
        <trkpt lat="28.815464" lon="105.959392"><ele>907.4633</ele><time>2026-03-28T02:00:38.000Z</time></trkpt>
        <trkpt lat="28.815467" lon="105.959342"><ele>907.6435</ele><time>2026-03-28T02:00:44.000Z</time></trkpt>
        <trkpt lat="28.815506" lon="105.959311"><ele>907.69293</ele><time>2026-03-28T02:00:52.000Z</time></trkpt>
        <trkpt lat="28.815543" lon="105.95928"><ele>907.2738</ele><time>2026-03-28T02:00:58.000Z</time></trkpt>
        <trkpt lat="28.815594" lon="105.959263"><ele>906.19135</ele><time>2026-03-28T02:01:13.000Z</time></trkpt>
        <trkpt lat="28.815589" lon="105.959214"><ele>904.8577</ele><time>2026-03-28T02:01:21.000Z</time></trkpt>
        <trkpt lat="28.81558" lon="105.959153"><ele>903.32385</ele><time>2026-03-28T02:01:30.000Z</time></trkpt>
        <trkpt lat="28.815568" lon="105.959104"><ele>902.52124</ele><time>2026-03-28T02:01:36.000Z</time></trkpt>
        <trkpt lat="28.815557" lon="105.95905"><ele>901.06616</ele><time>2026-03-28T02:01:44.000Z</time></trkpt>
        <trkpt lat="28.815602" lon="105.959057"><ele>900.2561</ele><time>2026-03-28T02:02:07.000Z</time></trkpt>
        <trkpt lat="28.815568" lon="105.959025"><ele>898.00037</ele><time>2026-03-28T02:02:32.000Z</time></trkpt>
        <trkpt lat="28.815519" lon="105.959017"><ele>892.7331</ele><time>2026-03-28T02:06:34.000Z</time></trkpt>
        <trkpt lat="28.815504" lon="105.958969"><ele>890.36176</ele><time>2026-03-28T02:07:17.000Z</time></trkpt>
        <trkpt lat="28.815473" lon="105.958925"><ele>886.95483</ele><time>2026-03-28T02:07:58.000Z</time></trkpt>
        <trkpt lat="28.815446" lon="105.95888"><ele>884.2433</ele><time>2026-03-28T02:09:02.000Z</time></trkpt>
        <trkpt lat="28.815408" lon="105.958846"><ele>881.221</ele><time>2026-03-28T02:09:55.000Z</time></trkpt>
        <trkpt lat="28.815413" lon="105.958795"><ele>877.33777</ele><time>2026-03-28T02:10:29.000Z</time></trkpt>
        <trkpt lat="28.815379" lon="105.958758"><ele>874.7137</ele><time>2026-03-28T02:11:15.000Z</time></trkpt>
        <trkpt lat="28.815343" lon="105.95873"><ele>872.75256</ele><time>2026-03-28T02:11:32.000Z</time></trkpt>
        <trkpt lat="28.815357" lon="105.958675"><ele>868.5416</ele><time>2026-03-28T02:12:13.000Z</time></trkpt>
        <trkpt lat="28.815312" lon="105.958666"><ele>865.6338</ele><time>2026-03-28T02:13:04.000Z</time></trkpt>
        <trkpt lat="28.815275" lon="105.95863"><ele>859.9253</ele><time>2026-03-28T02:13:54.000Z</time></trkpt>
        <trkpt lat="28.815247" lon="105.958588"><ele>856.36774</ele><time>2026-03-28T02:14:57.000Z</time></trkpt>
        <trkpt lat="28.815221" lon="105.958545"><ele>853.76215</ele><time>2026-03-28T02:15:36.000Z</time></trkpt>
        <trkpt lat="28.815185" lon="105.958512"><ele>849.78564</ele><time>2026-03-28T02:16:36.000Z</time></trkpt>
        <trkpt lat="28.815181" lon="105.958457"><ele>848.54755</ele><time>2026-03-28T02:16:50.000Z</time></trkpt>
        <trkpt lat="28.815136" lon="105.958438"><ele>845.4772</ele><time>2026-03-28T02:17:39.000Z</time></trkpt>
        <trkpt lat="28.815099" lon="105.958401"><ele>842.11523</ele><time>2026-03-28T02:18:16.000Z</time></trkpt>
        <trkpt lat="28.815078" lon="105.958352"><ele>840.4074</ele><time>2026-03-28T02:18:34.000Z</time></trkpt>
        <trkpt lat="28.815037" lon="105.958327"><ele>838.53125</ele><time>2026-03-28T02:18:57.000Z</time></trkpt>
        <trkpt lat="28.814993" lon="105.958314"><ele>835.47363</ele><time>2026-03-28T02:19:50.000Z</time></trkpt>
        <trkpt lat="28.815017" lon="105.958266"><ele>830.7827</ele><time>2026-03-28T02:20:58.000Z</time></trkpt>
        <trkpt lat="28.815024" lon="105.958219"><ele>830.2729</ele><time>2026-03-28T02:21:04.000Z</time></trkpt>
        <trkpt lat="28.815057" lon="105.958172"><ele>827.1163</ele><time>2026-03-28T02:21:29.000Z</time></trkpt>
        <trkpt lat="28.815105" lon="105.958182"><ele>825.4803</ele><time>2026-03-28T02:21:41.000Z</time></trkpt>
        <trkpt lat="28.815065" lon="105.958207"><ele>823.40344</ele><time>2026-03-28T02:22:24.000Z</time></trkpt>
        <trkpt lat="28.815109" lon="105.9582"><ele>822.6001</ele><time>2026-03-28T02:22:37.000Z</time></trkpt>
        <trkpt lat="28.815117" lon="105.958144"><ele>822.10767</ele><time>2026-03-28T02:22:53.000Z</time></trkpt>
        <trkpt lat="28.815118" lon="105.958092"><ele>820.5381</ele><time>2026-03-28T02:23:04.000Z</time></trkpt>
        <trkpt lat="28.81516" lon="105.958114"><ele>819.3809</ele><time>2026-03-28T02:23:23.000Z</time></trkpt>
        <trkpt lat="28.815132" lon="105.958159"><ele>818.91534</ele><time>2026-03-28T02:23:50.000Z</time></trkpt>
        <trkpt lat="28.815115" lon="105.958108"><ele>819.02936</ele><time>2026-03-28T02:24:18.000Z</time></trkpt>
        <trkpt lat="28.815069" lon="105.958121"><ele>818.02686</ele><time>2026-03-28T02:24:52.000Z</time></trkpt>
        <trkpt lat="28.815026" lon="105.958101"><ele>816.0552</ele><time>2026-03-28T02:25:04.000Z</time></trkpt>
        <trkpt lat="28.814983" lon="105.958098"><ele>815.19495</ele><time>2026-03-28T02:25:13.000Z</time></trkpt>
        <trkpt lat="28.814953" lon="105.95806"><ele>814.0642</ele><time>2026-03-28T02:25:27.000Z</time></trkpt>
        <trkpt lat="28.814911" lon="105.958041"><ele>811.4869</ele><time>2026-03-28T02:25:46.000Z</time></trkpt>
        <trkpt lat="28.814955" lon="105.95803"><ele>808.67444</ele><time>2026-03-28T02:26:09.000Z</time></trkpt>
        <trkpt lat="28.815002" lon="105.958024"><ele>806.4951</ele><time>2026-03-28T02:26:26.000Z</time></trkpt>
        <trkpt lat="28.815031" lon="105.95799"><ele>805.5668</ele><time>2026-03-28T02:26:37.000Z</time></trkpt>
        <trkpt lat="28.815006" lon="105.957947"><ele>803.93805</ele><time>2026-03-28T02:26:49.000Z</time></trkpt>
        <trkpt lat="28.814957" lon="105.957958"><ele>798.937</ele><time>2026-03-28T02:28:09.000Z</time></trkpt>
        <trkpt lat="28.814927" lon="105.957939"><ele>798.23425</ele><time>2026-03-28T02:28:15.000Z</time></trkpt>
        <trkpt lat="28.814883" lon="105.957963"><ele>797.5358</ele><time>2026-03-28T02:28:25.000Z</time></trkpt>
        <trkpt lat="28.814843" lon="105.957995"><ele>796.27563</ele><time>2026-03-28T02:29:13.000Z</time></trkpt>
        <trkpt lat="28.814796" lon="105.957997"><ele>794.1018</ele><time>2026-03-28T02:29:36.000Z</time></trkpt>
        <trkpt lat="28.814795" lon="105.957945"><ele>791.8584</ele><time>2026-03-28T02:30:10.000Z</time></trkpt>
        <trkpt lat="28.814826" lon="105.957904"><ele>789.22986</ele><time>2026-03-28T02:30:27.000Z</time></trkpt>
        <trkpt lat="28.81478" lon="105.957898"><ele>785.6782</ele><time>2026-03-28T02:30:49.000Z</time></trkpt>
        <trkpt lat="28.814732" lon="105.957881"><ele>783.592</ele><time>2026-03-28T02:31:08.000Z</time></trkpt>
        <trkpt lat="28.814685" lon="105.957893"><ele>780.35693</ele><time>2026-03-28T02:31:46.000Z</time></trkpt>
        <trkpt lat="28.814668" lon="105.957944"><ele>778.8169</ele><time>2026-03-28T02:32:01.000Z</time></trkpt>
        <trkpt lat="28.814707" lon="105.957978"><ele>778.1612</ele><time>2026-03-28T02:32:09.000Z</time></trkpt>
        <trkpt lat="28.814667" lon="105.958005"><ele>777.7613</ele><time>2026-03-28T02:32:18.000Z</time></trkpt>
        <trkpt lat="28.814646" lon="105.958056"><ele>778.18085</ele><time>2026-03-28T02:32:31.000Z</time></trkpt>
        <trkpt lat="28.814625" lon="105.958101"><ele>778.0599</ele><time>2026-03-28T02:32:38.000Z</time></trkpt>
        <trkpt lat="28.814573" lon="105.958124"><ele>779.4705</ele><time>2026-03-28T02:33:04.000Z</time></trkpt>
        <trkpt lat="28.814542" lon="105.958109"><ele>779.20306</ele><time>2026-03-28T02:33:08.000Z</time></trkpt>
        <trkpt lat="28.8145" lon="105.958138"><ele>778.61847</ele><time>2026-03-28T02:33:18.000Z</time></trkpt>
        <trkpt lat="28.814454" lon="105.958137"><ele>778.1504</ele><time>2026-03-28T02:33:24.000Z</time></trkpt>
        <trkpt lat="28.814406" lon="105.95815"><ele>778.3994</ele><time>2026-03-28T02:33:30.000Z</time></trkpt>
        <trkpt lat="28.81434" lon="105.95812"><ele>778.2553</ele><time>2026-03-28T02:34:03.000Z</time></trkpt>
        <trkpt lat="28.814305" lon="105.958121"><ele>778.1438</ele><time>2026-03-28T02:34:09.000Z</time></trkpt>
        <trkpt lat="28.814252" lon="105.958147"><ele>777.3884</ele><time>2026-03-28T02:34:20.000Z</time></trkpt>
        <trkpt lat="28.814201" lon="105.958157"><ele>775.9462</ele><time>2026-03-28T02:34:31.000Z</time></trkpt>
        <trkpt lat="28.814158" lon="105.958172"><ele>773.89386</ele><time>2026-03-28T02:34:43.000Z</time></trkpt>
        <trkpt lat="28.81411" lon="105.958179"><ele>772.8349</ele><time>2026-03-28T02:34:54.000Z</time></trkpt>
        <trkpt lat="28.814059" lon="105.958176"><ele>770.8308</ele><time>2026-03-28T02:35:02.000Z</time></trkpt>
        <trkpt lat="28.814009" lon="105.958183"><ele>769.7326</ele><time>2026-03-28T02:35:12.000Z</time></trkpt>
        <trkpt lat="28.813963" lon="105.958198"><ele>769.0813</ele><time>2026-03-28T02:35:24.000Z</time></trkpt>
        <trkpt lat="28.813911" lon="105.95819"><ele>768.0014</ele><time>2026-03-28T02:35:35.000Z</time></trkpt>
        <trkpt lat="28.813863" lon="105.958191"><ele>767.6452</ele><time>2026-03-28T02:35:41.000Z</time></trkpt>
        <trkpt lat="28.813815" lon="105.958192"><ele>767.09296</ele><time>2026-03-28T02:35:47.000Z</time></trkpt>
        <trkpt lat="28.813763" lon="105.958186"><ele>765.07556</ele><time>2026-03-28T02:35:58.000Z</time></trkpt>
        <trkpt lat="28.813718" lon="105.958168"><ele>763.7139</ele><time>2026-03-28T02:36:12.000Z</time></trkpt>
        <trkpt lat="28.813674" lon="105.958163"><ele>762.7394</ele><time>2026-03-28T02:36:19.000Z</time></trkpt>
        <trkpt lat="28.813624" lon="105.958194"><ele>762.32135</ele><time>2026-03-28T02:36:55.000Z</time></trkpt>
        <trkpt lat="28.813585" lon="105.958167"><ele>756.44666</ele><time>2026-03-28T02:38:32.000Z</time></trkpt>
        <trkpt lat="28.813541" lon="105.958145"><ele>753.28406</ele><time>2026-03-28T02:39:14.000Z</time></trkpt>
        <trkpt lat="28.813504" lon="105.958115"><ele>750.51556</ele><time>2026-03-28T02:40:07.000Z</time></trkpt>
        <trkpt lat="28.813464" lon="105.958086"><ele>746.21716</ele><time>2026-03-28T02:41:09.000Z</time></trkpt>
        <trkpt lat="28.813423" lon="105.958066"><ele>744.5614</ele><time>2026-03-28T02:41:24.000Z</time></trkpt>
        <trkpt lat="28.813375" lon="105.958035"><ele>742.49805</ele><time>2026-03-28T02:41:35.000Z</time></trkpt>
        <trkpt lat="28.813338" lon="105.958071"><ele>740.98346</ele><time>2026-03-28T02:41:57.000Z</time></trkpt>
        <trkpt lat="28.813293" lon="105.958084"><ele>739.0117</ele><time>2026-03-28T02:42:25.000Z</time></trkpt>
        <trkpt lat="28.813248" lon="105.958097"><ele>735.974</ele><time>2026-03-28T02:42:51.000Z</time></trkpt>
        <trkpt lat="28.813252" lon="105.958036"><ele>735.1514</ele><time>2026-03-28T02:43:10.000Z</time></trkpt>
        <trkpt lat="28.813212" lon="105.958051"><ele>732.52844</ele><time>2026-03-28T02:43:27.000Z</time></trkpt>
        <trkpt lat="28.813187" lon="105.958099"><ele>732.6702</ele><time>2026-03-28T02:43:42.000Z</time></trkpt>
        <trkpt lat="28.813197" lon="105.958038"><ele>730.00684</ele><time>2026-03-28T02:44:49.000Z</time></trkpt>
        <trkpt lat="28.813182" lon="105.957994"><ele>728.7895</ele><time>2026-03-28T02:44:57.000Z</time></trkpt>
        <trkpt lat="28.813194" lon="105.957938"><ele>727.7137</ele><time>2026-03-28T02:45:10.000Z</time></trkpt>
        <trkpt lat="28.813195" lon="105.957887"><ele>726.2718</ele><time>2026-03-28T02:45:19.000Z</time></trkpt>
        <trkpt lat="28.813204" lon="105.957835"><ele>725.27344</ele><time>2026-03-28T02:45:26.000Z</time></trkpt>
        <trkpt lat="28.813218" lon="105.957781"><ele>723.5746</ele><time>2026-03-28T02:45:37.000Z</time></trkpt>
        <trkpt lat="28.813189" lon="105.95774"><ele>722.0472</ele><time>2026-03-28T02:45:46.000Z</time></trkpt>
        <trkpt lat="28.813146" lon="105.957712"><ele>720.91</ele><time>2026-03-28T02:45:53.000Z</time></trkpt>
        <trkpt lat="28.813119" lon="105.957667"><ele>719.57</ele><time>2026-03-28T02:46:06.000Z</time></trkpt>
        <trkpt lat="28.8131" lon="105.957624"><ele>718.74365</ele><time>2026-03-28T02:46:12.000Z</time></trkpt>
        <trkpt lat="28.813061" lon="105.957595"><ele>718.26215</ele><time>2026-03-28T02:46:18.000Z</time></trkpt>
        <trkpt lat="28.813037" lon="105.957554"><ele>717.5707</ele><time>2026-03-28T02:46:23.000Z</time></trkpt>
        <trkpt lat="28.813006" lon="105.957503"><ele>715.73376</ele><time>2026-03-28T02:46:36.000Z</time></trkpt>
        <trkpt lat="28.812981" lon="105.957463"><ele>714.72876</ele><time>2026-03-28T02:46:43.000Z</time></trkpt>
        <trkpt lat="28.812957" lon="105.957415"><ele>713.4421</ele><time>2026-03-28T02:46:50.000Z</time></trkpt>
        <trkpt lat="28.812925" lon="105.957369"><ele>711.5189</ele><time>2026-03-28T02:47:07.000Z</time></trkpt>
        <trkpt lat="28.812883" lon="105.957394"><ele>711.80536</ele><time>2026-03-28T02:47:21.000Z</time></trkpt>
      </trkseg>
  </trk>
</gpx>